GFSCGP_925_rhum_000.txt.gz
RH
45 43 40 31 29 26 28 26 24 18 24 23 26 24 18 15 18 17 16 21 20 19 20 18 20 23 22 18 19 22 25 30 35 40 50 61 67 68 68 69 68 70 69 66
46 43 26 23 26 27 27 27 26 22 21 26 26 25 16 15 15 16 22 24 26 24 24 24 24 29 32 31 29 24 23 26 31 39 48 55 64 66 66 66 67 69 71 72
39 29 23 30 33 31 30 31 31 31 25 28 27 30 22 17 20 22 23 26 27 29 30 31 32 33 38 41 38 34 31 28 30 34 43 50 55 58 59 61 67 71 73 74
28 27 30 32 32 30 34 27 28 31 34 40 27 39 25 23 26 26 30 31 31 30 31 33 36 36 39 39 36 36 33 31 32 34 40 46 51 59 60 62 60 61 64 69
33 35 34 34 30 26 37 29 28 29 34 34 28 37 27 26 31 30 30 31 32 31 32 35 39 36 39 38 32 30 32 34 35 33 34 38 45 52 54 56 57 55 53 58
30 23 26 27 28 27 27 28 30 30 35 45 26 28 31 28 30 33 30 31 31 32 32 34 34 36 39 37 34 34 33 33 33 36 43 46 45 44 45 48 51 52 52 51
31 26 21 21 27 25 29 36 48 53 52 45 23 31 30 21 26 29 33 34 32 33 33 36 41 43 40 39 38 37 37 38 36 36 35 34 36 42 53 57 58 58 58 56
48 48 29 23 26 30 31 33 51 57 52 39 25 39 28 20 22 25 29 33 34 34 34 39 42 41 40 40 40 38 38 39 39 38 38 37 36 36 36 37 38 41 47 51
44 46 28 28 23 23 32 43 28 40 32 44 35 25 22 20 23 24 29 34 36 34 34 37 40 39 40 40 39 38 38 38 39 38 38 39 39 40 38 38 38 37 38 39
40 52 32 31 25 22 23 23 37 40 45 44 36 28 32 26 25 25 31 34 36 34 36 38 40 40 39 38 37 36 36 38 39 40 40 40 40 41 41 40 40 41 42 41
44 45 51 37 41 36 32 32 28 30 32 43 42 36 24 26 23 23 33 35 37 38 40 40 39 37 36 36 36 36 36 36 39 41 44 45 45 48 49 49 50 50 49 49
53 53 60 51 38 37 31 31 30 42 39 38 41 43 25 28 33 34 35 36 37 39 42 41 38 36 37 37 37 39 42 43 47 50 52 53 52 53 54 56 57 58 58 57
51 52 67 64 50 43 47 36 33 39 42 53 46 40 26 28 33 34 36 39 39 40 40 40 39 39 36 37 46 48 51 54 57 59 58 57 57 59 59 58 58 57 56 56
52 50 52 53 46 40 49 46 42 45 52 46 43 38 29 29 33 30 26 39 39 41 41 40 41 41 37 38 50 56 59 61 60 58 57 57 59 59 57 56 55 54 54 54
52 50 44 43 38 35 38 41 40 50 45 51 35 35 28 25 26 26 36 41 39 40 42 42 44 44 40 54 60 62 62 57 51 50 52 53 56 53 53 52 52 54 55 54
50 51 40 40 31 27 33 31 29 34 37 38 37 37 26 25 38 39 38 39 45 43 41 40 41 46 60 68 64 61 59 55 53 52 53 52 54 55 56 55 54 55 54 52
46 44 43 44 33 38 49 38 38 36 33 33 39 32 29 31 41 42 42 40 44 48 43 46 61 73 66 63 62 58 54 49 48 50 48 49 46 46 47 49 48 48 46 44
48 48 48 56 48 68 38 31 32 38 33 32 33 33 33 41 46 44 39 41 48 48 57 67 68 66 64 61 56 48 45 43 42 43 44 45 46 46 45 45 43 42 43 45
34 46 54 69 65 51 44 36 37 38 42 34 38 36 34 50 47 49 43 49 60 66 66 67 65 60 55 50 47 46 45 42 39 38 37 40 40 40 40 41 39 36 38 42
52 43 57 97 82 86 40 40 37 35 60 45 42 42 51 51 64 60 50 59 63 61 64 62 57 54 50 46 44 42 38 32 30 28 30 31 33 35 36 35 35 33 34 34
72 66 72 68 76 65 41 43 36 58 58 46 47 45 50 58 54 54 54 63 60 61 61 58 54 50 44 38 34 30 24 24 25 27 28 28 30 30 30 30 31 32 30 33
71 83 83 71 71 82 36 43 50 46 43 43 49 43 39 40 50 59 64 65 66 66 59 49 48 42 33 25 23 24 25 26 28 29 30 30 30 30 29 29 31 31 30 30
65 52 60 67 74 47 35 40 41 43 49 48 49 40 44 44 54 60 65 68 66 58 47 39 36 31 25 24 24 25 26 27 29 31 32 33 34 32 32 33 33 33 31 30
54 45 58 56 41 43 42 38 49 51 53 56 59 60 57 59 62 68 76 77 68 51 39 34 35 30 28 26 26 27 28 30 33 35 36 37 37 38 38 39 38 36 35 35
61 61 61 62 54 49 45 48 53 51 56 62 57 56 57 63 81 86 84 75 52 39 33 31 30 30 29 30 31 32 33 35 37 39 39 40 42 43 43 42 43 41 40 42
65 66 74 69 50 56 54 52 56 60 61 58 59 73 85 88 92 84 73 47 37 33 32 31 31 32 32 33 34 35 37 38 39 42 43 45 46 47 48 48 46 46 49 53

GFSCGP_925_rhum_003.txt.gz
RH
76 84 73 54 43 38 37 36 35 25 25 26 30 32 28 20 19 27 28 31 31 30 29 31 34 36 32 29 26 27 30 40 38 45 56 61 63 65 66 67 68 67 68 69
72 73 49 36 36 37 35 35 34 26 26 27 29 31 20 17 21 29 34 36 35 36 37 38 38 38 39 38 34 32 31 30 40 45 45 50 57 63 64 66 68 69 73 74
73 56 38 34 36 38 33 32 36 36 32 29 31 37 21 24 27 32 33 33 35 38 38 43 45 43 35 34 35 36 34 32 36 44 49 52 58 63 63 66 68 70 70 72
51 32 37 38 39 34 35 30 30 33 39 47 33 47 28 30 31 35 38 38 37 36 39 44 47 46 41 36 32 32 35 38 38 38 40 50 57 61 58 59 60 61 63 65
43 38 37 40 34 30 38 31 30 30 36 38 34 41 36 35 38 39 40 41 38 37 41 46 50 46 42 37 36 34 34 34 34 39 43 46 50 52 53 53 54 55 56 57
35 30 31 33 29 30 31 30 32 36 42 54 41 39 37 39 40 39 38 41 38 37 42 47 45 42 42 39 39 38 37 38 36 35 35 36 36 36 38 41 42 43 46 52
32 25 20 24 30 25 30 43 58 57 60 59 30 36 36 28 35 34 42 43 42 40 45 49 52 48 45 42 39 39 38 38 38 38 38 39 39 38 38 38 39 39 38 38
55 48 27 23 28 34 35 42 64 64 63 50 29 40 31 25 33 38 40 43 42 42 48 48 48 46 45 42 40 38 39 39 39 39 39 40 41 41 42 43 43 44 44 44
49 49 30 28 24 26 35 45 37 45 43 52 47 34 23 32 38 42 44 45 43 42 47 48 47 44 43 40 39 39 38 39 40 44 44 45 46 49 50 50 49 50 47 46
43 55 35 32 27 24 26 27 41 49 48 48 47 33 39 32 34 36 46 48 46 44 48 49 49 43 40 40 39 40 43 47 49 49 50 52 53 55 54 55 56 56 51 47
48 53 55 38 41 42 40 36 30 38 47 52 53 43 30 27 29 35 43 46 46 47 49 49 46 41 41 44 47 50 53 57 59 59 59 59 60 61 59 58 55 51 48 48
54 61 70 56 39 38 35 36 36 48 45 49 49 45 28 39 36 43 46 44 45 49 51 49 44 44 48 54 57 61 62 63 61 57 58 57 59 60 56 53 51 51 55 54
52 60 77 62 48 45 48 42 38 44 50 53 49 45 30 38 41 40 48 46 48 50 50 50 47 48 56 65 66 64 63 57 54 52 53 52 58 56 55 55 55 54 56 58
50 50 52 60 48 49 54 48 44 48 58 52 53 42 34 34 34 34 34 50 52 53 47 49 51 55 70 70 64 63 61 57 54 54 55 52 58 54 51 46 45 49 50 54
50 49 45 41 38 34 38 42 44 56 53 51 32 37 31 32 34 35 44 50 52 52 49 50 60 80 77 66 62 58 55 51 48 50 48 54 47 43 43 45 47 48 49 50
50 53 39 37 33 33 34 34 36 39 42 49 47 44 32 32 34 43 54 51 53 49 49 65 82 80 70 65 59 52 47 44 42 41 44 43 41 41 44 45 46 48 48 47
50 46 47 43 44 44 49 42 41 39 34 34 43 34 31 33 39 44 45 53 54 51 71 80 78 73 66 60 48 46 45 42 39 37 38 32 32 39 40 41 42 43 43 41
54 52 56 60 52 68 39 36 34 41 40 38 37 37 39 40 50 49 43 58 58 73 76 77 74 64 56 47 46 44 41 36 29 31 25 23 27 32 34 36 38 38 39 38
46 55 60 71 73 59 46 47 42 41 45 42 41 47 55 50 47 63 64 66 75 78 78 69 58 54 49 45 41 38 32 27 19 23 24 26 27 30 32 34 34 34 33 36
54 57 62 92 82 78 54 42 38 39 56 47 46 48 55 50 62 62 71 71 70 68 65 60 55 52 46 40 34 29 22 21 23 26 28 29 29 31 33 32 31 31 32 33
76 73 75 79 82 71 52 42 38 53 55 52 50 50 52 64 62 67 71 68 69 66 61 56 52 48 41 31 24 22 24 25 26 28 30 32 33 34 34 33 33 34 34 33
79 89 86 80 82 84 44 43 50 54 54 59 59 57 48 59 68 70 72 76 72 68 56 48 47 40 30 24 24 26 27 27 29 32 34 36 37 38 38 38 39 39 40 38
62 64 77 76 73 52 47 52 48 51 54 55 54 54 46 60 66 68 76 74 69 58 49 40 36 34 28 27 27 28 29 31 33 36 38 40 40 41 42 43 44 44 42 42
58 54 67 60 51 51 53 58 56 55 58 60 58 57 56 56 62 69 75 78 71 55 43 35 34 31 31 30 30 31 33 35 37 40 41 42 44 46 47 48 48 48 49 48
72 66 71 74 60 55 52 53 53 57 57 60 58 58 60 62 78 85 88 81 61 44 36 32 32 33 33 32 32 34 36 39 41 43 45 46 49 50 51 51 51 52 53 55
77 73 86 87 64 65 64 56 58 63 63 67 66 73 85 84 91 87 78 52 40 36 34 33 33 34 34 35 36 37 38 41 43 46 47 49 51 53 54 54 54 57 61 65

GFSCGP_925_rhum_006.txt.gz
RH
93 93 91 74 44 45 42 40 41 36 30 32 36 33 31 27 28 32 34 37 38 38 36 41 40 40 38 36 32 31 32 39 45 57 62 66 65 66 66 65 66 66 66 66
99 93 74 59 52 42 41 43 44 36 29 26 28 30 31 21 28 35 39 40 40 41 45 46 43 40 40 40 39 37 36 38 42 51 58 64 65 68 64 63 66 68 70 72
83 74 64 50 44 46 46 46 42 40 35 32 32 40 24 27 32 36 36 39 40 44 46 51 52 49 41 39 38 38 42 42 41 51 56 60 65 70 68 67 69 68 71 71
71 51 56 54 46 41 48 37 35 34 39 45 35 53 31 34 36 37 41 42 42 44 49 54 56 51 45 41 37 36 35 36 38 42 45 50 56 58 59 60 62 60 61 62
69 51 54 46 42 39 39 34 32 32 40 40 39 45 41 37 41 43 45 43 42 46 53 56 56 50 46 42 40 38 37 37 37 36 36 37 38 40 39 39 39 39 39 40
47 36 40 40 34 34 36 33 44 47 48 57 45 45 42 44 37 42 44 44 43 48 54 54 50 46 44 41 40 39 39 39 40 41 42 43 44 44 44 44 45 46 46 45
62 32 24 30 33 27 36 46 61 59 62 61 39 43 38 32 38 34 45 48 45 49 54 56 54 52 46 42 40 40 41 45 44 45 47 49 50 51 53 54 54 53 49 46
72 49 31 24 33 37 41 45 64 64 70 55 33 42 32 30 35 40 43 47 47 50 53 53 53 50 46 43 43 44 46 49 48 48 50 53 55 56 58 59 58 57 50 46
50 49 32 29 24 32 37 48 40 50 49 55 49 40 26 45 51 49 52 48 48 50 53 54 51 47 44 47 46 48 51 56 58 59 59 61 62 60 59 56 52 47 44 44
47 53 38 32 28 26 35 34 46 55 54 53 50 41 41 42 53 53 54 51 49 47 53 55 53 47 49 50 56 58 60 60 59 58 57 57 61 59 56 53 52 51 48 47
49 52 53 38 42 45 39 39 35 46 53 55 55 47 36 36 45 49 50 50 50 51 55 55 53 52 54 61 63 62 58 55 53 53 53 52 55 55 55 55 54 53 53 55
54 63 70 53 40 37 38 40 38 48 45 54 52 46 30 37 34 40 47 48 49 52 56 56 58 63 67 68 65 62 60 57 55 55 54 53 55 52 49 43 42 42 48 48
53 68 80 60 52 47 50 42 40 47 52 56 55 49 35 43 37 41 49 48 50 55 60 56 62 74 75 70 67 61 56 54 53 52 48 51 46 42 38 37 35 34 41 47
48 54 59 63 54 55 58 55 47 45 59 49 57 40 34 36 38 42 45 49 54 59 54 58 75 85 74 67 62 57 52 48 46 42 43 45 39 32 27 26 26 29 34 43
44 49 45 42 39 39 45 49 56 57 50 46 39 44 33 35 34 35 38 49 61 59 55 66 89 88 74 66 58 52 48 44 41 39 43 35 24 20 21 23 28 31 36 38
48 51 37 37 35 36 36 35 37 44 48 52 47 43 33 34 35 44 48 59 60 55 61 87 85 79 74 64 53 48 45 42 35 36 29 22 20 21 23 25 28 30 32 34
47 43 41 38 48 44 45 44 44 38 36 34 36 31 35 37 48 55 54 58 57 58 84 82 79 74 65 53 48 47 42 34 22 26 22 21 23 25 25 27 30 32 34 35
53 55 58 56 51 60 38 40 39 40 39 37 39 42 46 53 56 57 58 62 60 79 82 79 72 63 54 48 45 40 31 22 18 22 24 25 27 30 30 32 34 34 34 34
52 58 68 69 70 56 46 44 42 41 52 50 51 48 51 50 55 57 69 65 78 83 79 71 60 55 50 43 37 29 21 20 21 25 27 28 29 32 34 35 36 36 35 37
58 60 60 90 80 69 47 42 40 37 54 53 52 52 55 53 74 66 75 78 82 72 63 60 56 50 44 34 25 21 23 23 25 27 29 30 32 35 37 37 38 39 40 40
69 70 72 81 81 72 53 48 40 54 50 62 61 61 64 66 68 72 79 75 70 65 60 55 52 46 34 25 23 24 25 26 28 30 32 35 36 38 39 40 42 43 45 45
74 87 83 83 81 80 48 47 52 57 58 56 56 55 60 72 79 78 77 76 70 65 56 50 44 36 28 24 26 28 29 30 32 34 36 38 39 41 42 45 47 48 50 50
68 72 80 72 72 55 54 54 51 54 54 52 50 49 51 72 77 75 77 74 71 59 46 40 37 34 28 28 29 31 31 33 36 38 40 41 42 44 48 49 51 53 52 54
59 60 69 62 57 66 56 53 53 54 56 55 54 54 53 56 64 75 78 78 66 53 42 38 33 31 31 31 31 32 34 36 39 41 43 45 48 51 52 53 54 54 57 58
70 66 73 78 67 58 65 58 61 60 58 60 61 59 60 61 68 80 88 85 62 46 42 34 32 34 34 33 33 33 34 37 41 44 47 49 52 54 55 55 55 57 60 65
85 77 82 83 69 66 66 56 58 62 64 68 68 63 76 81 83 88 87 63 47 39 35 33 34 36 34 36 35 34 35 39 44 50 51 53 56 58 57 56 57 62 67 69

GFSCGP_925_rhum_009.txt.gz
RH
93 95 91 82 66 55 50 44 43 42 34 34 41 39 33 31 25 32 39 42 44 46 45 47 45 41 40 42 41 42 43 44 47 56 66 70 67 66 66 69 70 70 70 70
99 91 72 67 52 47 44 46 51 40 35 36 35 39 35 27 28 34 41 44 45 47 52 54 50 43 41 40 40 42 44 47 53 58 66 69 71 71 73 74 75 77 78 79
81 80 72 65 69 60 50 50 50 43 40 34 38 44 38 28 33 38 38 42 46 51 55 59 57 52 45 44 42 39 38 41 45 59 66 70 70 67 58 58 57 57 59 63
84 66 78 79 66 62 74 45 43 44 44 51 38 59 42 34 40 42 45 49 51 56 56 58 58 56 49 45 41 41 41 40 40 39 40 42 47 51 51 48 46 44 46 46
82 77 80 86 64 44 55 37 41 42 42 43 42 52 46 37 44 46 48 49 53 57 57 59 60 53 48 44 43 43 43 44 44 43 44 45 48 50 51 50 49 48 46 44
57 53 63 60 47 40 36 37 45 51 52 62 50 48 46 46 36 44 46 49 54 60 61 60 54 48 47 45 45 44 44 48 48 49 52 54 55 56 56 57 56 53 46 42
59 57 42 35 37 36 39 47 65 64 67 67 45 52 37 31 35 37 47 50 53 59 61 59 59 55 50 48 47 49 49 55 54 53 56 58 60 60 60 58 53 49 46 44
66 82 40 30 38 44 47 47 65 64 72 58 46 49 35 35 38 38 43 48 52 58 61 60 59 54 53 50 52 56 56 58 56 58 61 60 59 57 54 53 52 51 50 48
65 55 34 29 30 35 41 51 44 53 55 64 54 45 33 48 52 52 52 52 54 56 61 60 57 55 54 57 61 59 56 57 56 56 56 58 56 56 56 54 50 46 44 46
48 53 40 32 28 28 37 39 50 60 62 60 54 49 46 42 52 57 58 54 53 54 60 61 60 59 61 64 64 57 54 54 54 52 53 57 56 52 47 42 38 36 37 39
47 47 53 38 42 44 38 39 44 50 58 57 60 50 37 33 51 56 54 51 52 55 61 62 65 62 67 67 63 58 55 53 54 55 52 53 46 40 34 28 24 24 25 30
52 61 63 50 44 40 39 40 40 53 48 57 58 50 36 44 45 53 53 50 52 53 60 64 68 72 73 70 61 57 54 52 52 48 48 43 37 26 17 16 18 19 24 23
57 68 80 63 56 51 50 44 40 50 54 60 57 48 35 45 40 41 50 51 52 57 66 70 80 82 78 71 63 56 51 48 45 42 44 34 21 14 17 17 17 17 21 23
51 62 60 57 59 60 60 55 48 47 62 55 58 43 33 43 42 41 46 48 55 63 60 69 88 87 76 67 58 52 48 44 40 38 31 21 16 16 17 17 18 20 23 26
42 50 47 46 46 52 54 58 57 52 47 48 40 50 34 33 36 33 36 44 58 65 62 79 92 88 75 64 56 50 46 41 32 30 20 19 18 18 20 21 23 24 25 26
46 54 39 38 40 36 35 37 60 57 52 51 50 46 38 34 36 43 49 54 62 62 64 87 88 82 73 62 53 48 43 33 19 19 20 21 21 23 24 24 24 24 25 28
44 45 40 38 47 42 41 46 42 38 39 39 36 30 39 50 56 52 52 58 61 61 81 91 83 75 67 53 49 44 35 21 16 20 22 24 26 27 27 28 28 31 34 36
51 52 54 51 50 53 34 43 40 40 45 37 49 49 49 56 54 52 55 59 62 71 88 83 75 66 53 48 43 35 22 18 20 23 25 28 30 32 33 33 34 36 38 40
51 56 68 64 61 48 49 44 48 47 59 53 52 51 56 53 52 53 65 67 64 84 82 74 63 57 49 44 35 23 20 22 24 27 29 31 32 35 35 36 38 40 42 44
54 56 57 87 76 64 46 42 41 37 74 58 57 62 60 61 73 71 71 80 84 76 67 62 56 51 45 33 24 22 25 24 27 29 31 33 35 36 37 39 41 44 46 49
61 65 68 75 73 66 50 45 42 56 50 61 57 59 56 65 70 68 81 79 74 70 65 57 54 47 34 26 24 26 26 27 30 31 33 34 36 38 40 43 44 47 51 54
65 77 77 81 77 70 51 50 57 60 62 58 56 53 53 56 68 77 80 81 76 67 59 53 47 36 29 26 26 27 27 30 32 34 35 37 38 40 44 48 49 52 55 58
73 66 70 68 68 58 55 56 57 57 59 54 50 50 56 65 73 76 82 82 78 64 50 44 40 35 28 27 29 29 29 32 35 38 39 38 41 44 50 51 53 57 58 59
61 64 69 66 65 61 56 56 53 52 52 52 53 52 54 55 59 71 79 84 74 55 47 41 38 30 29 29 29 32 33 36 38 40 41 42 46 52 52 55 59 58 61 63
71 71 76 75 67 69 61 57 54 55 57 58 60 59 59 62 67 75 85 86 72 51 44 40 33 33 33 32 32 32 34 37 40 43 45 47 51 56 59 61 59 59 61 68
86 78 82 80 69 67 67 61 58 63 62 62 67 66 74 77 80 86 90 78 56 49 38 35 34 35 33 34 33 33 35 39 43 47 51 54 61 63 64 62 62 65 70 70

GFSCGP_925_rhum_012.txt.gz
RH
85 98 92 82 66 60 57 50 56 43 36 36 42 44 36 32 30 29 36 43 50 54 52 52 46 42 42 42 44 46 48 54 52 66 74 74 74 72 77 81 83 84 85 87
99 91 72 72 67 58 47 50 52 50 38 38 42 43 37 37 31 30 40 48 50 54 58 58 51 46 45 44 41 42 44 51 62 67 76 77 79 80 60 56 55 59 60 60
85 77 66 70 64 62 56 60 58 60 47 41 45 47 41 32 34 41 43 46 50 56 60 61 60 54 48 47 44 41 40 40 43 53 59 61 49 47 47 50 51 50 47 43
89 87 74 76 80 67 87 55 48 47 50 59 42 62 48 36 40 45 51 56 59 61 58 60 60 58 53 50 47 45 45 45 45 43 43 46 54 59 60 56 52 47 44 41
91 97 89 80 70 67 73 47 50 47 51 48 46 55 49 38 45 48 54 56 60 63 63 64 63 58 55 50 50 49 49 50 51 51 52 54 58 59 56 52 48 45 42 41
70 65 78 84 69 56 47 42 45 55 54 68 52 50 52 44 42 45 48 54 59 65 65 64 58 54 54 52 51 50 50 57 55 54 56 57 58 56 53 52 50 49 46 43
68 78 59 51 65 44 47 49 64 68 70 72 49 57 49 36 36 39 47 54 61 67 68 66 64 62 57 57 56 55 54 62 60 58 58 58 58 58 58 54 51 46 43 42
86 94 61 40 60 70 55 54 68 68 74 61 52 57 39 36 50 42 44 49 61 68 67 65 66 62 60 63 61 57 55 57 56 56 56 55 53 51 47 43 39 34 34 36
71 78 42 44 35 58 49 56 46 60 59 70 61 47 39 44 53 53 55 54 63 67 68 66 67 62 65 67 64 58 55 56 56 55 55 51 46 41 35 28 21 16 15 18
55 57 43 34 30 30 44 43 53 62 64 68 61 51 50 35 42 54 59 58 61 64 66 68 70 69 72 68 61 56 55 56 54 52 50 44 37 28 20 14 12 14 16 18
47 51 53 38 44 44 40 46 51 54 62 61 63 50 41 38 39 55 59 54 60 64 67 70 72 75 76 67 60 57 54 52 48 49 43 36 25 15 12 12 14 15 16 19
47 60 65 49 45 40 38 42 44 60 56 63 62 54 35 48 54 56 58 55 56 58 66 73 78 82 75 67 59 53 51 47 45 45 35 22 14 12 11 13 16 19 20 18
57 65 81 65 55 54 49 45 43 52 56 64 60 51 39 48 52 53 58 57 55 56 70 78 89 87 80 68 57 51 47 43 40 34 22 15 14 14 15 16 17 17 18 19
53 64 59 65 55 60 63 55 49 49 64 62 60 43 35 44 43 45 48 49 55 64 70 85 92 88 76 63 55 49 45 38 34 23 16 16 17 18 19 20 19 20 21 24
44 57 51 48 53 55 56 57 56 53 48 53 46 51 38 34 35 35 37 43 56 67 70 85 92 90 72 61 53 47 42 31 22 16 18 20 20 20 22 23 22 23 24 25
48 55 42 42 42 38 44 53 60 54 54 44 50 50 40 40 43 53 52 51 56 67 68 88 91 84 74 59 51 46 37 23 16 18 21 22 22 24 27 27 25 24 26 28
46 47 47 50 45 41 38 44 67 58 52 55 61 47 40 56 56 50 52 51 53 63 70 93 88 79 65 53 48 41 28 18 18 18 19 23 27 30 30 28 28 31 34 33
47 48 49 53 49 46 32 44 40 44 45 38 50 50 52 58 55 52 56 60 63 61 87 90 82 69 53 49 42 32 21 20 18 20 23 28 31 32 32 31 34 35 37 40
51 55 67 58 56 45 49 51 52 49 60 52 60 61 58 56 53 53 63 68 70 75 88 79 67 57 50 43 31 23 21 21 21 26 29 30 33 35 36 35 37 38 43 43
55 56 52 85 75 58 45 46 41 44 70 59 60 64 66 62 68 67 60 76 83 82 74 67 59 51 43 32 25 22 23 25 28 31 31 32 34 35 34 36 41 43 44 51
65 71 64 73 70 63 46 46 42 56 55 67 63 62 63 67 63 66 82 81 78 72 66 58 52 45 35 28 24 26 27 29 31 31 32 32 30 33 36 42 44 47 51 57
61 75 78 81 73 68 51 51 54 59 62 60 58 57 58 58 64 76 85 85 77 70 61 54 47 38 30 27 27 29 29 31 32 32 32 33 32 35 40 47 50 52 57 62
64 59 65 68 68 59 57 54 63 59 62 58 56 54 54 59 64 70 80 84 79 65 55 47 43 36 30 30 30 29 31 32 34 33 33 34 35 39 48 53 56 61 63 62
64 66 70 67 65 61 61 60 57 53 56 57 57 55 57 59 64 68 82 87 82 61 51 44 40 32 30 32 31 31 32 34 35 37 37 37 43 52 53 58 59 64 64 67
69 71 75 75 73 66 61 58 58 61 62 64 64 62 64 63 70 77 86 87 74 58 46 43 34 32 32 31 30 30 34 36 38 40 42 46 52 56 60 61 62 63 65 70
85 77 80 76 71 70 70 62 61 65 67 76 70 69 77 75 80 84 91 85 63 52 42 36 33 33 31 31 32 31 34 38 43 47 49 53 61 62 63 66 69 70 70 69

GFSCGP_925_rhum_015.txt.gz
RH
81 97 95 75 71 60 55 58 58 54 38 38 41 42 34 31 33 33 33 44 48 50 53 56 51 45 44 43 45 56 60 64 65 68 72 81 93 85 68 64 61 60 60 60
84 96 76 68 69 57 56 56 55 50 41 39 43 41 34 35 35 31 34 46 48 51 51 55 57 50 47 45 43 43 49 64 73 76 84 85 67 60 54 52 48 45 42 40
85 77 65 70 74 70 62 63 62 60 50 43 45 44 40 33 33 40 41 47 49 50 52 55 56 60 53 52 48 45 43 42 46 64 50 47 49 52 54 51 48 46 42 39
84 86 71 73 76 70 82 56 55 54 62 67 42 56 47 36 36 44 50 52 52 55 56 56 57 59 60 58 52 49 47 47 47 45 47 52 64 66 66 54 48 44 42 40
90 96 78 81 74 64 74 61 59 56 57 50 49 51 43 40 39 46 51 56 58 57 56 59 61 63 60 56 56 54 52 53 52 51 51 52 57 56 50 46 43 41 39 36
90 90 70 67 67 63 46 47 48 50 49 62 52 47 46 39 35 47 50 55 58 59 60 60 63 62 62 61 58 56 55 59 55 51 51 50 50 50 49 46 47 49 47 46
88 95 94 77 65 63 56 66 98 78 65 65 53 55 42 38 35 39 44 50 58 60 62 61 61 64 68 65 62 60 57 60 54 51 51 50 47 43 41 40 40 32 34 38
97 97 80 68 77 83 81 69 68 70 71 59 56 56 36 34 45 44 42 47 60 62 62 61 62 67 72 68 63 60 59 60 55 51 47 42 37 31 25 19 19 30 36 38
83 78 62 47 54 71 77 85 48 62 62 66 59 48 37 39 47 51 52 53 61 63 64 63 66 68 76 72 64 59 58 58 56 48 41 33 26 19 14 11 10 13 18 28
62 64 51 38 37 41 57 49 70 60 65 69 61 53 47 36 38 55 57 55 62 64 64 65 65 76 80 68 62 59 54 54 50 42 33 25 18 12 9 9 10 12 13 14
50 55 56 44 48 48 56 67 57 53 61 61 58 45 40 38 39 44 55 55 59 62 63 66 69 82 78 65 59 56 50 48 44 35 26 18 13 11 10 10 12 14 15 17
45 59 75 56 47 45 43 49 47 58 60 62 57 49 37 48 48 51 56 54 56 59 64 67 78 83 73 65 56 51 46 44 38 28 19 14 12 11 11 14 16 17 18 20
52 66 79 64 52 57 50 44 44 51 53 61 56 48 38 50 55 57 57 54 54 58 69 73 84 78 71 63 53 47 42 40 30 21 15 12 12 13 15 18 20 20 18 19
48 61 64 70 61 61 60 52 49 43 58 57 53 41 36 42 48 56 57 55 55 57 70 79 84 80 70 60 51 45 38 34 24 18 14 13 14 18 22 23 20 20 22 24
48 55 53 49 50 52 56 57 53 49 43 44 44 49 40 40 44 48 47 54 58 64 72 81 85 77 67 59 51 45 36 27 20 16 16 17 20 24 22 21 22 24 25 27
49 57 45 45 51 53 58 59 50 46 52 49 48 49 41 43 51 54 55 52 54 64 70 83 83 75 67 58 50 45 32 22 18 19 20 23 23 23 24 25 26 26 29 30
51 50 54 58 45 42 50 50 62 50 56 43 52 39 48 58 58 57 58 57 60 64 67 84 82 76 64 54 49 39 26 20 19 21 24 25 28 27 27 26 27 31 34 34
58 46 50 56 46 54 42 44 51 52 49 49 44 46 52 60 58 58 60 58 62 64 76 87 80 71 56 50 42 31 22 20 21 22 24 30 31 28 27 28 31 33 41 46
51 51 62 62 57 45 50 52 54 50 55 47 64 68 65 60 55 57 64 72 74 72 84 84 73 57 52 43 32 25 22 21 21 26 29 31 30 31 30 30 34 39 49 48
53 64 71 82 63 47 39 46 44 46 56 61 61 66 66 60 61 61 70 78 85 85 80 74 60 51 42 32 27 23 24 23 26 29 31 31 31 31 32 35 40 42 46 52
66 67 60 72 64 58 47 48 42 54 47 67 66 70 70 62 59 70 79 82 80 74 67 58 51 46 37 29 25 26 25 26 29 31 31 30 30 32 35 39 40 44 50 57
61 70 71 77 70 56 51 49 52 56 65 63 61 58 60 65 73 79 82 82 76 70 64 54 46 37 31 28 26 27 25 28 30 33 33 31 30 33 35 40 44 49 59 63
62 57 66 63 63 63 60 57 65 59 62 60 61 60 61 66 71 83 85 86 78 69 60 53 42 34 31 30 28 26 29 32 34 34 32 32 32 32 38 49 55 60 64 66
67 68 73 61 64 64 67 62 60 57 62 63 61 61 62 67 70 75 86 89 81 65 52 47 42 35 34 31 28 30 34 35 34 35 34 32 35 47 48 52 60 67 68 68
70 68 77 79 74 67 60 60 69 71 72 72 69 65 67 72 73 77 86 90 79 61 51 47 39 32 33 32 32 33 33 35 37 36 35 37 44 51 60 64 65 67 69 74
84 75 75 74 71 70 69 69 69 72 76 75 73 75 80 74 81 84 90 87 71 55 47 39 33 32 33 33 32 34 36 37 38 40 47 50 61 64 64 68 69 74 75 70

GFSCGP_925_rhum_018.txt.gz
RH
68 94 95 84 59 46 42 40 46 40 33 37 36 35 29 24 24 22 22 23 28 31 37 40 42 42 43 46 50 60 67 67 63 64 68 68 63 63 59 56 51 50 50 49
70 95 72 70 59 45 42 46 45 37 35 36 36 38 32 26 22 22 21 24 29 35 34 38 40 40 41 42 44 47 59 72 73 76 70 58 57 56 55 55 54 50 48 47
77 76 68 68 51 52 52 49 44 43 42 41 39 38 29 24 24 26 23 24 29 32 34 35 38 44 46 48 48 49 51 57 56 53 53 54 56 54 52 52 51 51 48 46
61 62 74 73 57 48 60 43 42 52 59 57 39 46 32 23 25 29 27 32 32 34 34 36 40 45 51 55 56 55 54 54 54 53 52 51 49 51 52 49 50 48 48 44
84 84 90 79 57 48 45 48 48 53 59 58 46 48 31 29 25 28 30 34 34 35 36 40 44 50 56 60 60 58 56 55 54 53 49 47 49 50 49 45 43 43 41 41
53 80 78 58 49 47 50 50 47 43 46 60 41 40 30 23 23 28 31 35 36 37 38 42 51 53 59 64 62 58 55 56 56 53 51 50 47 44 41 40 34 33 30 32
67 86 86 53 66 57 48 54 94 88 78 54 38 41 29 23 25 26 32 36 37 39 42 46 48 50 55 60 62 57 54 53 52 50 47 46 43 40 35 31 28 26 24 26
99 98 91 59 62 73 58 52 53 60 56 46 44 42 26 24 28 28 26 32 38 41 41 43 45 51 56 59 57 55 54 53 49 45 41 38 36 33 28 27 25 23 22 23
84 99 89 80 64 57 77 68 40 44 46 42 36 32 27 28 31 33 30 36 42 42 43 44 48 52 56 56 56 55 56 54 47 41 35 31 28 26 25 22 22 24 24 22
49 96 85 89 77 65 66 51 72 49 53 51 39 38 30 26 26 36 35 39 40 41 43 45 47 54 56 56 57 54 52 48 42 36 31 28 24 21 21 21 22 23 22 22
52 52 65 71 83 75 70 84 73 47 43 41 38 32 25 26 28 30 32 34 40 44 44 46 48 57 57 56 54 49 50 45 38 32 28 25 22 20 20 21 21 22 22 23
54 38 55 78 47 47 51 58 56 59 51 42 37 31 25 29 31 34 33 36 39 41 44 46 52 58 56 52 49 45 45 41 36 29 25 24 23 21 20 21 22 22 22 22
42 44 60 60 53 43 54 52 49 40 38 42 43 34 28 34 37 38 37 37 40 43 47 49 56 55 52 49 46 42 42 38 32 26 23 22 22 22 22 23 24 24 25 25
45 44 39 50 41 40 54 49 44 46 50 41 38 30 29 33 36 39 38 36 39 45 49 51 56 54 52 48 43 40 40 36 29 25 24 24 25 25 26 26 27 27 28 28
51 47 42 41 43 38 42 48 45 47 42 44 35 35 28 24 31 35 36 36 37 42 50 55 57 53 52 48 43 39 36 31 25 24 25 27 28 28 29 30 29 29 31 31
48 51 43 43 46 43 44 39 41 44 42 38 33 33 25 26 30 33 35 38 39 41 48 53 58 56 52 47 43 42 32 27 24 24 24 28 28 30 32 31 31 31 32 32
51 50 47 50 41 45 51 43 42 36 33 32 39 30 31 37 35 36 38 38 40 42 46 56 59 58 54 48 45 39 28 25 24 24 26 27 30 31 31 32 31 32 33 34
52 46 44 50 42 83 37 37 32 37 33 30 31 32 32 33 40 43 40 41 44 48 50 59 62 61 53 48 43 31 26 24 24 25 25 29 31 31 30 29 29 31 33 33
66 56 60 52 47 38 34 42 40 45 40 36 36 36 42 45 44 52 52 51 51 51 54 63 65 57 50 44 36 30 25 25 24 25 26 30 32 31 30 29 31 33 34 35
61 84 74 68 61 52 33 40 34 34 38 38 36 43 48 47 46 47 57 59 64 66 68 66 57 50 44 35 30 27 25 23 23 27 31 32 33 32 30 33 34 36 36 37
61 72 75 83 90 37 39 41 39 41 41 47 43 46 48 45 46 57 63 66 63 65 64 56 49 44 38 32 28 27 25 23 28 33 34 33 32 32 33 35 37 38 37 38
62 66 75 76 63 59 43 44 41 47 52 51 50 49 52 57 60 61 64 66 63 59 56 50 46 40 34 30 29 28 23 29 33 36 35 33 33 34 36 38 38 37 37 38
54 48 42 42 43 55 54 52 53 47 51 50 49 48 51 56 58 62 68 66 62 59 54 49 44 38 34 32 28 24 28 34 35 35 33 33 34 35 38 38 39 38 37 38
55 54 49 52 57 58 56 54 49 45 49 48 48 50 49 56 60 63 65 68 63 60 55 49 44 39 35 33 32 31 35 36 37 34 33 34 35 40 39 41 40 40 39 44
51 54 55 64 64 58 55 50 53 55 54 55 53 52 54 55 59 61 65 68 66 60 53 49 46 41 32 32 32 35 33 38 37 34 34 36 37 39 39 38 40 48 52 63
54 51 49 44 46 46 48 52 53 56 58 55 59 63 65 59 64 64 66 71 66 59 52 49 42 32 32 33 34 35 37 42 41 38 36 39 44 41 40 40 42 48 59 64

GFSCGP_925_rhum_021.txt.gz
RH
55 86 87 73 78 51 46 49 50 36 26 30 32 33 26 21 21 21 19 16 19 24 29 32 35 36 39 45 51 54 54 56 56 58 60 58 57 55 52 48 45 44 44 44
69 92 58 47 62 76 52 48 43 30 28 33 33 31 26 23 23 23 20 17 19 28 29 31 32 32 33 37 44 54 58 61 62 56 55 52 51 50 51 50 47 43 41 42
76 61 53 46 73 81 61 53 37 35 32 34 35 38 33 27 24 21 18 16 20 28 29 31 32 37 38 40 42 47 48 48 52 52 52 50 50 48 46 44 45 44 41 37
75 58 78 56 77 77 71 38 37 35 46 49 36 42 25 22 24 23 20 19 23 27 27 29 34 40 44 47 47 46 46 46 46 45 45 44 44 43 43 42 42 41 42 37
84 76 85 70 82 75 50 38 38 39 43 50 52 51 30 22 24 23 21 22 26 28 28 33 37 42 48 51 51 48 47 46 44 42 41 41 41 42 40 38 36 34 32 32
61 56 63 60 69 75 49 43 44 44 48 70 45 42 29 26 22 19 22 26 28 29 31 36 42 47 54 55 52 48 46 45 44 44 43 42 39 38 37 35 31 28 26 28
77 88 84 77 91 80 55 62 92 83 76 51 30 38 27 22 22 21 25 28 30 31 35 41 44 46 51 53 51 46 44 43 42 40 39 39 38 36 33 29 27 25 24 24
100 98 92 75 88 82 73 61 49 64 54 40 34 41 27 21 22 20 23 28 30 33 36 40 41 45 50 52 47 45 44 42 39 37 35 35 34 31 27 25 25 23 23 22
90 92 82 90 84 60 69 54 38 39 34 35 37 30 23 23 28 26 24 30 33 34 37 38 41 45 50 49 48 48 45 42 38 34 31 29 27 26 25 23 23 24 22 19
81 99 94 92 66 69 56 38 56 41 48 44 34 29 29 26 24 28 26 31 34 34 36 37 41 45 47 48 48 47 43 40 36 33 30 27 24 22 21 22 22 21 20 19
84 98 98 89 92 84 71 58 54 39 38 37 37 29 21 23 24 25 27 29 33 35 37 39 40 46 48 49 48 45 42 38 34 32 29 27 24 22 22 21 20 20 19 19
75 81 100 93 62 49 57 54 48 47 49 35 33 32 21 23 27 26 26 29 32 35 36 38 41 48 48 48 44 43 42 37 34 30 27 26 25 24 22 21 20 20 20 20
58 57 99 99 83 67 63 59 54 42 39 40 36 34 23 28 30 28 29 29 33 36 38 38 43 46 46 45 42 41 40 36 32 28 26 25 25 24 22 21 22 21 22 23
46 46 42 54 55 66 67 63 50 46 48 41 35 30 26 28 31 31 30 30 34 37 39 41 46 44 44 44 41 39 39 35 30 27 26 27 26 25 25 24 25 24 24 26
52 48 37 31 35 40 47 52 53 54 45 44 33 31 24 23 26 28 29 31 34 38 42 43 46 44 44 43 40 37 38 32 28 26 26 27 28 26 26 27 27 26 28 29
50 49 40 42 38 36 37 37 41 43 40 36 32 31 23 21 21 27 29 31 34 38 41 42 45 44 45 43 40 37 34 30 27 25 24 26 26 26 28 28 28 28 29 31
56 57 46 48 38 42 50 38 36 36 34 33 39 31 25 28 28 28 30 31 33 34 39 44 47 47 47 44 41 39 33 28 26 25 24 24 25 26 26 27 27 28 30 30
54 52 52 61 43 74 36 30 30 33 30 30 32 28 25 27 27 29 30 32 34 36 38 44 48 51 49 45 43 34 29 27 26 25 23 24 25 25 26 26 26 28 30 30
47 58 63 59 50 36 32 33 33 36 36 28 28 26 28 36 42 48 42 37 39 39 44 50 53 53 48 45 36 32 28 26 25 24 23 24 25 26 26 26 28 31 31 32
77 60 72 59 58 59 34 34 29 29 41 25 27 29 35 44 45 47 49 49 53 53 56 59 55 50 46 40 34 32 28 24 23 23 25 26 26 27 27 28 31 32 33 33
91 92 97 90 74 56 35 34 32 39 44 34 30 31 40 43 42 48 50 54 55 59 58 54 50 45 38 34 33 30 26 24 25 27 27 28 27 28 29 32 33 34 33 33
77 91 95 94 94 84 36 39 38 47 43 38 37 38 45 54 53 53 56 59 57 56 54 48 44 39 36 33 33 28 24 26 27 29 29 29 29 30 32 32 33 33 33 32
71 47 54 54 57 48 44 46 44 40 44 43 44 44 47 52 56 58 60 60 57 54 50 47 43 38 35 32 28 25 26 28 28 28 28 28 30 32 32 35 34 34 32 31
46 43 40 41 46 48 46 48 45 42 44 42 43 44 44 52 54 58 59 59 56 53 50 47 42 39 37 34 29 27 29 31 31 28 28 31 32 35 35 34 34 32 32 39
45 45 46 48 54 52 50 46 45 44 44 45 43 42 46 49 52 54 57 58 57 55 52 49 46 43 37 30 28 29 32 32 32 30 32 33 34 36 36 34 32 35 38 48
47 41 44 40 39 38 43 46 46 49 51 50 54 56 52 51 56 53 58 59 59 56 52 51 49 40 32 28 27 30 34 35 36 36 35 35 38 37 34 33 35 37 43 47

GFSCGP_925_rhum_024.txt.gz
RH
54 73 86 74 69 65 57 59 62 48 38 45 45 39 35 30 30 30 28 25 25 33 36 33 36 41 48 52 55 59 61 62 61 63 66 58 53 49 46 44 43 42 41 41
65 84 58 52 57 63 67 75 71 50 38 42 41 37 34 30 29 26 26 26 26 38 39 36 35 37 45 55 59 60 62 58 58 56 56 54 52 51 48 43 42 39 36 36
74 62 56 50 56 62 60 76 72 79 41 35 39 46 40 30 26 26 26 26 28 37 40 40 41 40 42 49 50 55 58 54 53 51 51 49 50 48 46 45 42 41 36 29
60 49 52 68 61 56 71 58 63 77 56 67 43 66 42 34 31 29 30 27 34 35 37 40 47 48 47 47 47 48 48 50 50 50 51 49 44 44 43 42 40 37 34 30
85 69 64 67 73 61 63 56 76 72 73 70 60 63 50 34 32 31 29 27 35 35 37 45 53 50 52 50 49 47 45 44 43 42 42 43 43 40 38 36 33 29 30 28
68 60 74 56 52 61 61 68 85 86 68 86 56 65 51 36 31 30 28 30 35 35 41 50 51 54 56 51 47 46 45 44 43 42 41 40 39 38 34 30 28 26 25 25
81 83 68 75 77 60 69 90 99 100 99 89 50 55 46 26 24 25 28 36 36 38 46 55 62 64 58 53 48 45 44 42 41 40 39 38 35 32 29 26 25 24 24 23
89 72 89 78 91 78 87 95 92 97 91 59 38 58 41 27 25 25 30 35 38 41 49 54 60 59 57 52 45 43 41 39 37 36 35 34 30 27 25 24 24 23 22 20
100 98 78 62 76 74 87 99 76 52 38 51 49 34 26 32 32 29 35 38 41 43 51 52 58 57 55 49 46 43 40 37 33 31 28 26 25 24 23 23 23 22 20 20
83 99 86 81 83 85 85 70 71 66 59 63 54 46 42 37 39 32 38 42 42 44 48 50 55 56 51 49 48 43 40 35 33 30 27 24 23 22 22 22 20 20 19 19
81 93 95 96 94 95 97 85 64 52 50 61 58 45 32 31 34 35 36 39 42 44 46 50 54 52 50 49 48 42 38 34 32 30 27 25 24 23 22 21 21 19 19 20
80 99 100 98 81 79 68 60 57 55 65 56 46 45 28 32 30 34 33 38 40 43 45 50 54 53 51 50 46 41 37 34 31 28 27 26 25 24 22 21 21 21 21 22
85 96 100 100 86 92 83 56 53 52 50 57 50 48 34 38 35 31 37 41 41 46 49 51 56 56 52 48 44 42 37 34 29 27 26 26 26 25 24 23 23 24 24 24
78 93 99 98 87 72 76 65 59 60 64 50 43 41 40 42 41 38 38 42 43 45 47 50 58 58 50 46 42 40 37 32 28 27 27 28 27 26 26 25 26 26 26 27
63 86 79 71 66 62 68 65 65 67 57 54 41 36 36 40 42 41 38 42 45 47 49 52 59 57 50 45 41 39 35 31 28 28 28 28 27 26 25 27 27 27 27 29
50 73 53 47 62 65 65 58 60 57 54 52 49 41 26 26 34 39 41 42 45 46 49 54 56 57 52 44 39 38 33 28 27 26 26 26 25 25 27 27 27 27 28 29
60 66 58 58 42 42 54 46 54 52 50 50 56 39 29 33 36 37 39 41 46 48 51 53 58 56 49 43 38 36 32 28 26 25 25 24 25 25 25 26 26 26 28 30
62 64 73 79 50 75 40 32 33 38 38 40 38 35 30 36 43 48 40 40 44 46 50 57 62 55 46 42 40 34 29 26 27 26 24 24 24 25 26 26 26 28 30 32
50 62 74 71 61 47 39 35 35 43 44 34 36 36 49 52 56 60 56 51 53 56 60 62 56 49 45 42 32 30 27 27 25 25 23 24 25 26 26 27 28 30 33 34
70 68 80 83 77 70 43 35 31 32 55 40 36 38 52 53 66 71 60 63 67 66 63 60 52 47 43 34 32 28 27 25 24 24 25 26 26 27 27 28 30 33 35 35
92 90 91 88 83 76 38 34 34 52 53 46 39 46 53 64 62 61 63 68 67 64 58 52 49 46 37 35 32 29 25 24 24 25 27 28 28 28 29 32 32 34 34 34
91 95 98 94 96 92 39 39 45 53 44 40 53 55 67 66 64 66 68 68 64 61 55 49 41 37 34 33 30 27 25 26 26 28 28 28 28 30 32 33 35 35 35 34
82 69 78 84 80 50 50 52 45 44 49 54 62 61 60 64 67 67 69 67 62 56 51 43 40 36 34 33 29 26 27 27 28 28 27 28 30 33 35 36 35 36 34 33
57 46 53 52 52 52 50 49 47 47 55 57 56 58 59 67 67 68 66 64 60 54 51 43 39 37 35 30 25 27 28 28 29 29 28 31 33 37 36 37 36 34 33 37
52 52 54 55 56 55 51 51 53 54 54 54 53 57 62 65 70 70 69 68 63 56 50 43 42 39 36 31 28 28 30 29 30 31 34 35 36 38 39 38 35 36 39 43
53 50 59 55 47 48 57 56 53 56 60 61 61 66 66 66 69 70 74 67 62 58 52 50 46 38 31 28 28 30 29 29 32 38 39 40 42 44 42 38 40 42 46 50

GFSCGP_925_rhum_027.txt.gz
RH
63 88 89 82 86 71 68 76 80 66 51 56 55 55 49 42 37 43 37 34 36 43 44 39 42 47 52 57 58 59 64 66 65 66 63 59 50 49 48 46 42 38 35 34
77 88 66 60 63 79 75 84 84 65 57 57 56 58 45 39 38 34 37 36 44 49 49 50 45 52 61 64 63 65 65 66 66 64 60 54 48 45 42 38 35 33 30 27
82 65 54 60 67 72 74 83 79 70 62 61 64 64 54 42 35 35 34 31 39 46 49 53 55 55 56 61 61 60 62 64 61 59 54 50 46 43 42 41 39 34 29 26
72 58 59 70 72 62 76 54 54 60 72 86 58 92 60 45 40 36 36 38 41 46 47 51 58 58 52 53 56 56 54 54 54 53 49 48 48 47 45 41 36 32 29 27
89 72 68 69 65 63 69 52 60 61 76 84 76 83 65 44 46 37 32 45 45 46 47 56 60 60 54 51 50 52 52 51 50 50 48 44 44 43 39 34 32 30 27 25
89 66 75 61 52 53 55 65 69 69 77 97 81 90 73 53 40 37 35 45 45 47 54 61 64 60 55 48 46 45 45 46 46 45 43 40 38 34 31 28 26 25 24 23
91 85 74 76 87 73 70 84 90 97 96 85 73 82 72 39 33 33 37 45 45 51 61 68 70 67 59 50 47 45 43 43 42 41 40 38 33 30 28 26 25 24 23 20
97 94 85 71 72 74 83 81 87 87 73 69 73 99 56 39 32 32 38 42 48 59 64 70 70 68 60 52 47 43 41 40 38 37 34 31 29 27 26 25 24 22 20 20
94 91 70 64 60 58 75 92 62 94 97 80 71 52 32 35 40 44 45 47 56 63 66 71 70 67 59 51 45 41 38 36 35 33 31 28 26 25 25 23 22 20 18 18
85 97 67 79 84 69 71 59 91 99 96 98 68 51 48 44 42 47 48 51 58 61 64 68 69 67 57 49 43 39 35 32 29 27 26 25 24 24 24 23 20 18 18 18
95 100 90 97 96 86 91 91 79 78 72 96 79 58 39 43 38 47 48 49 58 60 61 66 67 62 57 49 42 38 35 32 29 26 25 24 24 24 24 22 20 19 18 19
92 99 99 93 79 69 71 75 78 86 100 86 60 51 35 39 39 42 48 48 54 55 60 65 65 62 60 52 44 37 34 32 29 27 28 26 25 24 24 23 22 20 20 21
93 99 100 99 96 91 94 82 74 87 82 69 65 52 42 41 41 41 48 49 53 56 62 65 64 62 60 53 43 38 35 30 28 28 28 27 26 26 25 24 22 21 21 22
82 98 100 100 91 86 97 94 86 77 81 71 60 56 46 43 45 50 48 48 53 56 59 64 63 63 59 53 45 39 33 29 27 27 27 28 27 26 24 23 22 22 22 24
89 99 96 92 81 72 75 74 76 83 77 65 51 50 50 48 46 46 50 52 54 57 60 64 64 64 58 54 46 38 32 28 27 28 29 29 27 24 23 22 21 22 24 27
73 98 89 92 65 66 68 65 71 70 66 58 57 50 35 43 47 47 53 52 54 56 58 64 60 62 58 52 45 36 31 29 29 29 30 26 25 23 22 22 23 24 26 28
65 79 88 84 68 65 72 69 67 65 57 56 62 48 38 45 44 45 54 50 52 56 61 63 60 58 54 48 41 34 29 27 27 27 26 25 23 22 23 24 24 26 28 31
74 72 79 84 58 73 46 38 52 64 55 55 49 40 37 51 64 63 53 52 54 55 58 61 61 56 51 44 38 31 29 27 27 26 25 24 23 22 24 25 26 29 32 33
58 70 81 76 76 58 42 38 40 47 48 44 51 46 54 60 58 66 71 60 57 59 61 67 60 55 46 40 34 31 28 28 27 25 24 23 22 24 25 27 29 32 33 34
68 69 84 89 83 74 45 38 34 36 56 47 42 54 55 55 60 74 75 74 74 68 62 57 53 44 38 34 31 28 28 27 26 24 24 23 25 26 27 30 32 33 35 35
88 90 96 87 91 76 46 37 39 46 47 54 48 54 56 56 60 74 76 74 65 60 56 51 44 39 35 31 30 30 27 26 25 24 24 25 27 28 31 33 34 35 36 35
86 92 95 88 95 91 40 37 39 48 48 62 72 71 78 78 77 78 73 70 65 63 54 46 42 40 34 31 31 27 26 26 25 24 26 27 28 32 34 36 36 36 36 35
93 79 86 83 74 55 52 49 47 51 56 64 73 72 72 76 78 74 74 68 64 55 45 41 40 37 33 30 32 26 27 26 26 26 27 29 32 35 37 37 38 37 36 38
70 63 70 72 58 54 54 50 50 54 64 69 68 68 68 76 73 73 68 63 60 51 47 41 38 36 32 30 27 28 28 25 26 28 30 34 36 41 38 39 38 39 42 45
68 60 61 59 60 54 53 52 61 64 62 65 65 65 68 69 71 68 68 65 62 56 46 40 40 36 31 28 29 28 27 26 28 32 35 37 40 42 42 41 43 47 49 52
56 59 62 66 51 49 54 61 58 58 64 66 70 76 74 69 72 71 71 64 62 59 48 45 41 39 32 30 30 28 27 28 31 34 37 41 46 45 45 47 49 50 55 57

GFSCGP_925_rhum_030.txt.gz
RH
67 90 92 81 88 78 75 79 88 73 60 69 66 61 51 49 53 51 46 46 41 42 44 41 43 45 51 53 52 47 47 68 67 66 63 60 55 52 53 52 48 45 37 32
82 89 67 66 69 83 91 92 86 66 56 58 71 73 58 48 44 46 41 44 40 50 52 57 58 61 62 64 65 72 74 69 66 64 60 57 52 48 44 37 33 30 27 26
88 64 58 68 73 79 80 93 84 82 65 56 53 65 62 51 48 42 38 37 43 47 54 62 72 72 69 69 70 73 74 68 64 61 57 50 45 39 35 33 30 28 27 25
81 65 64 68 75 72 87 68 70 68 65 90 63 83 64 55 51 47 40 44 47 48 53 61 74 73 70 68 67 68 68 65 62 60 54 48 45 43 40 35 31 29 27 25
87 82 77 74 69 63 74 55 59 60 61 71 69 85 70 58 55 51 44 40 42 49 53 62 70 67 65 63 63 65 63 61 58 55 50 42 42 43 39 34 30 27 25 23
92 68 78 66 55 55 60 66 69 70 75 97 66 76 65 64 54 47 42 42 48 51 55 67 69 66 64 60 58 58 57 56 52 47 44 41 41 39 36 32 28 25 25 21
95 97 82 74 77 66 61 84 96 98 96 82 53 76 58 60 54 41 36 44 51 53 66 74 71 67 62 58 56 56 54 56 50 46 43 40 37 32 28 27 26 25 22 20
99 90 95 81 81 82 80 78 92 93 99 62 74 86 66 50 38 36 38 42 52 62 66 69 68 64 61 57 51 50 50 49 45 41 38 33 30 29 28 27 25 23 20 19
96 90 73 68 65 62 84 95 63 88 82 98 82 75 56 52 46 48 52 55 61 66 70 72 69 64 61 55 49 45 42 40 38 35 31 29 28 28 27 25 23 19 18 18
79 95 78 69 74 69 62 62 89 95 98 98 88 72 41 48 56 59 58 62 67 72 76 74 67 66 61 51 45 42 39 36 33 30 29 27 27 27 26 23 20 18 18 17
70 98 88 90 99 90 97 89 75 65 78 95 98 78 40 38 47 57 58 63 72 77 77 73 70 65 58 48 42 38 35 31 28 27 26 26 26 25 24 24 21 19 18 18
87 100 98 89 75 71 72 74 69 76 70 70 98 74 45 41 48 47 53 62 67 70 75 74 70 67 59 50 42 36 32 28 26 26 26 26 25 25 25 24 22 20 18 19
93 100 98 99 99 84 81 70 62 53 80 72 89 71 45 50 52 51 58 65 66 73 76 75 71 65 59 52 44 37 32 28 26 27 27 26 26 27 26 23 20 19 20 22
88 100 99 96 91 89 99 84 70 61 88 69 95 85 56 50 53 60 61 64 66 72 74 74 70 66 58 51 44 38 32 29 29 29 29 28 29 27 24 21 20 21 22 24
92 100 100 97 94 95 78 90 83 78 68 78 61 80 62 48 51 58 58 62 67 73 75 71 70 68 59 53 45 37 31 29 29 29 30 30 28 24 22 21 21 22 24 27
88 100 100 99 84 94 93 82 78 82 85 92 69 59 42 51 56 64 62 62 65 69 71 69 67 67 61 52 44 35 31 29 28 30 31 28 25 23 22 22 22 23 26 30
86 98 100 100 77 90 99 94 88 96 84 80 74 47 47 46 49 62 63 57 60 65 69 68 67 63 58 49 40 35 30 29 30 32 28 26 24 22 22 22 23 27 30 32
68 75 87 98 67 74 48 41 58 60 58 53 54 41 44 50 67 66 60 57 60 61 67 65 65 61 54 45 38 32 31 30 30 28 26 25 22 21 22 24 28 30 32 34
75 76 93 97 86 59 44 41 51 64 59 57 56 54 62 66 58 66 82 57 62 63 66 64 62 57 49 41 35 31 29 28 28 26 25 24 21 23 24 28 32 33 35 35
73 74 87 95 83 73 47 39 36 38 58 48 46 60 63 60 60 66 84 77 79 75 68 63 55 49 42 37 32 30 30 29 27 25 25 22 23 25 28 32 34 36 36 36
85 85 92 93 94 76 53 40 40 48 47 51 50 58 58 52 63 85 75 71 65 61 54 49 46 42 38 34 32 31 30 28 26 25 23 24 25 28 33 35 36 37 36 36
90 93 94 92 94 78 46 37 36 44 61 69 70 73 87 87 81 77 72 68 62 56 49 45 42 39 34 32 31 30 28 26 25 24 24 26 29 33 37 37 37 36 38 41
88 81 87 82 76 59 53 49 50 55 63 70 82 80 80 81 79 76 74 64 56 50 47 44 41 37 33 33 34 28 28 26 25 25 26 30 34 39 39 39 39 40 43 48
77 69 80 73 60 56 52 51 54 57 70 77 77 76 74 80 75 73 67 58 54 49 46 43 39 38 35 32 30 29 28 26 24 26 31 34 37 46 41 41 42 47 52 56
77 71 71 73 57 55 53 52 65 74 73 74 74 72 73 72 72 68 66 60 54 48 44 40 38 36 34 29 29 29 26 25 26 30 35 38 43 44 44 44 47 53 56 60
60 68 69 72 51 51 52 64 65 69 74 73 74 77 74 67 69 66 66 61 53 52 45 42 35 32 32 30 30 29 26 25 28 34 38 44 46 46 47 50 51 49 61 62

GFSCGP_925_rhum_033.txt.gz
RH
69 88 89 73 83 83 85 86 87 77 62 71 77 76 66 58 55 53 60 54 49 48 39 38 38 41 43 42 44 46 45 62 67 73 68 66 60 59 64 59 52 53 48 33
85 94 76 70 74 85 93 93 91 75 63 63 65 65 58 46 47 54 49 50 50 45 48 49 50 58 58 55 56 54 54 64 69 69 65 61 55 50 46 39 34 30 27 26
88 64 59 67 78 82 84 92 80 81 68 65 71 61 43 38 45 50 48 43 42 45 50 57 72 72 70 70 72 68 64 68 67 65 60 53 47 39 32 29 27 26 27 26
86 66 70 74 77 79 88 70 71 76 85 94 62 79 53 47 49 51 48 49 46 48 47 53 80 84 78 75 80 75 70 68 64 60 56 53 44 40 32 29 28 27 27 25
86 90 88 87 75 66 74 60 72 79 87 86 72 88 63 51 48 49 58 50 51 50 51 63 78 80 77 76 79 75 69 63 60 58 57 53 42 36 32 30 28 27 25 23
72 66 80 76 63 59 63 73 78 94 80 95 67 81 57 45 50 56 53 52 51 46 54 63 79 78 78 76 74 71 66 61 59 58 54 48 38 36 32 30 27 25 24 22
99 96 86 79 84 67 63 99 97 97 97 85 58 72 58 44 50 52 51 51 49 53 64 81 80 79 75 73 71 68 64 62 57 52 44 39 37 35 32 29 27 26 23 20
96 89 88 80 84 86 79 86 92 95 89 77 58 79 56 41 34 29 28 46 51 59 68 74 76 74 71 69 67 65 62 57 51 45 42 39 36 31 28 28 26 24 21 18
98 91 78 80 72 69 95 96 68 88 92 96 79 64 46 40 43 53 51 48 60 66 71 74 72 69 67 64 62 60 57 52 47 43 38 33 30 28 28 26 24 21 19 18
77 97 76 74 75 70 74 67 94 98 93 93 81 76 48 40 30 21 52 61 66 69 74 74 68 66 63 59 57 55 51 46 39 34 31 29 29 28 26 24 21 19 18 18
73 89 89 96 98 85 92 98 80 68 86 96 99 66 55 39 31 33 64 69 74 78 79 73 68 64 59 54 50 47 43 37 32 30 28 28 27 26 25 25 22 19 18 19
74 99 97 82 81 68 69 81 78 77 88 74 95 69 46 56 50 58 72 74 80 80 74 73 69 62 56 52 46 40 35 31 29 28 27 27 26 26 27 25 21 20 19 21
87 99 97 95 96 97 100 96 95 69 62 72 69 50 53 39 65 57 76 82 85 84 81 75 69 62 56 51 44 37 32 28 27 27 27 26 27 28 26 23 21 20 21 24
81 100 99 91 85 98 99 95 97 85 76 68 66 50 37 38 63 70 81 82 86 83 79 75 69 63 56 50 43 35 30 27 27 28 28 28 29 27 24 22 20 21 23 26
88 99 98 95 93 95 100 92 84 84 64 69 58 68 59 43 56 67 76 80 84 85 83 75 72 66 57 51 43 35 30 29 29 29 30 30 28 25 23 21 21 22 25 29
92 98 100 97 84 95 100 97 77 72 60 63 75 67 47 50 55 67 72 74 80 82 80 75 70 65 56 49 42 37 32 30 30 31 31 29 26 23 21 21 21 25 29 30
96 99 100 98 99 97 100 95 78 76 65 59 90 67 52 58 57 64 69 68 74 77 78 75 72 61 54 48 40 37 32 31 31 32 30 27 24 22 21 22 25 29 31 32
90 97 99 100 89 97 71 78 78 79 78 77 78 72 68 58 60 64 61 64 70 74 74 72 69 63 53 44 38 34 31 31 33 31 28 25 22 21 22 25 30 32 33 34
70 83 97 100 98 66 52 87 93 95 91 81 80 77 58 69 61 65 74 63 67 69 70 70 66 59 48 42 37 33 32 33 32 29 27 24 21 22 25 30 33 34 34 34
84 88 93 94 98 79 49 43 44 54 80 63 68 65 67 60 62 60 78 76 79 75 72 69 59 51 45 40 35 34 33 31 30 28 25 22 23 25 30 33 36 36 35 35
94 90 94 94 84 78 55 50 42 51 49 51 51 62 66 56 75 84 79 78 75 71 65 58 52 47 42 37 34 34 32 31 28 26 24 24 26 30 34 36 36 36 36 37
79 91 94 88 97 74 54 41 40 45 63 68 68 65 90 89 80 75 69 67 64 62 55 49 45 42 38 35 33 33 31 29 27 25 25 26 31 34 37 36 37 37 39 43
90 80 88 86 79 60 55 53 54 58 64 72 79 84 79 81 79 72 67 61 57 52 48 45 42 40 36 34 33 32 30 27 26 25 27 31 35 39 39 39 38 39 44 52
79 77 82 74 62 62 52 52 62 67 77 84 83 78 73 80 72 65 59 56 54 50 46 42 40 39 37 34 33 31 28 27 25 26 31 35 38 44 42 41 44 47 52 60
78 76 76 78 65 61 55 54 72 79 79 78 77 74 74 70 67 61 60 56 52 48 44 41 40 39 36 32 31 29 28 24 25 31 35 40 43 43 44 46 49 52 54 65
72 77 77 74 59 55 53 66 72 74 77 74 74 76 73 67 66 62 60 53 50 49 44 41 39 36 34 32 31 28 26 24 28 33 38 44 45 46 48 51 51 48 61 66

GFSCGP_925_rhum_036.txt.gz
RH
73 88 92 76 74 70 89 94 94 80 66 79 77 72 62 56 66 70 60 57 59 55 45 39 33 34 38 40 44 47 56 73 76 83 80 74 74 71 68 66 62 62 50 40
84 95 76 69 72 86 91 90 78 65 68 73 69 67 55 51 52 54 53 54 56 54 50 46 42 47 47 42 45 50 60 75 77 77 74 71 69 60 58 55 47 43 30 27
90 67 66 75 82 85 88 93 80 73 68 65 75 64 39 34 36 41 39 40 46 50 51 52 59 59 60 58 55 55 60 73 74 73 69 65 63 51 40 32 28 27 27 27
91 70 73 79 83 84 85 70 76 79 87 90 71 75 44 41 40 35 36 47 52 53 52 52 61 78 73 67 68 63 64 71 72 69 66 62 51 39 34 28 27 26 26 26
81 90 94 90 77 72 75 66 77 79 91 95 82 92 59 48 44 42 61 60 52 53 50 54 64 66 73 75 79 74 69 70 69 64 62 54 46 38 29 28 26 26 25 23
74 67 76 81 70 68 64 74 80 87 96 97 70 84 56 41 36 40 49 53 53 56 56 53 62 79 83 86 86 76 71 68 64 61 56 53 45 32 29 27 26 25 24 21
84 92 78 75 85 74 76 97 97 97 95 84 62 76 58 40 37 43 45 55 60 60 61 81 90 92 92 89 83 74 69 64 60 58 55 51 40 32 30 28 27 25 22 19
92 87 90 78 79 76 86 80 92 92 93 82 61 82 53 44 36 32 30 38 50 56 72 80 84 87 87 87 81 74 68 63 60 56 54 44 36 32 30 29 27 24 21 18
96 91 72 82 78 70 94 96 69 91 74 94 72 75 51 40 35 38 54 42 42 62 80 84 87 84 84 84 78 73 67 63 57 51 43 37 34 30 29 27 25 22 19 18
75 95 74 79 80 78 81 67 97 98 95 93 84 79 62 45 40 31 26 33 56 73 83 89 87 81 78 77 73 68 62 55 48 44 39 33 30 28 27 24 22 20 19 18
79 88 89 92 98 83 97 98 100 79 87 92 89 54 50 52 57 62 56 29 63 76 83 85 80 73 69 67 64 58 53 47 41 36 31 29 28 26 24 24 21 20 18 19
75 96 96 82 58 67 62 90 80 97 93 87 88 57 44 66 63 64 67 70 82 85 85 79 73 66 62 59 54 50 44 39 34 31 29 27 26 26 26 23 20 19 18 21
74 98 98 84 92 78 100 96 96 84 92 81 82 55 32 31 35 74 88 94 93 86 82 75 68 64 58 52 47 42 38 33 30 28 28 27 27 28 25 22 20 19 20 23
70 92 94 85 70 78 100 98 98 97 96 79 74 52 34 33 48 64 86 94 94 90 81 74 67 61 54 47 42 38 35 30 28 28 28 28 29 27 23 21 20 21 23 26
82 99 98 94 85 87 96 100 98 98 86 90 59 55 44 47 46 56 84 95 92 88 81 73 66 60 52 46 40 36 32 29 28 28 29 30 28 25 22 20 21 23 27 29
87 100 100 96 83 96 99 98 100 95 92 79 62 59 40 48 60 62 86 94 93 86 77 71 63 58 52 44 40 37 33 30 29 31 32 29 26 23 21 21 22 27 29 30
96 100 100 92 91 100 100 99 98 95 75 70 79 56 42 55 56 65 81 86 86 81 76 70 62 55 49 43 38 37 32 31 32 33 31 28 25 22 22 23 27 30 31 31
90 98 100 98 99 96 76 79 86 92 70 64 57 57 64 64 66 64 69 77 81 80 76 71 62 56 49 42 38 34 32 33 34 32 29 27 24 22 23 27 31 32 32 32
76 88 100 100 98 86 60 89 90 97 90 76 72 59 58 67 71 69 67 69 76 77 74 70 61 54 46 41 37 35 35 34 34 30 28 25 22 23 27 31 33 33 34 32
86 83 98 94 99 97 58 52 74 72 87 79 75 75 76 68 70 66 76 78 81 75 74 70 59 50 45 42 37 36 37 35 32 30 26 23 23 26 32 34 34 35 34 35
99 99 98 99 97 81 56 55 66 76 51 59 78 76 82 79 80 87 84 86 80 76 70 61 54 49 45 40 36 38 36 34 31 28 25 24 27 32 35 36 36 35 35 36
84 91 87 89 96 80 54 49 54 51 58 62 63 65 73 84 81 77 77 76 73 70 63 55 50 45 42 38 36 37 35 32 28 25 26 28 33 36 37 37 37 37 38 40
86 79 87 84 82 61 59 54 56 63 66 68 74 83 80 81 78 73 72 68 61 57 53 49 46 44 40 37 35 35 33 29 27 25 28 33 38 39 39 39 39 41 42 47
78 78 86 80 64 63 58 55 70 72 80 87 84 80 76 76 69 66 62 59 56 53 50 46 44 42 41 36 34 32 30 27 25 28 34 38 43 41 42 42 43 45 46 53
78 82 80 80 72 68 62 61 79 83 80 79 76 73 70 65 65 62 60 56 51 48 46 43 42 42 40 35 32 30 28 25 27 33 37 42 42 43 44 45 46 48 48 67
82 78 81 76 60 59 56 74 78 81 82 79 76 76 70 62 61 56 55 50 49 49 46 44 42 40 37 33 31 29 27 24 28 36 41 46 45 46 45 45 45 45 54 66

GFSCGP_925_rhum_039.txt.gz
RH
73 82 89 78 76 70 82 90 87 66 61 68 67 66 56 49 49 53 48 44 45 50 43 43 40 37 34 32 38 44 52 72 83 91 93 89 88 86 84 84 77 68 67 53
88 91 72 69 72 77 79 84 78 65 58 66 68 68 53 48 45 40 39 40 43 40 46 44 43 38 37 34 42 50 61 79 85 86 83 81 82 75 74 65 60 55 50 32
88 67 67 73 79 83 87 90 78 75 64 60 66 59 36 31 35 36 38 37 36 39 39 40 45 46 39 46 46 54 64 82 84 82 80 78 73 67 56 46 44 34 30 27
91 73 74 84 84 82 85 68 71 79 84 82 64 70 40 33 30 27 28 33 37 37 36 39 44 48 56 47 51 55 66 80 80 79 76 76 68 55 46 38 33 27 26 27
82 86 94 85 76 76 75 64 72 77 86 93 75 89 47 45 43 38 34 35 34 36 36 41 46 45 51 58 62 64 70 77 77 74 73 69 65 52 38 30 27 26 24 24
73 68 73 76 70 68 66 78 74 85 94 95 65 82 53 39 33 31 28 28 43 43 41 42 43 49 67 68 75 75 73 75 73 70 68 66 61 45 31 28 26 24 22 20
86 85 77 70 80 76 73 100 92 92 96 79 60 78 55 38 36 34 33 34 37 43 53 56 65 73 85 94 90 81 74 72 68 65 61 59 50 37 30 28 26 23 21 18
88 86 83 76 78 64 80 79 86 93 87 74 65 75 50 40 36 33 32 32 30 47 54 59 64 74 82 94 89 79 75 70 64 60 55 49 40 35 32 28 26 24 21 19
96 88 67 82 78 68 84 96 67 88 70 87 58 53 38 31 34 39 35 32 42 39 49 65 75 79 86 92 85 78 73 67 62 58 53 46 42 36 29 27 25 22 20 19
77 93 70 78 81 79 82 69 94 96 95 91 68 66 51 44 35 39 55 54 49 39 54 71 79 84 89 89 84 76 70 64 60 57 52 45 32 30 28 25 23 21 20 18
75 81 80 85 94 84 89 95 99 95 96 88 69 48 38 34 42 64 63 68 69 45 60 76 84 85 87 82 74 67 63 58 53 47 39 33 30 27 25 24 22 21 18 18
77 92 98 82 68 66 64 72 79 96 93 92 81 62 31 54 67 63 66 81 86 78 83 87 80 76 75 69 63 57 51 48 43 38 32 28 26 25 24 23 21 19 19 21
78 97 95 80 80 78 94 79 70 94 94 95 93 58 31 32 39 52 64 85 89 87 83 76 73 71 65 60 52 46 43 40 36 31 28 26 25 26 24 22 20 20 21 23
65 96 87 85 61 62 98 97 99 98 96 76 88 60 42 38 37 51 53 88 89 84 78 75 69 63 56 50 43 41 39 35 31 29 27 27 28 26 23 21 21 22 23 26
85 100 90 78 76 82 96 97 96 98 88 94 59 67 54 43 57 52 52 86 85 87 78 71 64 55 48 44 40 39 37 33 30 29 30 29 27 24 22 22 22 24 26 28
88 98 98 96 82 82 99 95 100 97 88 94 80 76 54 44 57 62 67 84 82 85 76 67 59 50 45 41 39 38 36 34 30 32 31 29 26 24 22 22 24 28 29 30
89 97 100 95 78 84 94 97 99 96 88 80 94 69 55 54 50 56 70 76 83 82 72 64 56 48 43 40 38 37 37 33 33 33 31 28 25 23 23 25 28 30 32 31
86 92 100 96 93 93 65 83 87 96 84 78 69 59 54 60 64 71 75 80 85 76 69 60 53 47 42 40 39 38 36 35 35 33 30 27 24 23 25 28 30 32 32 31
85 87 100 100 98 78 59 64 88 95 82 80 70 63 57 64 72 71 72 80 79 73 65 57 52 46 42 41 39 38 39 37 35 33 29 26 23 24 28 31 34 34 33 32
93 84 90 99 99 97 65 62 71 78 86 74 69 68 73 75 81 78 85 82 80 72 64 59 51 45 42 42 39 40 41 38 36 32 27 24 22 26 31 34 34 35 34 34
99 91 95 96 99 86 61 63 72 75 73 63 74 73 78 85 84 86 86 86 79 72 64 55 49 44 44 41 39 41 39 39 32 27 24 24 27 31 34 35 36 35 35 35
86 96 94 89 96 92 56 53 57 51 62 67 68 77 84 88 85 82 81 80 73 68 60 53 49 46 43 40 38 39 39 33 28 25 25 30 33 35 36 36 37 38 38 36
83 78 85 78 77 60 63 60 54 66 70 69 76 74 81 78 83 78 75 70 64 59 55 50 46 46 43 40 37 38 36 29 27 26 31 34 37 38 39 40 40 41 41 45
78 79 86 81 64 75 64 58 70 80 82 85 84 79 74 76 71 68 63 61 58 54 51 48 45 43 42 38 36 34 30 28 26 30 37 40 39 41 42 42 42 46 48 56
80 84 81 82 72 69 66 63 77 82 78 75 71 70 70 68 68 63 61 58 53 51 48 45 43 43 43 37 34 30 28 26 30 34 39 43 42 43 43 43 45 49 54 67
86 81 82 76 61 61 60 73 77 80 80 73 69 69 65 62 62 56 55 52 50 48 46 44 43 42 40 34 31 30 27 26 28 38 44 44 44 44 45 45 43 43 46 63

GFSCGP_925_rhum_042.txt.gz
RH
58 68 71 52 50 47 53 54 58 46 42 45 41 37 33 29 29 29 28 28 27 26 26 29 31 33 35 34 34 35 40 50 63 68 71 77 78 83 88 89 88 82 74 71
74 79 53 49 50 57 56 58 54 45 41 45 42 40 32 29 29 28 26 22 20 19 19 21 27 29 32 35 36 38 46 56 66 69 70 70 80 92 90 85 78 71 66 64
66 56 52 58 62 66 60 60 54 53 45 44 48 43 29 22 21 22 22 22 21 20 19 18 17 24 31 35 36 41 48 62 69 70 73 78 85 82 73 66 66 58 54 44
63 50 59 63 63 57 63 48 56 59 61 65 49 52 31 25 24 22 20 20 20 21 22 21 19 18 27 34 40 44 54 65 71 76 73 74 74 73 64 58 57 48 40 34
71 70 73 71 63 55 61 51 54 57 66 70 59 83 32 23 28 23 20 19 18 19 19 21 23 22 23 33 43 52 60 67 71 71 70 72 70 67 60 56 44 35 30 29
55 53 58 54 53 55 55 61 61 60 78 85 45 62 33 17 15 18 18 18 18 17 20 22 22 25 27 33 55 61 64 67 68 70 70 71 68 62 53 45 35 31 30 29
68 68 58 58 66 62 67 84 77 80 89 64 35 44 39 20 24 24 22 18 18 19 21 25 28 32 34 38 61 67 64 65 68 69 69 68 64 64 54 38 34 32 31 30
74 73 67 65 65 67 85 66 64 69 54 33 42 53 27 21 25 24 22 19 24 25 24 22 29 37 40 47 62 66 63 63 65 66 64 62 55 45 37 34 31 30 30 30
74 79 58 62 60 55 64 85 56 73 57 65 38 28 21 19 20 20 21 30 31 30 28 28 25 37 41 52 63 64 63 63 63 62 57 49 43 40 36 30 30 29 29 29
64 89 57 62 67 63 60 50 80 88 81 65 41 36 33 26 25 24 24 32 31 35 38 30 25 38 48 56 64 65 63 61 59 54 50 46 42 37 31 29 29 29 27 28
63 69 72 75 82 68 80 89 77 75 75 68 67 42 23 24 22 22 37 35 37 47 47 35 30 43 56 64 69 66 61 59 55 51 46 40 36 33 32 30 29 28 28 28
58 77 84 74 48 45 44 58 62 92 84 87 81 62 27 28 27 40 36 32 37 53 59 52 48 56 65 69 67 62 58 55 51 45 40 36 32 29 29 28 28 27 27 27
62 92 86 69 72 60 76 65 59 84 86 92 87 58 29 30 38 34 33 32 36 57 62 64 63 64 63 64 61 56 52 47 43 37 34 31 29 29 28 28 28 27 28 29
59 78 85 73 47 52 93 86 92 99 96 71 74 58 38 30 33 30 30 34 47 60 64 65 63 62 60 59 52 47 42 38 34 32 30 30 30 29 28 28 28 29 29 31
68 99 79 76 65 61 72 83 94 99 94 95 59 52 41 37 39 36 33 39 58 72 71 68 64 61 55 47 42 39 36 34 33 32 33 33 32 31 30 30 30 31 32 34
75 88 81 95 60 64 91 80 94 96 96 97 92 80 46 42 39 39 45 53 71 75 73 65 61 54 46 42 39 38 36 35 35 37 36 35 33 32 33 32 32 34 36 36
80 90 95 91 63 67 82 84 96 94 88 80 97 64 47 48 53 50 53 56 57 74 69 63 56 49 43 42 40 37 36 36 36 36 35 33 32 32 32 33 34 36 37 36
79 87 98 97 77 77 60 67 80 93 86 75 65 57 52 49 47 55 74 68 69 73 62 56 50 47 43 41 42 39 37 35 36 35 33 32 31 32 32 34 37 38 37 35
69 72 99 96 86 56 56 56 68 93 81 66 72 61 55 51 58 93 84 70 66 61 54 51 49 44 38 36 35 34 35 36 35 34 33 31 30 31 32 35 37 37 36 36
76 78 97 90 91 75 55 55 65 69 96 60 68 64 60 63 64 76 86 74 65 54 51 47 43 40 37 35 35 35 36 35 35 33 30 29 30 32 36 38 38 39 38 38
100 100 97 90 95 66 46 50 65 75 88 66 72 70 69 67 75 76 74 70 61 54 50 44 41 38 36 35 35 35 35 35 33 31 29 31 35 34 36 39 39 39 40 40
85 93 94 96 100 87 50 49 56 50 60 65 71 71 76 72 75 79 76 71 61 55 48 44 42 39 38 37 37 37 36 35 30 29 29 31 35 38 39 40 40 41 41 38
67 59 58 59 58 45 51 54 51 56 58 60 68 72 84 83 75 74 74 67 59 53 51 48 42 39 37 38 37 37 36 30 28 29 36 40 40 40 41 39 42 40 41 38
62 59 62 67 49 55 52 54 59 68 68 69 73 71 70 72 72 73 66 63 54 50 46 43 40 38 38 39 37 36 33 29 30 38 39 41 41 42 43 45 44 42 40 41
58 67 62 62 52 48 51 60 62 68 70 63 61 62 62 64 64 64 62 56 51 48 45 42 39 37 38 38 37 34 31 33 36 40 44 45 44 42 43 45 43 44 50 60
62 59 59 51 50 52 54 65 66 66 68 62 61 63 59 58 59 54 54 50 48 46 44 41 39 38 37 36 36 35 36 37 37 40 42 42 43 43 44 42 40 42 40 51

GFSCGP_925_rhum_045.txt.gz
RH
49 56 57 43 37 35 43 42 40 33 29 34 34 32 27 22 22 23 22 22 21 20 20 21 22 24 24 23 24 27 26 30 37 45 54 57 59 68 78 82 81 82 73 64
67 76 43 37 39 43 45 47 42 34 30 37 35 33 27 25 23 22 21 21 20 18 18 17 19 23 25 26 29 29 28 31 40 48 54 56 65 86 91 89 79 72 65 57
63 49 44 46 50 53 49 48 44 42 35 34 37 37 25 20 21 21 20 19 18 18 17 14 14 17 24 26 27 30 29 33 43 49 56 60 81 90 92 84 72 68 70 66
54 42 48 51 54 48 54 37 42 46 51 54 40 56 31 22 19 19 18 17 17 17 16 16 15 14 16 24 28 30 32 37 47 56 61 69 80 79 78 75 69 63 56 50
63 59 56 58 50 44 52 45 48 49 57 66 53 63 34 18 16 15 15 15 15 15 15 15 16 18 17 17 27 34 36 40 53 59 64 73 70 74 74 72 66 57 51 39
48 43 49 50 46 46 49 53 55 55 63 87 47 46 32 16 12 13 11 14 15 14 14 15 16 18 20 21 26 38 41 48 56 65 65 67 67 66 68 66 63 52 46 37
59 56 49 45 56 51 59 68 78 85 89 65 26 31 31 16 16 16 16 15 14 14 16 16 18 20 21 24 26 41 47 52 60 63 62 64 68 65 65 64 63 50 42 34
72 78 54 56 59 63 65 66 64 68 49 37 27 41 25 14 17 18 17 17 16 16 18 22 22 22 23 29 30 42 51 53 58 61 62 66 63 63 66 58 48 41 39 36
61 68 49 51 52 51 68 89 53 70 53 60 35 21 16 15 16 16 17 18 20 21 23 28 28 24 24 30 33 45 53 53 57 61 64 63 63 60 52 42 36 33 32 32
53 83 52 53 52 52 51 43 79 87 81 60 32 29 28 22 20 19 20 20 21 23 28 31 28 26 22 31 36 50 52 54 58 62 60 57 48 42 38 36 34 34 35 31
52 61 70 63 75 66 67 73 66 52 61 59 57 37 20 24 22 22 21 19 26 27 31 38 30 25 26 35 44 51 53 56 58 57 50 45 42 36 34 32 31 31 31 30
52 68 81 70 45 41 43 56 59 85 65 70 71 58 26 25 24 24 24 26 26 24 36 44 38 34 38 45 54 54 55 56 53 48 46 41 35 33 33 33 31 30 29 27
53 78 82 79 63 47 58 52 49 66 79 92 90 58 24 23 27 25 29 28 24 24 36 48 47 48 49 59 58 55 54 52 48 44 39 34 34 35 35 34 33 28 27 27
50 65 84 71 59 53 98 71 66 98 96 69 70 56 40 35 36 34 27 26 28 27 48 52 52 52 54 60 55 53 51 47 42 38 33 32 31 30 29 28 28 28 28 29
59 92 69 68 58 56 62 68 68 96 96 97 68 70 56 53 48 40 35 32 30 43 59 60 59 56 58 56 50 46 44 40 36 34 33 32 30 30 30 29 29 29 30 31
70 86 74 92 62 57 68 54 55 73 95 93 95 93 62 48 38 47 42 36 52 57 74 68 61 60 51 46 43 40 36 35 35 35 34 33 32 31 32 31 31 33 34 34
84 97 98 78 55 51 76 69 75 92 90 93 90 58 45 48 61 79 73 74 65 67 72 64 60 50 44 40 37 37 37 39 40 40 36 35 34 33 32 32 34 35 35 35
78 90 90 77 56 75 42 48 60 74 80 69 72 62 56 54 55 76 85 79 70 68 64 58 51 48 42 40 40 40 41 42 43 41 39 34 33 32 32 34 37 37 36 34
73 95 83 78 65 49 40 49 57 80 86 67 70 59 54 52 84 88 87 67 65 58 53 50 46 45 49 48 50 47 47 41 38 36 35 32 32 31 33 35 35 35 34 34
71 78 96 74 84 73 49 49 56 65 97 58 77 74 65 57 94 96 83 58 56 52 52 54 57 68 82 76 71 68 60 55 54 40 30 30 30 32 36 37 37 37 37 37
93 98 95 84 85 55 36 44 62 65 81 61 76 75 67 68 76 85 75 58 50 54 60 60 57 68 62 60 47 39 36 33 31 29 30 33 34 34 38 38 37 37 38 38
82 90 92 98 98 81 41 46 60 52 61 57 86 74 72 69 73 74 64 57 51 48 43 39 37 35 34 34 35 34 33 32 33 35 35 34 36 37 38 38 38 38 38 36
61 59 82 63 55 36 42 47 44 48 53 54 62 87 78 80 91 82 68 72 75 62 60 49 40 42 43 43 42 41 38 35 32 31 35 38 38 37 37 38 39 37 37 34
48 43 55 53 41 43 41 41 49 56 57 58 64 61 90 77 73 67 61 57 55 60 64 57 50 42 39 38 37 37 35 32 32 36 38 38 38 37 41 40 40 37 35 35
50 55 54 51 44 42 49 53 55 59 59 56 58 60 64 74 77 73 80 57 49 44 41 38 37 37 38 38 37 35 33 32 35 37 39 42 41 38 39 41 38 37 41 47
50 50 56 48 48 48 51 56 58 58 63 56 58 60 58 60 65 58 55 50 46 44 40 38 38 38 38 37 36 34 35 37 39 39 38 39 40 40 39 37 33 37 33 30

GFSCGP_925_rhum_048.txt.gz
RH
63 72 75 58 54 46 43 45 50 36 30 35 38 37 32 28 27 27 26 27 26 27 24 21 19 20 19 19 21 27 27 28 29 35 57 75 75 73 70 67 73 76 80 80
62 76 48 38 38 44 43 51 52 40 31 36 40 40 33 29 27 25 24 24 23 23 24 22 20 22 22 23 23 22 26 31 32 34 44 62 67 74 73 77 77 83 82 75
66 52 44 48 47 53 52 55 50 47 40 39 43 46 37 27 27 26 25 23 22 23 22 21 21 20 21 24 25 26 26 28 35 37 47 61 72 81 87 86 85 83 72 66
54 44 44 53 55 49 58 42 43 47 54 68 49 81 41 30 27 24 25 26 26 23 22 22 21 20 18 22 24 26 28 29 31 39 54 61 79 92 90 81 75 68 65 64
66 53 58 58 51 45 51 46 48 51 62 70 58 77 55 26 26 19 20 23 23 22 22 22 23 20 16 17 25 25 27 31 32 42 56 69 79 85 88 80 74 71 72 62
52 42 49 50 44 43 49 52 56 58 68 90 66 65 56 28 22 19 17 18 18 18 17 18 18 18 20 19 17 22 30 33 34 50 61 74 77 82 84 76 72 65 60 46
60 60 48 46 54 50 55 59 91 98 99 91 35 57 48 26 21 21 19 16 17 15 16 20 24 28 24 20 22 21 28 37 40 57 70 73 76 74 79 74 70 57 50 36
79 82 61 50 56 67 69 71 94 85 86 68 45 55 35 22 18 19 18 18 19 20 21 21 30 37 33 29 23 25 31 44 52 66 71 71 73 73 76 76 70 56 47 40
73 74 49 51 50 52 68 86 56 76 61 84 52 28 21 17 18 18 19 21 24 24 23 27 34 35 31 31 28 26 39 49 60 68 65 69 70 70 74 73 61 53 46 38
56 85 53 56 52 52 58 49 84 94 94 85 53 40 36 26 27 24 23 22 23 23 26 32 41 40 32 28 30 30 46 52 61 63 68 67 68 68 67 56 55 49 38 33
48 60 69 64 76 74 72 78 68 67 80 90 86 52 29 32 32 34 32 29 27 27 30 39 47 44 37 30 35 36 53 56 60 68 64 61 57 55 48 45 42 39 33 31
50 70 94 79 54 53 55 62 66 89 82 85 97 71 32 33 29 30 34 30 30 29 30 48 48 51 45 39 43 50 56 62 61 51 49 45 43 39 37 36 35 34 33 31
57 84 80 71 63 49 62 58 58 64 80 85 90 67 28 30 35 35 35 36 32 30 31 54 52 54 60 65 62 61 63 54 48 46 42 38 38 36 35 35 35 33 31 28
51 70 90 95 74 71 91 70 64 80 98 74 75 66 51 45 51 54 53 47 40 38 42 62 61 59 72 75 65 59 51 48 44 40 38 37 36 34 34 32 31 28 28 28
61 90 77 76 66 60 67 73 76 88 84 95 67 69 63 70 65 60 57 64 64 43 69 66 65 64 71 70 59 52 46 41 38 37 37 36 34 33 33 32 32 31 29 28
64 92 82 92 65 62 77 67 66 66 70 95 94 95 74 58 47 56 67 76 80 66 74 68 63 66 56 49 49 45 41 38 36 37 38 34 32 33 33 31 30 30 31 29
84 90 97 86 63 60 76 65 63 83 84 90 97 78 63 67 57 80 84 82 78 70 75 78 69 52 46 44 42 43 39 41 42 40 38 37 35 35 35 32 32 32 32 32
74 84 88 95 72 89 48 54 62 72 77 76 80 67 61 61 77 88 90 84 73 70 73 69 52 46 42 40 39 41 42 45 46 44 40 38 37 38 36 35 34 34 34 33
69 92 100 85 66 58 52 55 57 70 84 76 79 80 70 74 86 90 81 60 63 59 54 50 46 43 41 43 47 50 50 53 49 52 46 39 42 40 37 35 35 34 32 32
73 87 100 95 91 81 49 54 53 70 98 68 84 83 76 76 92 98 80 58 55 49 48 53 56 54 60 56 53 56 54 54 56 50 46 49 53 43 39 34 34 35 36 34
98 100 99 95 93 70 41 61 70 92 79 64 82 84 76 90 91 85 73 80 83 87 80 76 80 88 92 87 84 89 92 91 90 85 81 71 44 35 36 38 37 35 34 36
82 92 92 92 96 92 43 52 66 62 62 67 84 78 77 80 78 65 57 79 83 86 88 95 99 99 100 100 96 95 86 78 61 43 35 35 43 50 39 34 34 36 36 34
76 69 74 78 72 46 46 52 49 55 60 58 62 85 81 93 87 73 66 70 64 60 48 50 54 51 48 42 37 38 39 35 36 36 39 45 39 37 36 36 38 37 35 33
51 51 66 68 52 52 55 54 60 63 65 61 63 78 92 90 88 77 86 85 84 74 77 71 64 62 62 46 43 44 39 38 37 38 37 36 35 36 36 35 37 36 36 37
63 55 61 63 55 52 58 61 60 64 60 59 59 66 82 81 70 68 78 62 66 68 68 48 46 43 41 40 40 38 36 35 36 37 37 39 39 38 38 37 35 34 41 35
60 66 70 65 55 56 65 62 58 62 63 59 62 70 78 78 84 72 70 51 45 46 41 41 40 39 39 38 36 35 34 34 37 40 39 38 38 37 37 35 33 35 35 33

GFSCGP_925_rhum_051.txt.gz
RH
78 88 94 82 72 61 60 53 54 48 38 38 48 50 41 36 35 32 31 37 32 32 31 26 23 21 19 19 19 21 28 42 57 72 82 86 80 73 85 74 60 66 65 68
78 87 65 58 61 64 62 58 58 48 37 41 47 46 38 35 34 31 30 32 30 27 29 28 22 21 23 21 20 22 27 28 47 59 66 81 83 79 84 82 67 68 69 73
82 57 50 57 60 56 56 58 58 55 48 45 53 52 45 36 34 30 28 26 26 26 28 28 27 21 20 23 23 23 25 31 31 39 70 76 87 85 91 90 74 74 74 79
61 50 50 61 63 54 64 51 50 54 62 76 53 83 63 39 29 28 35 33 29 27 28 27 25 23 18 18 19 21 24 27 32 33 41 67 82 94 91 89 81 81 83 84
72 60 56 60 59 50 60 51 57 59 68 76 70 77 60 48 31 26 20 27 34 32 28 26 29 23 19 18 17 18 22 24 30 35 38 50 82 88 87 89 84 82 75 73
58 47 53 56 47 49 51 55 58 64 76 97 76 71 58 39 29 20 23 22 25 24 23 24 22 23 24 23 22 19 21 28 28 35 45 59 75 85 93 86 79 69 68 64
63 63 50 48 60 52 56 70 93 90 95 92 60 76 64 40 31 27 26 22 20 20 20 21 36 39 31 28 26 25 24 22 31 35 55 68 72 79 88 83 79 76 65 61
88 92 67 55 62 72 72 71 92 94 98 82 56 78 48 29 29 25 22 18 21 20 23 21 38 39 35 31 29 28 27 25 26 51 67 72 75 86 89 85 79 76 62 55
87 80 56 55 51 60 74 87 65 82 74 92 69 46 30 25 28 24 25 23 26 27 27 30 38 40 36 32 33 33 30 28 37 73 76 80 82 83 86 87 79 71 57 46
61 88 59 58 54 54 62 59 86 94 88 92 71 54 41 34 38 35 36 35 32 31 32 37 47 44 37 32 38 36 32 31 64 80 77 80 81 82 83 82 69 61 47 42
51 72 89 66 76 76 74 84 71 76 88 92 96 65 37 34 34 34 36 37 35 33 33 36 52 47 42 34 38 42 39 50 80 79 77 77 79 80 78 72 62 50 41 39
54 75 94 84 62 58 66 73 65 91 76 94 94 83 40 35 36 42 39 46 44 46 35 42 56 51 49 49 46 49 65 79 74 72 73 76 74 69 67 59 48 42 40 39
60 80 80 82 68 64 78 67 68 70 87 93 94 74 35 40 40 38 54 59 55 50 45 60 59 57 69 76 74 76 68 61 61 65 62 56 51 53 48 46 41 40 37 37
51 75 83 89 78 77 84 71 72 78 98 79 83 63 48 44 44 55 63 67 64 66 69 67 65 63 85 79 71 59 54 52 51 50 48 45 44 41 41 40 39 38 33 33
65 91 81 80 76 74 76 79 76 84 71 90 61 62 54 53 66 66 64 67 60 63 71 79 69 72 88 69 63 57 51 49 50 49 48 44 44 40 38 39 39 37 35 29
71 90 80 93 72 75 83 72 73 73 70 67 66 74 63 62 63 60 81 81 79 76 79 75 72 78 66 57 48 51 59 54 48 44 43 42 38 40 39 37 34 31 32 36
82 82 96 94 66 69 85 73 73 72 75 67 91 76 70 74 73 90 91 86 79 76 80 77 60 55 46 46 48 51 54 51 48 44 39 38 40 44 46 47 46 32 34 35
85 75 93 98 82 88 54 51 59 70 72 77 76 74 73 74 85 84 66 70 68 68 68 53 49 49 47 48 49 51 54 48 44 42 48 59 65 68 63 44 40 41 45 50
67 80 95 89 89 65 55 61 60 74 79 73 78 69 77 78 86 91 62 54 55 52 48 48 48 48 50 52 53 58 64 56 56 54 57 72 65 51 45 42 40 35 34 36
76 78 97 96 94 88 58 54 59 72 94 73 75 83 82 87 93 98 87 60 58 54 52 54 53 56 58 56 64 72 72 86 87 87 77 58 46 38 39 49 63 60 44 35
96 97 99 83 96 76 53 58 71 85 74 67 78 89 82 94 91 86 85 84 75 73 76 78 80 78 82 78 76 85 87 98 94 84 71 80 88 90 86 72 51 38 34 34
85 93 95 88 97 92 46 71 70 61 59 66 82 82 87 79 65 80 83 88 88 86 96 98 97 99 99 98 96 100 100 98 96 91 95 92 78 59 46 43 37 35 34 32
80 76 86 80 74 50 47 52 62 61 66 67 71 89 83 80 69 64 67 74 87 93 97 100 100 100 100 100 99 100 100 97 95 68 52 49 51 42 36 34 35 35 34 34
64 56 72 74 59 58 53 64 63 64 66 62 65 89 88 85 74 72 71 64 64 62 62 65 63 60 50 49 51 55 47 42 40 56 74 43 38 38 36 36 36 36 36 33
73 61 65 68 61 61 62 63 62 66 60 61 60 79 85 85 82 79 81 73 69 68 67 67 69 64 55 49 50 47 44 45 49 42 39 39 36 36 36 35 33 34 36 32
73 73 76 75 57 61 64 64 60 63 62 61 68 89 80 72 83 79 85 74 70 54 49 48 46 44 43 42 41 41 40 35 35 40 38 37 38 38 35 36 42 42 41 44

GFSCGP_925_rhum_054.txt.gz
RH
85 87 92 85 72 59 62 62 63 52 42 43 47 48 47 42 40 37 36 38 36 34 32 31 28 25 23 22 20 21 23 56 72 80 88 95 92 80 80 80 70 65 62 61
86 89 72 64 68 69 70 75 75 54 43 43 50 54 44 38 36 34 30 29 31 32 31 33 27 25 25 23 22 21 21 24 61 74 70 83 88 83 78 79 76 67 63 62
87 73 60 60 62 74 67 65 61 59 52 47 56 42 39 38 35 33 30 30 29 29 28 29 31 26 22 22 22 23 22 24 35 68 78 72 88 89 92 89 80 73 67 66
65 52 54 61 66 58 68 51 53 57 62 74 57 72 60 44 44 33 34 39 33 30 30 28 28 27 22 21 20 19 22 27 32 55 80 77 74 90 86 71 83 79 77 71
80 61 64 67 64 53 62 53 56 59 71 74 69 77 56 44 36 26 20 24 28 35 33 33 33 26 21 20 19 18 18 19 28 37 57 81 79 80 75 81 87 88 85 82
59 51 52 54 53 52 53 60 68 75 80 93 71 73 57 42 32 21 22 26 25 28 31 33 30 25 24 23 22 21 22 26 26 35 42 54 83 80 85 94 96 93 88 86
66 64 51 50 64 55 60 72 93 90 97 80 65 82 65 45 38 33 32 31 24 26 26 31 39 41 33 30 28 25 23 20 21 31 48 65 65 70 72 82 93 92 86 84
90 94 65 54 61 73 67 71 89 79 98 88 63 78 48 37 32 27 26 31 32 32 30 28 38 41 34 30 27 26 27 29 24 24 36 54 71 79 84 82 89 90 82 72
82 79 58 57 55 59 73 84 65 87 78 94 73 54 32 35 37 35 38 40 42 38 36 33 38 42 40 34 29 29 28 28 27 28 41 66 78 81 84 87 89 86 81 70
66 91 62 60 53 56 62 63 86 92 75 84 70 66 48 34 36 36 45 47 46 47 44 39 43 46 39 35 28 29 34 36 30 36 59 76 80 83 85 90 90 82 74 68
56 76 97 67 75 79 80 84 81 78 87 91 96 58 43 36 36 44 47 45 53 58 53 48 46 41 42 38 32 28 36 44 53 72 78 86 94 95 92 92 86 78 69 64
58 81 94 88 65 60 67 76 71 90 73 95 88 74 43 44 42 45 41 54 55 60 58 58 50 54 55 52 52 49 53 60 80 83 85 92 95 96 93 89 82 69 62 53
59 77 92 85 69 68 78 76 71 73 86 94 92 71 41 44 37 39 48 58 64 64 63 66 66 65 66 79 78 71 66 76 84 86 86 90 91 88 82 71 61 58 51 45
59 73 79 86 74 80 87 80 79 81 97 87 86 65 46 44 44 47 55 60 62 65 64 63 66 71 86 79 72 65 64 68 75 80 80 78 76 72 65 53 48 45 43 42
63 87 86 82 76 74 73 76 80 87 72 87 64 68 53 44 45 55 64 76 76 75 72 70 77 82 88 70 59 54 57 60 63 61 59 54 53 50 45 44 42 42 43 45
69 84 76 89 74 81 89 80 79 76 71 70 67 68 45 43 66 71 86 82 80 72 73 77 76 80 66 58 67 70 68 65 64 60 56 52 51 53 54 52 54 47 42 40
74 86 92 92 71 72 90 80 77 73 72 64 78 59 51 70 73 88 78 73 71 66 78 65 52 49 53 57 64 70 73 78 71 60 62 61 55 57 56 58 51 57 67 72
87 76 92 97 83 94 56 59 62 68 62 63 62 68 68 71 86 71 68 62 61 61 55 56 50 52 56 66 78 85 80 80 80 82 79 72 72 73 66 64 72 70 63 54
68 76 91 87 99 71 56 63 67 77 72 70 73 70 68 76 91 89 82 53 53 49 56 52 52 54 57 61 65 73 79 85 88 89 90 88 78 84 83 86 79 78 68 60
79 81 94 94 97 85 59 55 64 68 93 71 74 74 87 84 94 94 86 64 59 53 55 56 59 62 68 71 70 71 79 84 90 96 99 94 94 95 95 79 59 83 97 98
100 100 100 91 87 82 55 51 70 83 70 65 73 82 80 92 87 86 84 76 72 80 81 77 79 79 78 76 77 95 98 100 100 100 97 98 98 89 95 99 100 94 61 41
92 96 94 90 96 93 48 75 72 61 65 66 79 82 87 78 80 84 84 84 83 89 96 98 99 100 100 100 99 100 100 100 99 99 100 100 100 100 100 90 67 50 39 35
88 76 88 79 75 52 48 54 56 64 70 66 73 86 81 74 80 81 86 88 88 92 98 100 100 99 100 100 97 100 100 100 99 99 100 99 95 70 48 38 37 35 35 35
72 61 74 73 62 63 57 56 63 64 66 63 66 86 79 69 69 68 75 82 88 91 93 99 98 96 93 99 100 98 99 98 89 65 56 52 45 39 38 37 36 36 31 30
78 63 66 78 62 59 64 61 62 65 61 61 62 89 86 66 72 71 73 70 66 67 62 60 56 55 56 73 80 82 57 51 55 61 47 43 43 39 37 36 35 32 36 33
80 77 84 82 59 58 60 63 62 65 62 62 78 94 78 75 75 67 76 69 66 67 68 62 52 52 53 54 50 47 46 60 56 42 42 39 38 38 40 40 43 53 55 57

GFSCGP_925_rhum_057.txt.gz
RH
93 94 93 90 78 61 67 68 66 56 44 45 50 54 45 41 44 48 47 43 41 38 32 29 27 27 27 27 28 26 25 37 78 96 100 100 100 99 96 87 78 72 72 69
90 96 84 78 85 84 71 75 74 60 49 46 53 57 45 39 38 37 34 33 34 34 34 33 28 26 25 25 26 26 28 27 55 85 91 95 93 95 84 86 81 80 74 72
82 74 64 70 78 80 76 77 67 62 53 51 61 51 43 34 35 35 34 32 32 32 30 29 33 27 24 25 24 23 24 28 31 67 86 92 94 93 100 100 90 80 78 72
70 57 64 68 69 68 78 53 56 58 62 75 59 69 57 41 42 39 36 35 39 37 32 33 32 31 26 23 21 21 21 22 29 40 86 90 86 88 92 73 69 77 80 75
89 65 71 71 66 55 64 54 59 63 75 69 70 77 54 41 34 28 28 27 31 31 38 37 36 30 25 24 22 21 21 24 29 36 72 85 87 81 74 78 75 82 85 83
65 52 51 54 58 52 57 60 70 80 76 89 68 66 48 40 31 29 32 33 33 33 32 34 35 31 29 26 23 21 20 20 21 26 50 77 85 85 83 88 93 87 89 88
69 67 53 53 66 57 60 69 89 80 94 77 71 76 61 45 42 37 37 37 41 41 39 36 35 46 38 33 29 26 25 23 22 28 33 50 79 88 79 76 85 93 96 94
94 93 65 54 62 72 65 66 83 66 94 85 69 84 53 38 34 31 38 41 48 52 46 40 36 43 40 36 34 32 29 26 25 25 28 38 54 68 80 79 80 86 90 93
83 83 60 56 58 58 76 83 64 88 80 94 74 57 33 34 39 45 47 47 52 58 58 49 43 40 41 37 32 31 31 27 22 22 26 33 46 66 73 80 85 90 87 91
66 94 64 60 56 60 61 64 83 93 77 75 60 66 42 37 40 47 51 50 53 59 60 61 52 44 43 40 35 36 28 29 27 27 27 30 41 62 77 86 91 92 92 91
64 76 96 68 71 81 82 89 84 80 85 84 89 42 47 37 41 48 49 49 56 66 68 66 64 56 55 53 50 45 42 40 35 37 42 48 64 83 90 93 94 94 90 83
61 80 97 84 65 62 67 74 74 86 78 97 91 73 42 45 47 42 47 51 55 63 69 68 67 61 60 62 74 77 74 73 75 64 69 81 92 98 98 98 94 89 83 77
58 78 95 85 68 70 75 75 70 76 84 98 95 63 44 51 45 44 42 49 60 60 63 60 62 59 71 83 76 69 70 78 89 93 93 97 100 100 99 92 84 79 72 64
57 74 78 86 68 81 92 85 80 82 95 88 86 69 50 44 47 41 42 78 83 72 77 77 81 72 87 78 69 64 66 71 83 92 96 99 98 96 89 80 73 63 57 55
64 85 82 75 74 74 76 76 88 84 79 85 70 72 55 46 46 42 75 78 74 73 71 72 76 88 76 67 70 70 66 67 71 75 78 80 78 73 69 60 52 50 49 46
68 88 82 88 73 80 88 80 77 83 77 78 71 72 48 43 42 66 83 74 72 67 60 71 61 60 62 74 76 73 67 66 61 60 61 60 58 56 55 54 57 55 48 42
72 88 90 94 74 75 87 83 81 75 74 66 79 58 45 56 69 82 76 71 64 65 58 53 54 56 66 75 75 76 74 67 70 68 68 61 66 70 71 68 62 66 66 64
81 82 86 95 85 94 59 55 64 70 62 63 54 51 52 66 79 71 72 62 58 54 61 58 55 63 76 81 80 82 85 80 81 87 85 82 82 86 83 77 82 86 87 90
67 75 89 94 96 75 58 72 73 74 71 62 58 55 67 78 91 88 77 56 54 52 55 57 59 64 70 82 87 93 99 99 99 97 98 95 94 94 92 92 95 98 96 100
72 84 95 94 94 88 54 61 64 64 83 62 69 69 78 82 96 95 79 63 60 62 59 62 72 74 75 73 75 79 85 95 100 100 100 98 96 95 100 98 97 99 99 98
100 99 99 83 85 75 58 51 68 74 68 61 68 76 83 86 86 90 75 81 84 79 79 84 88 88 89 92 88 100 100 100 100 100 100 99 98 99 97 98 100 100 88 59
84 91 96 97 97 91 49 70 73 59 63 65 74 78 81 80 82 84 82 83 86 90 94 100 99 100 100 92 92 100 100 100 99 100 100 100 100 100 100 98 74 49 41 40
90 78 84 77 76 53 50 59 54 63 69 66 72 81 80 82 83 84 88 86 90 92 92 99 99 99 100 99 99 100 100 100 100 100 100 99 100 83 55 44 42 38 37 38
74 64 78 75 61 61 55 58 60 63 64 64 64 84 75 76 79 81 88 89 89 92 93 99 100 100 100 100 100 99 100 100 99 98 85 57 45 41 39 37 37 37 35 34
80 68 66 70 69 60 59 64 58 66 62 62 62 86 74 70 72 74 81 82 87 86 87 81 75 67 88 100 99 99 98 89 68 55 46 45 41 39 40 37 32 32 36 33
85 81 88 84 66 66 68 58 62 69 64 64 71 93 79 66 72 73 77 68 70 67 64 61 66 68 71 80 77 70 66 61 54 43 42 38 37 38 42 43 57 61 61 60

GFSCGP_925_rhum_060.txt.gz
RH
93 96 95 84 73 67 74 74 73 60 47 47 54 58 50 41 44 48 50 47 47 43 38 34 30 28 26 26 30 29 28 38 90 100 100 100 100 100 100 91 86 85 83 78
96 99 82 70 71 66 64 73 73 60 52 48 56 60 48 41 42 40 38 37 39 38 37 35 29 26 26 24 25 29 29 28 62 90 91 98 98 99 100 99 92 88 85 83
84 92 89 91 92 89 79 78 72 66 54 54 62 54 45 34 35 35 36 37 37 38 35 32 34 30 26 26 25 26 27 28 32 65 84 100 100 99 100 99 100 88 91 88
81 78 92 90 94 90 100 64 59 59 64 77 59 74 56 42 37 36 39 35 34 35 36 39 37 33 30 26 24 24 28 27 30 56 89 97 96 96 99 99 76 76 82 80
92 77 76 83 74 64 70 56 61 65 75 68 66 73 50 38 33 32 40 38 42 43 38 38 40 36 31 29 27 25 24 24 24 30 80 89 98 97 92 93 93 96 74 82
71 56 58 59 61 55 61 64 72 77 73 86 65 63 42 39 37 39 37 44 51 53 50 45 37 39 37 34 31 28 26 24 24 26 36 73 87 94 94 87 92 89 91 91
83 78 56 55 67 57 58 69 87 74 89 78 72 76 58 46 44 40 39 49 55 60 56 51 48 47 41 38 35 32 32 29 29 28 29 40 62 82 85 86 85 94 98 98
94 96 65 55 62 72 69 65 81 61 88 73 71 84 52 41 39 41 42 49 54 62 66 61 54 50 46 43 40 38 35 31 31 32 32 37 50 74 85 86 86 88 88 90
83 94 61 57 59 56 72 86 62 87 80 92 75 60 38 38 41 47 47 52 55 61 67 68 64 51 49 48 44 44 42 39 35 38 34 31 32 40 46 58 80 89 89 90
66 95 71 62 57 64 62 65 80 90 81 71 54 58 37 41 43 47 49 53 54 59 66 70 69 59 54 56 53 50 52 49 43 40 48 51 43 41 42 52 69 88 96 99
64 77 91 67 72 81 79 89 82 78 85 78 78 37 44 44 46 46 51 51 58 67 71 73 72 62 62 62 71 71 72 73 67 65 59 58 62 62 68 82 91 98 99 100
63 82 95 86 66 62 66 76 72 85 83 97 92 62 39 46 46 46 47 50 63 73 74 74 72 67 67 78 76 67 67 70 75 79 82 82 89 97 100 100 100 100 99 98
62 79 96 89 71 67 77 75 70 75 84 97 84 49 42 52 53 48 46 49 81 82 84 82 80 86 86 80 70 67 67 70 76 82 88 100 99 99 98 100 98 95 91 85
56 74 78 86 67 80 92 87 76 78 94 88 90 67 51 44 47 49 47 74 84 71 73 70 81 93 83 72 71 69 68 71 80 88 95 98 99 97 88 84 80 73 70 69
63 87 78 71 71 74 78 82 86 83 80 85 69 76 58 51 48 48 46 76 76 69 65 63 71 78 74 76 73 71 68 69 73 79 83 81 81 84 78 71 76 75 72 65
68 93 84 87 71 81 89 80 83 84 78 81 73 77 49 45 44 48 78 76 75 68 62 55 58 63 70 77 78 68 66 63 64 63 65 66 70 72 75 75 76 72 68 68
75 88 93 91 80 81 88 84 81 82 80 73 88 61 45 49 53 77 78 71 66 58 62 58 62 68 73 77 78 81 76 71 68 68 72 75 77 79 80 78 82 89 90 73
79 83 88 92 84 92 53 56 65 71 63 69 61 51 47 49 76 72 70 62 60 55 59 59 60 73 82 83 86 89 87 88 87 89 88 81 81 85 84 84 86 81 79 80
61 76 82 90 91 73 64 71 74 70 68 62 61 53 49 70 84 92 66 57 57 57 56 62 70 72 79 84 90 94 95 98 98 100 100 100 94 99 98 98 100 99 98 100
82 85 85 95 87 89 52 62 62 60 94 57 61 59 71 81 91 91 77 63 71 63 63 72 76 77 76 79 83 94 100 99 99 100 100 100 100 99 100 100 100 100 99 99
98 98 96 85 91 72 56 58 61 90 74 58 65 72 79 87 85 87 72 86 83 78 81 88 93 94 91 91 88 99 99 100 100 100 99 100 100 98 100 99 99 99 99 74
90 92 96 94 99 93 49 69 73 60 61 64 68 74 80 88 85 81 79 86 91 88 92 99 98 100 99 94 96 100 100 100 100 100 100 100 100 100 99 100 85 48 42 43
91 82 78 80 76 54 48 60 55 58 64 65 70 71 80 83 86 82 87 85 95 88 92 100 98 100 100 100 99 100 100 100 99 99 100 100 100 94 66 49 44 41 41 41
74 70 75 74 60 65 55 54 56 60 66 63 64 71 82 79 82 85 88 90 88 86 92 99 100 100 100 100 99 98 100 100 99 99 91 61 44 42 40 39 39 38 36 36
82 73 72 74 70 64 61 58 61 62 65 64 62 77 81 78 78 83 90 90 86 90 95 92 89 98 100 100 99 99 99 97 79 51 45 45 41 40 37 33 32 33 37 35
88 83 88 86 67 72 71 60 59 67 67 67 66 83 80 71 74 78 85 86 86 84 79 70 76 87 95 95 96 95 81 67 49 45 42 41 41 42 45 56 66 67 65 70

GFSCGP_925_rhum_063.txt.gz
RH
86 95 94 80 74 61 68 68 76 69 50 49 57 59 49 42 42 41 40 39 38 38 37 35 31 30 30 30 29 28 30 35 85 100 99 100 100 100 100 96 91 85 83 81
98 98 80 69 73 65 64 71 74 60 51 50 56 54 45 40 42 38 36 36 37 36 32 32 33 30 30 29 28 28 30 29 55 92 98 99 100 99 99 100 99 96 89 87
96 94 87 88 80 81 72 70 74 65 55 54 58 52 43 34 35 35 35 34 34 34 34 31 32 33 30 30 28 26 26 28 31 68 96 100 99 99 98 99 99 100 92 87
95 89 89 95 95 86 94 66 63 60 66 75 58 62 51 39 38 42 44 45 44 45 42 38 40 38 34 31 30 29 28 29 31 36 95 98 94 92 93 98 100 100 100 94
97 94 93 97 94 88 94 81 60 64 72 66 63 63 45 36 38 42 43 47 50 52 50 45 43 47 40 34 32 29 28 28 32 35 71 89 91 90 89 94 100 100 100 100
86 71 84 78 83 76 65 63 66 71 70 78 64 60 39 39 39 41 41 48 53 58 56 51 49 48 44 41 38 37 32 29 28 30 35 86 95 96 100 94 99 100 100 100
99 92 70 62 70 56 60 70 82 75 84 66 72 74 47 41 43 40 45 48 52 61 61 59 55 54 54 51 45 41 40 37 34 33 34 45 98 100 96 96 98 100 100 100
94 97 78 61 69 78 67 68 78 58 71 62 70 76 45 42 40 40 42 47 54 60 62 64 62 58 54 54 54 51 44 39 38 36 37 40 46 68 94 96 92 92 96 93
88 97 62 62 59 59 68 77 59 86 80 82 66 57 39 42 45 44 46 50 54 59 64 66 65 64 58 59 59 65 60 52 48 44 39 39 39 38 48 69 90 96 96 96
71 96 72 65 58 62 61 63 77 86 75 65 49 51 42 50 45 44 47 49 53 64 69 69 68 68 61 66 73 68 64 64 70 67 59 54 51 51 49 49 58 70 84 98
67 76 90 67 74 78 76 84 78 73 75 61 56 33 41 46 46 47 48 49 60 76 75 74 70 73 74 79 70 66 67 68 70 77 80 72 70 71 72 74 77 86 97 100
64 82 95 88 66 62 63 74 68 82 82 90 86 48 36 43 50 51 47 48 74 77 77 69 72 81 89 80 71 68 67 70 76 82 87 95 96 98 99 99 98 99 99 100
58 80 92 85 74 68 76 73 68 73 82 94 69 43 42 50 50 46 48 48 78 76 63 69 79 88 81 78 77 73 71 74 81 88 94 99 97 95 96 96 98 98 99 100
56 73 76 82 65 80 92 86 74 77 87 81 84 57 45 44 46 45 47 68 72 66 64 60 64 70 77 78 76 75 70 73 81 88 92 95 94 88 86 85 81 80 77 74
61 86 78 67 73 74 77 85 80 81 78 79 64 72 54 49 51 50 50 71 71 66 63 58 60 70 76 79 76 71 65 67 68 71 75 81 82 78 78 77 75 72 67 67
69 97 82 85 72 80 88 78 83 74 74 74 72 72 48 45 44 47 73 73 71 64 62 57 59 67 73 78 82 78 74 68 69 75 76 81 83 82 83 80 80 80 85 86
74 86 87 89 79 83 92 84 81 82 80 70 86 64 49 48 51 78 77 71 64 58 62 58 63 76 81 84 87 88 87 81 81 81 82 87 92 85 91 96 96 96 98 99
78 81 85 92 82 94 52 57 66 70 67 72 66 55 50 48 70 73 68 64 60 60 60 59 64 79 85 88 94 94 91 88 90 94 95 96 99 100 100 100 100 100 99 99
60 75 86 87 95 69 73 72 76 74 73 62 62 53 51 53 81 88 63 55 56 61 62 66 72 75 79 88 92 95 99 99 95 100 99 99 100 100 100 99 100 100 100 100
80 75 80 97 90 79 52 64 63 63 96 59 57 61 64 78 91 87 71 62 66 67 68 73 76 78 85 93 94 99 100 99 100 100 99 100 100 99 100 100 100 100 99 99
94 97 88 94 96 75 52 52 59 90 84 56 64 70 73 88 83 83 73 79 78 78 84 88 92 96 96 95 98 100 100 100 100 100 100 99 100 99 100 100 100 99 99 91
89 93 92 92 98 88 50 61 76 63 59 60 66 72 79 84 82 76 80 87 90 89 91 95 98 99 98 95 99 100 100 100 100 98 99 100 100 100 100 94 60 45 47 52
90 77 73 72 71 53 48 57 52 54 59 66 69 69 80 85 84 80 89 93 89 86 94 100 97 100 100 99 100 99 100 100 100 99 100 100 98 78 47 39 42 42 41 41
75 72 75 74 60 66 54 54 53 54 64 64 64 66 84 80 82 84 85 90 87 88 88 97 99 100 100 99 100 98 100 100 100 98 79 54 43 40 39 39 39 38 38 36
81 78 78 79 71 65 62 61 62 62 62 65 63 69 82 81 85 84 88 88 86 89 94 97 99 100 99 100 100 100 100 98 84 50 43 42 40 38 33 35 36 33 35 32
90 82 89 88 69 70 70 64 62 67 67 65 66 73 81 77 81 83 87 87 89 91 90 84 96 100 100 98 99 98 96 77 44 44 42 41 39 40 46 57 69 70 74 76

GFSCGP_925_rhum_066.txt.gz
RH
68 94 97 88 56 37 34 49 51 46 40 52 48 45 39 33 33 31 27 24 23 23 22 26 28 28 30 31 30 29 30 40 60 88 100 100 100 100 99 100 91 86 85 80
82 97 70 64 60 50 47 50 48 54 45 43 45 45 38 35 33 30 28 26 24 25 24 22 22 24 26 28 29 32 30 31 38 58 91 88 94 99 100 100 98 98 96 90
78 85 71 79 76 68 53 44 45 49 48 43 44 43 39 31 28 27 26 27 28 29 27 26 25 24 28 30 30 30 33 34 34 44 56 74 82 93 97 99 99 98 100 98
82 84 80 79 88 72 87 52 50 51 52 55 45 37 38 31 37 34 34 35 35 34 30 30 33 32 34 34 37 36 35 35 36 41 52 64 72 76 84 85 92 98 100 99
98 95 96 99 89 78 94 50 51 53 56 54 51 47 36 31 39 40 39 41 42 40 37 36 38 40 42 47 46 41 36 36 36 38 48 62 69 67 72 77 82 86 97 98
94 85 84 84 87 77 78 61 52 51 54 75 48 49 33 29 31 39 40 42 44 44 41 38 42 44 46 49 48 48 40 36 36 41 43 57 63 68 74 75 78 82 91 97
96 98 92 83 97 93 84 83 94 84 79 57 54 56 33 33 32 36 42 45 47 47 46 45 44 43 48 52 54 48 45 40 41 41 40 43 56 68 73 74 78 81 90 98
96 98 97 91 73 73 68 60 59 60 59 43 58 50 34 33 30 34 38 41 48 50 49 50 50 50 47 52 56 59 58 50 45 44 44 44 50 54 71 82 80 80 83 97
88 99 86 82 65 52 60 72 46 68 62 52 37 42 33 36 36 36 38 41 50 54 54 54 53 53 50 54 61 64 60 61 64 66 61 52 51 54 58 70 82 86 89 96
64 94 72 61 54 51 54 47 63 76 67 51 37 35 36 45 41 40 40 39 45 55 56 53 51 57 60 65 64 61 61 65 72 75 73 72 75 75 75 74 72 77 82 94
52 60 85 63 68 64 61 64 61 50 54 40 30 23 25 36 37 36 37 39 48 56 56 52 54 59 69 65 63 61 62 66 72 78 84 93 92 90 92 91 91 94 96 100
56 61 84 79 59 54 52 54 47 66 73 66 60 32 27 32 33 37 34 38 50 59 53 58 65 68 64 62 62 63 64 66 74 81 86 92 90 89 91 92 94 97 98 98
48 64 85 82 64 60 66 59 53 57 71 79 49 34 33 32 34 33 35 38 54 56 53 55 58 60 62 63 63 62 62 67 74 82 84 86 84 82 84 84 86 88 93 92
45 58 72 60 56 64 93 71 60 89 81 58 52 39 35 34 34 34 39 46 56 54 54 54 54 58 61 64 62 62 61 64 68 74 78 83 80 79 78 77 72 72 70 66
47 74 68 61 62 63 69 75 69 82 67 77 45 43 33 33 36 40 40 55 61 58 55 53 58 57 59 62 61 63 64 66 68 70 76 79 82 81 81 79 78 79 77 77
54 84 71 79 65 68 78 67 68 65 57 56 53 53 34 33 35 40 58 66 64 59 56 53 58 60 60 63 66 68 69 67 69 71 75 81 86 93 96 96 98 93 92 86
58 69 73 80 68 70 76 69 66 66 59 55 66 46 37 40 41 50 66 67 63 56 55 54 59 66 67 70 72 70 71 74 75 78 78 85 91 96 99 100 100 98 97 98
60 62 68 72 65 74 50 50 54 59 54 55 50 46 43 43 43 65 64 63 59 55 54 53 61 71 71 75 79 79 78 80 83 82 86 93 96 100 99 100 99 99 99 100
50 56 74 74 69 55 69 64 60 64 74 49 49 46 45 47 73 74 60 55 53 53 52 58 64 72 76 79 84 88 87 89 91 94 97 98 100 99 100 100 100 100 99 100
62 55 59 83 81 64 58 64 56 54 96 58 50 52 61 69 74 69 64 57 56 55 59 65 69 74 77 85 89 91 97 100 100 100 99 99 100 99 100 100 100 100 99 99
72 77 73 67 71 52 41 44 47 82 84 56 53 56 62 70 68 72 62 64 61 63 71 79 79 77 82 93 99 100 99 99 99 100 100 100 100 99 99 98 96 95 97 94
66 72 74 71 73 73 42 62 67 61 52 48 54 56 62 71 74 70 71 69 67 71 77 83 85 90 91 97 100 98 99 100 100 100 100 100 100 100 97 89 83 71 65 59
70 54 52 52 52 44 42 49 43 45 50 54 60 58 64 76 76 74 76 74 77 76 82 87 81 87 96 99 100 98 100 100 100 99 99 99 93 62 44 41 43 43 42 40
63 60 58 60 49 48 42 43 50 48 56 59 58 55 66 71 71 74 77 80 78 80 83 89 89 93 98 100 99 99 100 100 96 84 69 50 42 41 43 43 40 38 35 31
56 62 61 60 52 48 53 53 54 60 60 61 57 54 62 65 71 73 81 77 78 78 84 90 92 94 100 99 100 99 99 88 70 49 44 45 42 36 34 36 32 33 40 36
64 54 57 51 44 52 48 51 61 66 63 68 61 58 67 64 70 72 81 78 79 79 84 89 89 97 98 98 98 96 84 69 45 41 43 42 44 47 50 54 61 77 76 77

GFSCGP_925_rhum_069.txt.gz
RH
89 83 92 80 59 47 32 36 35 31 39 41 38 33 32 26 31 29 23 20 19 18 16 17 19 20 23 24 25 25 26 29 46 56 92 96 100 95 90 75 69 70 68 68
73 84 68 70 54 53 40 33 33 32 33 44 36 36 29 30 29 28 25 20 18 17 16 18 21 22 22 24 26 27 26 26 28 41 64 90 94 97 99 99 90 85 76 75
62 65 55 82 76 71 68 40 34 38 42 42 37 39 35 30 28 26 26 24 22 23 23 20 20 22 23 24 24 25 26 27 27 28 37 70 74 76 89 96 97 99 97 85
51 72 56 74 94 86 64 33 30 37 49 46 39 29 29 28 30 28 26 26 26 27 26 27 29 29 32 31 32 32 31 30 31 31 32 37 56 64 70 78 86 93 96 97
97 80 81 79 91 87 78 46 38 43 44 46 50 49 33 29 35 31 30 33 33 32 30 33 36 36 40 46 46 42 36 34 32 33 35 37 45 52 60 61 67 72 84 91
90 75 80 82 86 88 51 50 51 50 53 78 41 41 38 33 31 33 33 34 36 36 33 33 38 39 44 48 46 44 37 34 33 34 36 38 45 52 60 60 63 64 69 81
97 96 90 85 97 89 76 83 98 98 92 58 40 49 30 27 26 31 34 36 40 39 38 38 39 39 45 48 51 47 43 38 38 37 37 37 42 50 56 60 64 66 70 77
99 99 100 92 94 96 96 97 98 72 62 46 45 53 33 26 25 32 35 38 42 42 42 44 45 45 44 48 53 54 52 51 49 45 42 39 41 41 44 55 64 66 68 73
95 99 95 91 78 78 95 89 47 51 42 41 36 32 31 31 30 35 35 38 45 47 47 47 46 48 48 52 56 55 53 55 59 61 57 51 46 48 50 54 61 67 72 75
58 96 95 92 74 54 66 53 66 78 61 47 33 30 31 35 37 34 37 38 42 47 48 46 45 49 55 57 57 55 55 58 63 65 67 69 72 72 72 70 67 68 69 74
47 58 87 66 88 78 59 60 55 50 51 42 32 24 25 32 33 37 36 36 41 48 49 48 49 54 58 56 55 55 56 59 64 67 74 79 78 78 79 79 79 80 82 85
47 57 80 71 52 49 46 48 42 66 65 58 61 36 25 29 32 31 35 37 42 51 50 53 57 56 55 55 56 56 56 60 66 71 72 75 74 74 74 76 80 83 87 88
43 60 83 74 58 53 60 50 43 49 76 77 47 38 25 30 31 30 32 36 44 51 50 50 51 52 53 55 56 54 55 59 64 70 73 73 71 70 69 68 66 70 72 71
40 50 70 61 58 58 91 59 53 86 80 49 46 33 34 33 32 29 34 37 45 51 50 48 49 51 54 56 55 56 56 60 63 70 72 74 74 73 74 74 72 72 71 69
40 67 61 52 52 54 64 68 61 88 65 76 38 34 30 30 29 30 37 45 52 53 51 50 52 52 52 54 55 58 61 63 64 68 73 78 82 83 85 87 89 87 85 84
44 75 62 80 54 56 70 58 59 60 53 47 42 43 28 26 32 36 41 54 59 55 53 49 54 52 52 56 59 62 63 64 65 69 73 80 83 89 95 98 97 98 100 99
47 58 66 72 60 60 72 60 57 57 50 46 58 41 35 37 37 40 48 59 59 55 52 51 53 56 59 62 62 62 64 68 70 71 76 81 86 92 98 98 100 100 100 99
50 52 57 60 58 73 51 43 47 52 48 45 43 39 37 38 38 43 52 57 56 53 52 50 55 61 64 67 69 69 70 73 75 76 82 86 92 99 99 100 100 100 100 99
42 46 59 67 56 46 61 57 54 59 64 44 46 40 41 44 61 62 55 53 51 51 48 50 57 64 71 71 75 78 78 80 83 87 94 97 100 99 99 100 100 100 100 100
51 46 54 69 75 60 62 60 48 50 85 51 45 48 54 63 68 69 58 52 53 50 53 58 63 68 71 78 81 84 86 89 97 100 100 100 99 100 99 99 99 100 100 100
62 60 65 60 63 49 42 44 43 82 86 53 48 49 53 59 62 63 56 58 53 54 61 66 70 70 76 86 89 95 99 100 99 99 99 100 100 100 100 98 95 95 93 84
54 57 61 58 63 67 51 57 54 61 48 48 51 51 55 64 67 64 63 63 58 61 70 73 77 81 83 90 98 99 99 99 99 100 100 100 100 100 98 94 88 73 66 54
60 46 49 47 50 43 36 45 38 41 48 52 56 52 56 65 71 68 70 65 63 65 69 80 81 81 90 94 100 99 100 100 100 100 100 100 89 62 44 42 42 39 35 32
49 47 49 54 40 39 37 36 47 44 51 55 53 52 55 61 67 67 68 70 67 67 70 71 72 86 93 96 100 99 100 100 94 88 77 51 37 37 39 38 35 33 30 28
49 52 49 48 42 42 41 41 50 54 56 60 57 52 52 55 64 66 70 70 67 70 74 78 78 86 92 97 100 100 97 86 72 53 40 39 39 35 31 30 31 31 43 37
44 47 54 46 40 40 46 48 51 57 59 59 63 56 54 57 58 62 70 70 67 67 74 82 83 89 96 100 98 93 86 72 49 38 40 38 37 39 45 54 65 68 76 55

GFSCGP_925_rhum_072.txt.gz
RH
87 98 96 78 59 63 64 57 50 44 34 50 49 52 42 31 33 34 32 27 23 22 19 18 18 17 19 21 26 28 28 35 63 82 89 85 84 84 78 74 71 67 64 64
90 96 81 54 55 65 61 54 50 38 40 46 45 46 36 33 32 35 32 29 25 21 20 19 21 21 22 23 25 25 26 27 29 43 72 83 83 84 89 84 79 74 71 67
86 75 65 68 63 65 61 69 64 41 44 42 40 46 40 31 30 30 30 29 28 27 28 26 25 24 24 23 24 26 27 27 27 28 35 76 81 81 85 89 91 86 83 80
87 56 67 72 76 65 76 53 58 40 53 71 48 60 40 35 37 35 31 28 28 28 28 32 35 34 35 37 31 30 29 30 30 29 29 49 84 85 88 85 82 84 89 92
94 74 79 93 91 79 85 78 51 59 55 54 58 64 40 36 37 36 32 33 35 33 36 41 39 40 46 48 46 40 33 31 31 33 33 34 36 43 67 72 76 81 80 83
93 73 78 78 76 78 88 91 80 63 61 92 57 60 48 40 35 34 37 40 40 39 41 44 41 45 50 51 47 43 37 36 34 33 33 34 35 40 49 58 62 62 64 68
89 97 90 80 98 92 94 100 99 98 98 86 48 61 46 32 31 34 42 45 46 44 46 47 47 47 49 52 54 52 50 45 41 39 38 37 38 40 47 55 62 65 66 68
86 95 99 94 88 94 97 97 98 89 90 69 47 67 43 31 32 34 39 48 48 51 53 54 53 49 49 52 57 55 53 56 58 57 52 44 41 42 43 44 51 62 68 70
96 98 95 92 87 84 99 100 85 74 50 74 59 42 36 30 42 44 45 47 54 56 57 54 51 52 53 57 56 55 55 60 64 65 63 60 63 60 61 55 55 62 71 76
67 98 96 94 86 83 94 68 89 97 82 71 51 49 49 45 45 44 45 49 56 55 55 54 55 55 58 57 55 55 57 61 64 69 73 74 73 71 70 73 75 72 74 76
53 72 99 96 98 98 96 100 62 59 64 80 65 43 33 39 39 42 44 45 53 58 56 58 59 59 57 56 56 56 58 62 68 71 76 77 77 77 79 81 82 83 85 84
53 68 93 76 54 49 52 60 56 91 76 81 83 53 30 36 40 43 43 42 52 58 58 62 63 56 56 57 56 56 59 64 68 72 74 72 72 70 70 71 76 80 80 81
47 74 89 74 66 55 63 54 48 68 87 86 85 54 35 42 41 36 41 43 55 58 57 62 58 57 56 56 55 54 58 61 68 72 73 73 72 72 70 69 68 68 69 72
50 59 83 88 72 74 84 63 61 87 91 72 70 43 43 41 41 35 41 44 57 58 56 56 60 59 57 56 56 58 61 62 67 73 77 78 78 79 80 78 78 78 78 78
53 72 67 54 53 55 76 72 73 87 74 80 55 42 37 38 39 35 45 48 58 58 57 58 60 62 57 55 58 62 63 66 68 74 79 84 88 90 91 92 93 90 88 87
46 78 69 87 52 55 69 62 64 71 65 58 48 48 29 30 30 40 45 58 63 61 58 56 58 56 57 58 61 63 64 66 69 74 81 85 90 96 98 99 98 98 99 99
52 69 78 85 58 62 81 67 64 64 57 55 66 50 36 41 40 42 51 63 66 61 55 54 61 59 60 62 62 64 67 70 71 76 81 88 94 99 100 98 98 100 100 100
53 56 65 80 61 88 58 45 50 57 52 51 48 42 40 39 41 43 52 59 65 59 53 53 58 62 64 66 67 68 71 75 77 83 86 94 99 99 99 98 99 99 99 100
47 54 68 83 69 51 68 58 55 62 64 49 50 44 43 54 62 62 58 58 60 55 53 52 59 64 68 69 73 75 79 82 86 93 99 99 99 99 99 100 100 100 100 100
52 54 66 82 87 74 72 56 45 46 88 49 47 48 55 66 87 89 62 56 55 51 55 62 66 70 71 76 81 81 83 90 96 99 100 99 99 99 99 99 100 99 100 99
68 63 78 74 78 61 62 57 45 88 91 55 50 51 55 71 76 71 61 58 54 58 62 63 67 68 77 83 86 93 98 99 99 100 98 98 99 99 99 100 97 94 77 74
62 66 62 62 72 78 55 54 64 69 55 56 58 60 63 75 68 64 63 63 62 68 70 71 75 79 82 89 94 100 100 100 99 99 100 100 99 99 95 92 80 63 57 56
71 54 58 56 62 47 51 48 43 45 55 56 60 59 59 76 72 69 71 66 65 69 73 79 84 86 87 90 99 100 100 99 99 100 100 98 97 82 62 51 47 43 38 35
53 49 59 60 47 49 45 48 51 50 60 58 56 54 60 64 74 71 70 70 71 70 76 80 79 88 89 95 100 99 99 99 99 97 93 68 46 39 38 37 35 34 30 29
62 57 59 55 48 45 43 46 62 60 59 61 59 57 54 57 74 70 74 72 71 71 72 72 76 86 88 99 99 99 99 99 92 83 52 37 40 39 36 36 31 30 34 35
54 60 66 62 53 52 64 62 59 59 62 61 64 66 56 58 66 71 77 72 69 73 76 76 76 85 89 99 99 99 96 85 68 44 39 39 34 32 36 41 54 60 48 35

GFSCGP_925_rhum_075.txt.gz
RH
90 96 95 81 63 63 67 77 76 67 51 58 61 57 48 40 33 38 37 32 30 28 22 19 20 21 23 22 32 60 58 74 81 83 81 73 79 71 69 68 68 66 64 63
96 96 83 69 58 67 71 73 70 51 48 57 62 59 50 42 41 36 36 35 32 27 29 27 25 24 24 24 26 28 28 43 76 77 81 80 72 75 74 72 80 73 69 65
100 89 84 68 67 74 79 84 74 58 50 47 56 60 56 44 38 37 34 33 30 28 30 31 33 31 27 25 24 25 27 27 28 52 81 86 86 82 75 73 73 81 84 83
98 67 76 74 74 68 87 61 62 64 63 93 50 79 53 45 41 36 36 36 31 28 32 41 42 41 36 36 33 28 27 30 30 30 35 78 82 88 78 69 58 52 65 79
82 80 95 90 74 68 82 80 78 71 84 60 62 65 55 42 44 36 41 35 32 36 44 46 47 46 47 45 42 37 31 29 29 31 33 36 67 86 81 79 77 80 76 74
91 75 81 79 82 82 79 85 85 81 90 99 74 69 58 55 41 39 34 42 45 48 50 48 47 50 53 52 48 48 38 39 36 32 30 32 35 36 38 49 82 84 78 80
97 98 88 78 95 85 84 94 99 99 99 92 67 70 50 39 36 35 45 50 48 48 52 51 57 58 56 57 56 54 54 55 50 46 44 39 37 38 40 46 55 69 71 72
98 98 98 89 84 86 95 96 97 92 96 80 57 80 56 39 36 42 44 52 53 60 61 62 59 58 59 60 56 55 59 60 58 57 57 55 47 48 51 52 53 63 74 77
94 100 93 86 82 79 95 99 94 89 62 78 66 47 37 43 55 54 56 54 64 67 66 64 62 62 64 59 58 57 60 63 65 66 63 63 65 64 65 66 64 71 78 82
86 95 93 88 83 85 94 74 98 99 95 84 68 60 58 45 62 60 61 60 66 66 64 64 66 65 60 57 57 58 62 66 69 75 76 77 76 76 76 75 76 75 78 80
69 81 99 94 95 92 99 100 92 81 98 86 78 55 40 40 53 56 55 60 64 66 65 68 72 62 59 58 58 60 64 68 72 77 76 75 77 80 79 78 81 80 80 81
58 79 99 94 77 72 75 90 73 91 93 84 90 60 33 42 51 48 51 56 65 65 69 74 68 63 61 59 57 60 63 68 75 74 73 72 71 70 70 71 74 75 74 77
53 78 93 87 70 60 69 71 67 67 82 85 84 61 44 47 51 50 53 62 66 65 72 72 67 65 62 58 57 59 62 69 73 74 73 73 73 71 71 72 71 72 74 75
51 70 76 85 70 76 84 69 66 74 84 80 76 55 50 45 45 43 48 56 68 64 66 69 70 67 61 58 59 61 64 70 74 75 77 79 81 82 80 80 79 79 80 78
56 74 65 59 59 70 78 74 78 78 68 74 55 48 49 44 43 41 43 53 69 65 63 65 70 71 62 61 63 64 67 71 75 79 84 90 91 92 91 91 90 88 87 88
57 79 70 86 56 59 70 70 76 68 62 64 60 53 35 36 38 40 54 62 69 66 63 64 66 65 64 62 64 65 67 72 76 82 89 93 97 99 100 99 99 99 99 100
61 74 85 88 62 65 81 74 74 75 67 61 67 51 38 38 39 52 62 69 70 68 62 64 64 64 65 63 65 67 69 72 78 85 90 94 97 99 99 100 98 98 98 99
60 68 78 86 68 91 54 49 57 66 61 61 51 45 41 46 49 54 59 69 73 66 62 61 62 64 65 65 66 70 73 77 82 89 94 98 99 100 100 100 99 100 99 98
59 65 77 85 85 62 65 60 62 66 66 55 55 47 46 60 62 62 60 60 70 62 57 60 62 63 68 70 71 75 80 82 90 96 98 99 99 100 100 99 100 99 98 99
58 63 77 84 90 85 72 53 48 50 83 59 53 50 55 70 82 82 63 59 60 57 60 66 66 69 73 76 76 80 88 90 97 100 99 99 100 99 99 99 99 99 99 96
74 72 81 80 89 68 63 59 47 88 80 55 54 58 71 76 76 75 65 60 58 63 66 68 70 73 76 79 81 88 94 98 100 100 99 99 99 100 99 99 99 87 91 87
68 74 75 63 69 83 52 53 64 67 59 60 62 63 73 75 71 67 65 64 67 70 72 68 75 79 80 85 86 97 100 100 100 99 100 99 99 100 100 96 77 74 70 67
68 61 60 62 65 50 60 52 49 56 62 60 64 62 68 76 74 69 70 66 69 72 74 75 81 86 88 91 93 100 100 100 99 99 100 100 99 95 93 79 61 54 49 44
56 53 61 57 50 51 52 54 52 51 62 62 59 58 65 75 76 72 71 70 70 77 82 81 86 90 92 92 96 99 100 100 100 100 99 99 94 76 60 49 42 38 36 33
62 58 63 63 53 49 49 63 67 66 64 63 61 58 57 64 78 77 76 75 71 77 80 83 88 87 91 94 100 99 100 99 100 97 90 78 57 48 41 37 35 32 32 30
62 65 72 73 54 63 72 68 63 68 66 63 64 66 62 58 71 75 81 74 73 76 79 81 84 86 90 95 100 100 100 100 92 90 68 41 41 39 40 36 44 42 44 41

GFSCGP_925_rhum_078.txt.gz
RH
86 96 99 90 72 62 73 77 76 73 58 63 65 56 48 41 38 38 40 41 38 31 26 23 20 26 32 33 58 70 75 68 69 76 77 78 77 77 68 64 64 62 63 60
94 96 86 72 66 67 65 78 82 62 57 66 65 61 53 46 43 39 37 37 35 28 28 30 27 26 27 27 43 63 74 77 80 77 75 71 70 77 75 70 69 68 66 65
98 73 67 87 73 75 80 79 77 62 55 60 64 70 61 53 47 42 37 35 34 34 31 34 36 32 30 29 30 32 35 40 73 88 88 87 85 79 78 77 76 75 76 73
96 68 84 94 79 66 90 76 69 74 70 90 57 90 64 53 52 47 43 40 39 33 34 41 42 40 37 35 31 29 30 31 31 37 66 88 91 94 80 71 67 69 69 78
75 82 94 99 76 65 81 73 70 79 89 64 64 74 63 44 56 49 41 37 40 36 46 50 49 46 46 42 38 33 29 29 31 33 34 45 95 95 91 85 83 76 72 71
79 74 84 84 88 74 82 82 83 87 96 99 79 79 75 50 41 41 40 38 39 48 52 54 52 52 54 51 50 40 41 43 37 33 33 34 37 51 64 59 56 62 72 77
96 94 93 88 95 83 83 95 97 99 99 94 75 74 60 44 40 40 41 44 52 57 59 63 66 64 62 58 56 56 54 55 54 50 44 39 37 38 39 40 42 54 74 85
98 98 98 92 86 94 92 80 92 90 96 83 69 85 60 39 41 39 42 49 53 59 62 63 65 64 65 60 57 59 60 60 60 59 59 58 52 52 53 54 58 65 76 79
97 100 93 84 83 74 96 100 88 87 69 88 78 63 43 52 58 62 62 61 63 65 71 71 68 68 64 60 58 60 61 64 66 66 67 67 68 65 65 67 71 78 88 90
80 98 88 94 79 88 85 82 99 99 96 89 74 65 61 60 71 66 68 75 75 70 73 76 77 68 63 60 60 62 65 69 75 76 75 75 75 76 76 77 75 77 82 85
75 78 97 87 94 96 99 98 91 83 95 93 87 65 44 50 61 69 74 76 77 71 69 76 76 66 62 61 61 64 67 72 78 76 76 77 78 79 78 76 80 80 83 85
62 77 93 83 76 63 78 82 82 93 98 92 87 68 41 42 59 62 68 73 74 69 71 80 73 67 64 61 62 64 68 74 76 75 74 72 72 72 71 71 72 73 74 79
57 83 98 99 94 84 99 87 73 75 83 86 85 64 45 54 56 53 59 72 75 75 81 76 73 71 65 61 60 62 67 74 76 75 74 74 73 71 71 71 73 74 75 76
55 74 74 85 67 82 87 89 90 78 87 76 81 51 50 54 55 57 63 70 75 76 80 75 74 71 64 62 61 63 69 74 76 76 78 79 81 80 80 80 81 80 80 79
52 73 67 62 72 71 74 78 81 77 64 76 55 58 50 48 52 52 57 70 74 72 77 72 74 73 66 65 64 66 71 77 78 81 86 90 91 91 90 90 90 89 86 86
65 84 67 84 58 62 71 75 78 70 60 62 63 60 40 41 38 43 49 62 73 70 69 70 70 72 69 66 66 67 72 77 79 85 92 97 98 97 98 99 100 100 99 98
65 79 83 88 65 68 81 75 82 76 67 60 67 51 40 43 41 42 50 56 66 71 67 68 69 69 66 65 65 68 70 78 83 88 94 96 99 99 99 99 99 99 100 99
70 76 80 88 72 95 50 53 60 69 66 62 53 49 43 42 43 47 57 61 71 72 67 68 67 65 64 64 67 68 72 78 83 90 94 99 99 100 99 99 99 99 99 100
61 73 82 87 88 62 61 60 68 72 70 62 61 52 54 60 59 59 59 63 71 71 65 64 62 64 65 67 68 71 78 82 88 94 98 99 99 99 99 100 100 99 98 99
66 70 78 89 90 86 62 56 50 58 87 60 58 56 66 72 73 67 64 62 66 61 61 65 64 66 70 72 73 77 84 88 95 100 99 99 99 99 100 99 99 99 99 96
75 72 82 82 90 75 56 60 54 84 71 56 58 57 72 74 66 72 66 60 63 66 66 66 67 72 74 76 78 84 87 92 95 100 100 100 99 99 99 98 98 99 94 82
70 81 83 78 73 80 58 52 69 65 60 60 64 63 69 74 73 69 66 68 71 72 75 72 76 78 80 79 80 90 94 95 99 100 100 100 99 99 99 98 96 92 88 83
67 62 67 66 66 49 56 52 50 59 64 62 63 64 71 74 72 70 69 67 70 71 72 72 76 84 85 84 84 93 99 100 100 100 100 100 100 98 100 86 77 74 69 62
57 58 61 59 51 54 58 52 52 50 61 62 60 61 70 72 74 72 71 69 71 73 76 76 84 90 94 91 93 93 100 100 100 100 99 99 98 100 97 78 60 52 48 43
63 60 65 66 57 50 49 58 65 68 67 67 64 61 59 63 75 75 76 75 72 75 78 81 87 90 90 92 94 99 100 100 100 100 100 99 99 89 67 55 47 40 36 32
66 66 73 73 57 58 66 69 67 69 69 67 64 64 65 62 66 76 80 76 74 77 79 87 88 88 88 90 96 99 100 100 100 100 99 98 84 72 51 43 39 38 41 38

GFSCGP_925_rhum_081.txt.gz
RH
88 92 97 97 76 63 78 73 84 76 60 65 67 57 51 42 41 42 41 44 38 37 30 25 24 38 66 71 69 71 74 77 80 84 82 80 82 79 70 62 64 61 60 60
99 95 86 80 71 68 68 80 82 67 63 66 71 72 54 47 45 40 36 39 39 38 30 28 26 24 27 46 67 69 69 79 81 78 78 80 78 76 74 69 63 62 62 62
81 77 82 93 79 78 78 71 84 67 64 64 63 73 63 51 51 46 41 36 38 40 35 36 36 34 29 30 38 61 74 73 74 70 83 86 86 84 78 79 78 75 74 69
82 68 95 98 82 75 86 66 67 70 73 87 65 94 67 52 52 52 46 47 43 40 36 39 42 42 39 35 34 35 40 46 53 74 87 88 88 89 80 80 78 75 75 77
74 77 88 100 88 70 82 71 73 81 82 71 70 81 74 49 60 50 46 43 44 40 39 44 46 45 46 41 35 32 30 31 33 34 44 77 93 92 88 87 87 83 82 82
87 77 78 86 87 74 80 81 88 86 92 95 79 84 84 62 47 45 47 48 45 40 46 50 52 54 54 52 43 43 40 39 34 32 33 35 46 68 90 93 92 84 79 78
99 87 90 85 98 84 81 89 98 98 99 92 77 86 67 54 41 39 37 45 46 48 58 65 70 69 63 57 54 54 53 56 54 47 40 36 36 39 44 52 52 48 54 63
98 99 97 91 92 92 85 82 92 90 92 91 77 92 68 51 46 42 42 43 54 64 67 74 74 70 65 61 61 60 60 62 62 61 61 57 51 45 43 44 45 48 54 59
97 99 94 93 87 77 98 94 80 86 75 90 82 72 50 45 52 50 56 63 67 69 73 75 75 72 65 62 63 62 63 67 67 67 68 69 69 68 66 67 71 82 90 96
77 100 89 95 80 83 81 84 91 98 98 91 75 73 66 50 56 65 69 68 72 76 79 79 81 72 66 63 64 65 66 69 74 74 74 74 75 76 77 78 77 84 89 92
72 79 98 87 98 95 94 97 91 85 95 93 91 64 53 48 55 69 74 80 82 82 82 85 79 69 65 64 65 67 69 75 76 75 78 78 78 78 78 77 79 82 86 87
69 83 98 96 82 71 73 81 86 94 97 89 89 70 43 47 54 72 80 81 83 78 83 85 77 71 67 66 66 67 73 75 76 76 74 74 74 73 73 73 74 76 79 83
68 85 98 92 83 85 89 78 69 77 87 97 86 69 45 54 64 72 82 83 80 80 86 86 79 73 68 65 64 67 73 76 76 76 75 74 73 72 71 72 74 75 77 79
56 76 75 84 66 87 100 95 84 83 92 82 87 65 45 53 63 65 71 76 80 79 83 84 80 74 67 64 63 67 74 75 76 76 77 78 78 78 79 81 81 80 80 79
54 78 73 66 73 73 79 84 94 91 79 81 62 63 44 52 60 62 65 76 78 84 87 82 81 77 69 66 65 67 75 77 78 80 84 87 88 88 89 89 89 87 86 86
64 85 68 82 63 68 73 76 88 88 81 75 65 65 46 44 52 58 68 81 77 74 81 81 78 76 71 68 66 69 76 78 80 84 90 94 94 95 96 99 100 100 99 96
67 82 78 78 68 68 74 75 83 76 69 66 70 53 42 47 46 54 60 73 74 74 74 75 73 72 69 67 66 70 75 80 83 87 94 97 98 100 100 100 100 100 100 100
72 73 78 91 72 83 47 56 62 69 67 67 55 49 46 47 43 41 45 52 61 72 73 72 73 70 66 64 67 69 74 80 83 90 94 97 99 100 100 100 100 100 99 100
64 78 85 89 90 66 56 61 71 75 68 64 61 53 51 58 55 54 60 61 56 68 67 66 63 64 65 65 68 70 78 82 86 92 96 99 99 100 100 100 100 100 100 100
70 73 79 91 90 82 57 60 54 57 81 61 62 60 64 67 70 67 62 59 66 68 65 65 64 64 66 69 69 74 81 85 90 94 99 100 99 99 99 99 99 99 99 97
78 75 79 84 92 76 56 62 59 81 69 57 61 60 70 73 62 66 66 63 66 66 67 67 67 68 68 69 72 78 83 88 88 95 99 100 100 99 99 99 99 99 99 86
74 85 87 81 81 81 56 56 68 64 62 62 63 63 71 71 75 70 66 68 70 72 76 72 74 75 75 74 76 83 86 86 91 96 100 100 100 100 100 99 100 93 82 75
70 64 73 66 65 47 52 54 49 60 64 63 63 67 70 73 70 70 70 69 70 72 74 75 76 81 83 82 82 87 88 92 97 100 100 100 100 99 99 99 98 95 90 79
58 59 61 60 51 53 52 53 54 53 62 63 62 67 68 68 72 69 69 70 71 72 73 73 79 87 91 88 87 86 91 97 100 100 100 100 99 100 99 93 86 79 71 62
63 61 65 67 59 55 51 58 61 68 69 69 66 62 61 65 70 70 74 74 71 73 72 74 80 84 87 90 93 94 97 100 100 100 100 100 99 99 100 83 68 57 47 41
67 67 73 73 57 55 56 61 69 74 71 67 64 65 65 63 66 73 79 76 73 76 76 81 81 83 85 90 94 99 100 100 100 100 100 100 98 100 98 73 59 50 41 36

GFSCGP_925_rhum_084.txt.gz
RH
100 90 90 90 91 64 72 86 82 73 64 67 73 64 58 60 75 74 82 85 71 41 32 28 25 36 74 74 80 83 88 89 88 88 85 88 86 85 82 81 74 70 71 72
99 88 69 72 85 78 63 75 82 74 66 66 78 73 62 53 56 49 62 64 51 38 38 32 26 23 29 63 72 82 85 84 84 85 80 79 80 82 77 71 68 66 71 70
97 75 72 94 95 95 69 68 84 75 74 65 71 77 73 59 52 48 44 41 40 37 37 36 32 27 26 33 58 70 80 87 87 86 87 88 86 87 85 86 83 78 71 69
98 80 81 100 100 87 86 57 63 74 78 91 66 88 74 68 62 59 52 46 38 38 38 37 39 38 34 33 37 42 64 83 90 92 92 90 89 90 82 79 80 82 85 84
92 82 98 100 98 79 83 61 70 72 85 76 75 84 76 56 68 54 49 49 47 42 39 39 45 42 44 42 38 38 43 46 51 57 82 98 100 97 93 89 85 84 85 88
91 80 73 88 97 80 82 80 85 88 85 97 80 85 81 71 53 46 49 45 45 43 41 41 45 54 54 48 41 36 34 33 33 33 34 37 47 66 85 93 95 94 92 87
99 91 86 82 100 90 88 88 99 99 99 87 78 89 72 59 47 43 43 46 50 46 43 49 67 71 65 54 53 51 47 47 43 38 34 34 35 38 47 65 76 79 73 69
96 98 92 88 97 99 92 81 90 90 92 91 86 95 69 54 51 50 41 40 40 50 49 56 68 72 66 65 62 58 57 59 59 57 54 50 46 44 45 46 47 49 53 55
98 99 91 87 86 94 97 98 68 86 79 90 82 69 53 49 51 50 52 51 55 62 70 74 80 74 68 69 67 65 65 67 66 64 66 66 64 64 65 69 75 81 85 94
80 98 91 94 89 90 88 83 91 88 94 92 74 69 63 45 46 49 58 66 70 77 86 88 86 75 69 67 66 66 67 70 72 71 71 71 73 74 75 77 79 87 93 98
87 80 100 96 100 99 88 98 87 84 91 91 91 64 55 48 43 49 61 70 80 85 88 90 86 73 70 69 69 69 71 73 74 74 76 76 76 77 77 76 77 81 87 91
82 85 97 97 90 79 77 83 83 92 94 89 91 77 41 50 52 57 70 80 82 84 89 89 83 76 74 72 71 73 75 74 75 75 75 74 74 74 74 73 74 76 80 83
70 86 98 98 84 85 91 82 81 81 89 95 92 73 44 53 57 67 79 83 86 88 91 89 86 80 75 72 71 74 77 76 76 76 75 74 73 72 71 72 73 75 76 78
57 76 77 84 66 82 99 94 82 81 98 85 89 72 58 50 51 65 78 82 86 88 91 89 87 81 72 69 70 71 76 76 75 75 76 76 77 77 78 79 79 80 80 80
60 82 72 68 69 84 86 91 91 88 75 81 70 72 56 47 47 64 78 86 86 89 91 88 87 85 72 69 68 73 75 76 76 77 80 82 84 84 85 85 86 86 86 86
66 83 69 82 73 72 78 84 91 85 75 85 75 74 52 47 52 64 78 86 82 82 86 87 83 82 75 69 68 71 75 77 78 81 86 90 91 93 94 96 100 96 93 93
69 80 76 74 70 66 69 73 86 84 82 80 88 62 51 46 50 58 68 83 76 78 81 83 80 78 72 67 64 69 74 78 81 84 90 95 97 98 99 100 100 99 99 99
71 72 77 93 71 76 45 58 64 74 72 74 68 53 47 46 45 47 57 65 76 76 75 80 78 74 69 65 65 67 74 78 82 87 92 97 98 99 99 100 100 100 100 99
67 79 88 90 88 65 57 65 70 75 64 66 68 60 50 54 52 51 51 53 62 66 73 67 67 69 68 66 66 69 78 82 85 89 92 95 98 99 99 100 100 100 100 100
72 74 79 91 89 75 52 64 57 57 80 57 66 63 58 67 70 63 64 65 68 67 65 66 67 67 68 69 68 72 80 84 87 89 92 97 100 100 100 99 99 100 100 99
79 76 87 79 88 78 56 56 62 82 67 64 60 65 66 74 62 66 66 65 67 69 69 68 69 69 68 69 70 76 80 85 83 88 94 99 100 100 99 99 99 100 99 95
78 86 88 81 91 86 47 59 69 61 65 65 63 59 68 70 74 69 68 69 70 75 78 74 75 74 72 71 72 77 82 80 85 91 98 100 100 100 100 99 100 100 99 78
70 66 74 74 75 51 48 60 53 61 64 64 63 69 72 71 69 70 70 68 69 72 75 75 75 80 78 75 74 80 82 85 90 97 100 100 100 100 100 100 100 99 82 69
60 59 64 63 52 55 53 57 56 56 62 63 64 69 67 70 70 66 69 71 71 72 75 75 78 83 85 82 82 82 84 87 93 100 100 100 100 100 100 100 98 90 81 78
63 62 67 69 61 58 54 58 61 66 67 69 68 65 66 66 69 68 73 72 72 72 72 73 77 80 81 85 88 89 88 92 99 100 100 100 100 100 100 99 92 82 73 59
70 66 70 71 58 56 57 56 68 73 72 68 65 66 68 69 72 70 77 76 73 74 73 76 77 80 79 85 91 98 98 97 100 100 100 100 100 100 99 99 90 77 61 50

GFSCGP_925_rhum_087.txt.gz
RH
100 99 97 96 92 77 63 80 77 69 70 66 64 66 57 68 75 69 71 68 62 53 49 43 33 35 76 78 85 65 61 65 69 85 92 96 95 88 84 82 81 81 77 78
97 97 78 74 82 90 64 79 79 73 67 70 70 67 60 57 74 70 67 68 58 52 48 41 33 28 27 60 64 63 83 84 76 96 94 92 89 88 84 81 83 82 79 76
93 91 59 86 80 100 74 78 84 74 72 66 74 76 68 60 53 57 58 62 52 43 44 40 35 32 28 26 54 69 71 85 92 96 96 91 88 89 88 88 85 76 75 71
98 92 70 98 96 96 84 61 65 78 76 78 69 78 70 65 62 55 50 50 55 48 42 38 35 32 28 27 30 49 69 83 86 91 94 92 90 90 84 81 78 78 81 86
96 92 87 91 95 96 97 54 61 72 79 76 79 79 66 63 65 59 54 51 44 42 40 38 36 34 34 34 35 40 48 74 90 98 98 96 96 95 94 93 90 87 86 89
81 83 76 83 88 91 93 73 74 82 79 93 76 79 68 64 54 52 47 48 45 41 38 36 35 40 44 41 42 41 44 51 57 64 77 91 97 98 99 100 99 97 96 94
98 85 87 81 94 89 100 75 94 93 94 86 77 86 62 58 53 45 43 44 46 45 41 39 46 60 54 51 47 47 43 42 40 37 36 36 37 38 41 51 62 73 79 83
96 98 83 89 97 100 81 74 85 91 90 87 84 92 59 51 50 44 45 40 42 52 47 44 50 59 60 53 56 54 54 52 50 47 45 45 43 41 40 42 45 49 57 62
98 100 80 81 88 98 98 92 64 84 80 82 77 66 47 49 49 49 47 48 48 45 50 50 57 65 67 66 64 60 58 60 59 55 55 55 55 57 59 61 64 66 67 69
86 98 87 93 82 92 97 78 88 89 91 84 71 66 48 41 40 43 46 52 53 61 64 72 74 74 73 71 70 70 67 66 68 66 65 65 67 68 70 74 78 86 90 98
92 89 98 92 96 98 98 100 88 80 82 78 75 53 48 44 41 42 45 54 60 73 81 83 78 77 76 74 72 73 71 69 70 70 71 72 73 74 75 75 76 79 85 91
83 88 96 93 88 83 86 84 76 86 94 87 83 58 40 44 50 53 52 66 73 79 84 81 78 80 80 80 80 79 76 73 73 72 72 72 72 72 72 72 73 75 80 83
76 87 96 96 84 89 100 84 77 81 86 92 84 65 45 51 48 59 68 74 82 85 87 83 79 77 79 75 76 78 77 75 75 74 73 73 72 71 71 72 73 75 77 79
66 78 76 83 66 81 99 91 79 79 94 90 85 65 51 50 50 47 66 78 82 84 85 82 80 78 78 73 74 77 78 76 76 74 76 74 74 74 74 76 77 79 79 81
68 94 71 73 69 83 84 89 91 88 77 80 66 69 49 50 50 47 59 82 84 86 87 82 80 77 77 74 73 76 75 76 76 74 74 78 80 81 82 83 83 84 85 84
66 81 69 82 78 75 80 84 88 86 80 79 79 78 54 48 49 57 68 85 85 83 83 83 80 79 77 72 70 72 73 73 74 75 79 82 86 89 90 91 92 91 91 92
70 78 77 79 73 68 66 70 87 86 83 73 83 59 52 50 50 49 62 83 79 77 78 81 78 77 75 70 66 70 72 74 77 80 84 88 92 95 95 96 100 98 95 97
70 70 75 90 70 75 43 59 65 79 76 80 75 66 55 53 46 46 54 69 78 76 77 78 77 78 73 68 66 66 74 78 82 86 89 93 96 97 99 100 100 100 100 100
66 75 87 83 84 60 60 65 68 68 60 64 73 68 61 50 52 53 49 59 65 73 72 70 70 70 70 68 66 68 76 79 83 87 91 95 98 99 99 100 100 100 100 100
73 73 76 87 86 69 50 65 57 58 74 57 66 67 68 65 69 63 64 58 59 58 60 66 67 69 70 70 67 70 78 82 84 84 87 91 95 97 99 99 99 99 100 100
81 78 84 74 77 73 57 56 61 74 66 68 63 64 66 68 60 66 65 68 69 71 70 69 70 71 72 71 70 74 77 81 76 80 86 92 96 99 99 100 100 100 100 97
78 84 88 83 83 83 47 61 68 60 63 66 69 60 66 74 73 70 70 71 71 74 75 74 75 75 74 72 72 75 77 74 79 84 90 95 99 100 100 100 100 100 99 91
72 68 74 74 73 53 47 63 54 58 66 64 64 69 70 72 70 70 71 68 69 72 74 75 75 78 76 74 72 75 74 78 83 89 94 99 100 100 100 100 100 100 99 86
60 61 66 64 53 56 53 54 61 59 62 63 68 68 68 69 71 70 70 68 71 72 74 75 79 82 82 77 75 74 76 82 88 95 100 100 100 100 100 100 100 99 99 78
66 65 69 71 61 59 53 56 58 68 67 68 72 69 71 73 72 70 74 73 71 70 71 74 77 78 78 80 81 83 83 86 92 97 100 100 99 100 100 99 98 99 87 58
74 68 72 68 60 61 60 69 66 72 73 70 68 72 74 74 78 78 82 80 76 74 73 74 74 75 74 80 84 88 90 91 94 100 100 100 100 100 100 100 100 96 77 71

GFSCGP_925_rhum_090.txt.gz
RH
96 100 98 83 83 83 36 41 42 38 49 54 46 43 40 36 40 35 31 35 35 30 24 32 34 36 82 81 78 77 72 80 96 96 100 100 99 97 92 92 92 87 86 85
100 93 66 52 70 91 74 41 50 37 57 54 45 48 41 38 39 34 32 28 31 36 28 31 35 31 58 80 84 85 68 64 77 98 94 78 90 94 98 96 92 91 91 90
94 61 54 67 96 100 69 43 42 52 59 56 50 56 45 38 39 35 36 33 30 36 34 31 35 39 37 43 75 87 76 45 55 78 70 76 81 82 91 98 96 89 90 89
83 83 65 82 85 97 78 37 47 49 55 64 54 48 40 39 42 40 36 37 37 38 32 30 32 36 36 33 33 44 77 71 57 42 78 91 96 95 92 89 96 98 84 80
83 90 81 98 77 94 95 55 47 52 50 56 65 63 34 43 43 41 36 34 34 34 32 33 34 34 34 38 37 33 40 79 92 76 48 98 98 94 94 95 93 97 91 86
75 82 76 66 83 88 95 67 59 55 61 81 42 54 33 37 36 35 33 32 33 31 31 30 33 38 41 33 34 41 38 56 77 91 98 100 99 99 100 100 100 98 99 99
75 81 77 67 97 90 100 80 96 92 84 57 45 59 36 32 36 30 28 28 31 31 31 30 30 38 45 49 44 42 47 46 54 64 74 87 90 86 85 83 79 80 80 89
76 85 78 75 77 99 100 95 60 58 55 43 63 61 35 28 26 28 30 28 30 31 31 31 29 33 45 49 52 53 53 58 58 50 48 44 40 38 38 41 44 61 70 80
83 94 73 68 85 86 97 98 53 64 60 51 46 44 35 31 35 35 35 32 32 30 32 33 32 37 43 50 52 55 57 62 65 67 66 60 57 58 59 55 60 62 61 70
95 98 71 93 83 94 98 86 75 83 76 54 56 45 22 34 32 30 28 30 30 31 30 30 34 40 48 56 63 64 62 63 71 73 71 73 65 61 63 70 74 77 82 86
88 91 100 97 95 88 98 99 69 59 69 47 53 38 32 32 32 33 30 32 33 36 40 37 41 50 57 66 71 72 71 71 71 70 71 71 72 71 70 71 72 75 80 87
62 93 93 97 76 61 90 69 56 68 81 69 60 39 30 32 36 37 35 44 46 48 50 50 51 58 62 65 70 72 73 71 73 73 71 71 72 72 71 72 71 72 76 79
67 88 94 98 92 88 94 80 61 63 73 79 49 38 32 36 38 34 38 43 53 56 59 56 55 56 58 62 66 69 71 71 73 72 71 71 72 72 72 74 74 72 74 76
72 70 73 64 57 69 99 78 63 87 84 63 56 42 35 35 35 33 33 45 52 57 61 56 54 55 58 61 66 68 69 71 74 74 73 73 74 75 75 77 78 79 80 82
69 86 67 67 64 66 72 75 74 86 67 77 47 53 34 29 33 33 38 49 54 60 62 60 56 53 57 61 64 67 69 72 73 75 76 78 81 83 84 84 86 85 87 86
76 81 64 75 64 66 71 69 69 67 62 58 56 53 39 34 32 35 34 50 56 58 61 58 57 54 55 57 60 66 69 73 76 75 78 84 86 88 90 92 92 93 94 94
68 71 70 77 64 58 58 52 67 68 66 58 71 48 40 40 40 38 36 46 54 52 55 58 56 57 56 57 59 63 67 72 74 76 81 86 88 90 92 94 96 96 97 99
59 57 61 64 58 53 43 49 54 58 58 60 56 53 45 43 40 37 33 36 42 51 51 54 56 58 60 59 61 62 68 73 78 78 82 86 88 91 96 99 99 99 99 99
54 56 65 63 56 48 60 59 56 56 56 52 55 50 48 48 46 46 38 37 36 44 46 50 54 58 61 62 62 65 72 77 82 80 86 89 90 94 98 99 99 100 100 100
58 55 58 69 68 52 54 54 50 51 67 55 55 51 52 53 59 41 51 53 43 48 55 57 60 64 64 64 64 66 70 75 78 81 84 88 96 98 100 99 98 99 100 100
64 65 69 61 64 49 44 52 53 66 66 56 60 55 55 55 48 58 55 57 60 63 63 65 66 66 68 70 70 70 72 78 82 88 91 95 99 98 98 100 100 100 100 100
56 59 62 63 64 66 42 58 63 53 54 60 62 53 55 58 62 60 60 61 62 64 66 72 70 75 77 79 76 77 82 80 80 87 94 99 99 99 99 99 100 100 100 100
60 50 50 50 46 42 40 52 48 49 56 58 59 60 56 62 62 62 60 59 60 63 65 70 70 73 78 81 78 81 82 78 82 93 97 100 99 100 100 100 100 100 100 94
52 50 49 54 47 45 44 43 44 51 56 58 59 58 60 60 59 59 57 57 58 61 63 70 71 71 73 78 78 73 79 79 88 88 94 100 100 100 100 100 100 100 100 95
54 55 54 52 48 45 47 50 49 58 64 61 61 61 62 63 66 62 68 68 67 67 69 72 68 68 68 77 79 76 81 86 88 88 96 100 100 100 100 100 99 99 99 97
55 54 53 52 50 52 47 58 59 61 65 64 62 64 65 62 66 64 69 72 72 69 71 73 78 77 72 77 78 80 82 88 87 90 99 100 100 100 100 100 100 100 100 99

GFSCGP_925_rhum_093.txt.gz
RH
88 100 99 94 86 55 73 46 34 27 33 40 43 37 29 31 32 31 26 24 24 25 24 26 33 54 62 65 64 68 78 82 91 94 99 94 87 85 80 76 80 77 73 74
97 97 58 61 64 90 95 68 40 25 36 41 42 40 30 31 32 30 26 23 23 24 24 25 30 39 61 67 70 70 65 75 92 98 99 96 93 95 92 88 90 90 86 82
82 62 49 60 94 100 91 63 44 32 45 44 45 44 36 30 28 28 26 23 22 21 24 25 29 34 59 67 71 71 61 62 79 93 86 94 91 91 99 98 96 78 82 89
76 61 62 77 96 84 86 42 44 36 53 54 42 53 35 32 32 29 29 26 26 23 25 25 30 35 37 42 69 72 71 79 73 83 92 90 79 68 65 59 56 78 77 80
93 75 62 73 74 72 94 74 41 47 48 44 49 48 29 27 34 32 29 26 25 25 28 28 30 38 40 38 45 49 54 72 81 72 70 80 61 61 61 56 80 84 84 68
93 86 72 69 60 63 86 71 75 52 56 84 43 41 26 33 29 27 25 24 24 25 29 27 33 34 38 43 48 50 51 64 79 91 58 57 53 54 65 74 68 58 54 93
83 98 84 80 99 96 98 86 96 94 93 54 31 45 29 25 25 23 25 24 23 24 28 29 30 36 36 45 49 52 46 48 58 70 74 84 78 58 57 63 69 57 70 82
71 92 94 78 84 100 100 98 84 73 70 47 42 43 31 21 21 25 24 23 21 24 25 26 27 32 36 44 43 42 48 52 54 58 62 67 77 84 81 70 68 66 63 64
68 89 84 68 72 78 100 95 58 58 34 42 40 30 28 27 28 29 28 27 28 27 26 26 26 26 30 50 49 43 47 53 54 56 58 60 61 59 55 56 48 54 60 68
97 90 62 80 70 81 97 95 75 79 64 54 39 27 30 32 30 28 28 29 27 25 25 26 27 28 33 40 48 52 49 54 58 61 60 62 66 65 69 71 75 75 74 75
75 88 100 84 77 92 99 100 81 57 64 43 51 33 27 30 29 28 26 26 25 26 27 26 26 29 35 44 52 54 55 63 66 64 64 65 66 67 68 69 73 75 77 80
79 92 93 98 72 52 66 74 54 68 64 60 62 41 27 31 32 31 29 36 35 35 34 32 30 39 46 54 56 57 62 62 63 64 62 65 67 66 65 67 68 69 72 74
79 87 95 99 91 86 86 76 72 52 76 74 59 42 26 32 32 29 30 34 40 43 45 42 41 45 50 53 55 58 60 62 65 64 64 65 66 65 64 66 69 70 71 73
75 95 97 76 66 64 95 76 55 85 77 46 46 38 33 31 32 28 30 32 39 45 48 45 45 45 48 51 54 56 58 62 65 64 64 65 67 67 68 71 72 73 74 75
85 99 61 56 55 56 70 68 61 91 61 71 44 43 29 26 29 28 28 36 41 46 49 48 46 45 48 53 56 56 59 62 64 65 67 69 73 75 76 77 78 78 79 80
69 81 59 70 57 57 65 58 60 59 55 51 49 49 34 31 30 30 28 35 42 46 50 48 47 45 48 52 54 57 61 63 66 65 67 74 76 78 81 82 83 85 86 86
61 60 64 74 56 52 66 58 59 58 54 53 65 48 37 37 33 35 32 34 39 42 46 49 48 47 47 49 52 57 60 63 64 65 68 74 75 79 82 85 87 89 91 93
53 50 52 52 49 57 44 40 45 52 46 48 50 46 42 39 36 36 33 33 32 38 42 45 46 48 49 50 52 55 58 62 66 66 69 74 76 79 85 89 94 100 100 100
48 48 52 57 45 46 57 54 49 53 54 48 50 46 42 42 42 45 36 35 35 32 38 40 45 48 52 52 53 55 60 64 71 68 72 75 78 81 86 94 99 100 98 98
50 49 54 56 61 47 50 47 44 45 63 51 52 49 49 47 57 49 48 47 41 38 44 43 46 50 53 54 55 57 61 64 69 72 72 77 84 84 91 98 100 99 100 100
54 54 60 51 56 43 40 47 46 69 84 55 55 49 47 48 50 52 48 52 52 56 56 58 55 56 57 58 59 60 62 65 70 77 80 82 90 93 97 99 97 98 99 100
50 52 53 52 58 58 38 54 60 51 48 53 54 47 48 51 54 55 55 56 57 58 60 66 61 68 69 70 68 68 70 75 79 84 87 91 96 99 100 98 100 100 100 100
55 46 54 48 47 39 35 40 39 43 47 54 54 52 49 54 58 56 55 54 56 56 60 63 63 67 71 74 72 72 79 86 86 87 90 94 98 99 100 100 100 100 100 100
45 42 46 48 43 41 40 39 40 40 52 55 54 54 55 58 56 57 56 56 55 57 58 62 62 62 66 72 73 68 76 79 80 81 83 89 96 100 100 100 100 100 100 99
52 49 47 45 42 41 45 48 45 50 57 56 55 56 59 65 67 58 66 63 65 67 63 64 62 60 60 67 69 70 75 78 78 76 78 89 97 100 100 99 99 99 99 99
46 52 54 79 49 49 43 43 54 54 58 57 57 59 59 56 60 57 62 64 65 65 66 66 68 72 73 75 76 75 76 78 80 80 80 92 99 100 100 100 99 100 100 100

GFSCGP_925_rhum_096.txt.gz
RH
89 95 97 89 90 84 75 62 56 40 35 42 50 46 37 29 29 34 35 34 31 30 27 31 37 58 65 64 68 76 82 80 81 84 85 85 80 79 75 71 67 65 71 72
87 93 58 68 80 96 99 94 56 45 38 44 50 51 36 31 35 35 32 31 29 28 30 30 39 50 62 66 65 70 76 84 85 86 88 91 84 76 77 77 73 78 75 74
85 63 56 65 84 100 92 91 67 75 45 50 44 55 44 31 34 34 33 30 26 28 28 32 38 47 60 65 67 71 75 76 81 84 81 91 89 83 81 78 74 75 74 74
79 54 70 67 93 92 85 63 65 52 63 100 65 88 76 54 37 37 36 34 30 27 26 29 38 44 61 66 71 71 68 73 79 77 76 75 74 75 72 73 76 69 69 71
90 81 66 97 97 75 80 81 72 79 62 55 65 66 63 46 39 35 34 34 32 30 30 32 41 40 44 59 77 72 65 71 82 82 77 79 75 66 63 63 64 71 66 59
90 81 85 69 72 71 82 77 74 82 85 98 74 55 40 36 35 35 31 31 32 31 31 32 40 42 42 42 50 55 82 77 68 59 58 58 62 62 70 67 64 65 76 77
99 95 83 79 98 91 98 99 99 98 98 88 58 56 40 28 27 28 29 31 30 30 34 41 47 47 47 46 47 46 59 80 84 71 68 58 51 52 53 56 54 52 55 56
86 98 89 88 90 99 99 100 98 86 90 62 46 89 44 27 28 26 27 28 30 31 37 41 46 44 44 47 47 42 44 50 65 74 73 77 61 60 60 59 55 57 61 58
81 97 76 83 84 82 100 100 90 99 52 74 49 30 27 33 35 29 29 29 29 30 35 39 38 42 46 48 49 45 46 43 51 57 63 63 68 74 80 75 73 66 67 70
88 92 71 77 66 82 97 94 97 99 96 91 50 42 40 38 35 35 33 34 31 28 27 29 36 36 46 46 47 48 53 53 50 53 58 61 64 64 63 60 58 60 60 59
68 85 99 75 77 87 98 93 95 79 77 83 70 50 33 40 36 34 31 31 33 32 32 32 32 33 44 48 50 51 54 58 60 58 54 52 58 60 60 60 64 67 68 71
85 98 96 86 62 55 65 71 73 96 73 93 88 57 38 39 36 36 39 37 37 37 37 36 36 46 50 52 53 55 64 65 64 62 54 48 50 55 59 61 61 63 65 64
85 96 99 99 94 81 83 72 71 72 85 82 94 57 37 35 34 33 38 44 47 44 45 44 51 54 56 56 57 62 63 64 62 61 58 58 63 64 64 63 64 65 65 68
78 95 99 98 75 79 94 75 68 90 93 61 95 48 37 38 36 39 37 41 53 53 53 52 56 58 54 56 57 60 63 64 63 62 62 64 64 64 64 65 65 66 67 68
81 100 97 58 55 63 75 82 72 83 72 79 55 46 40 37 34 32 35 39 49 56 55 56 58 62 56 56 57 59 62 64 64 64 64 66 67 66 66 66 68 69 70 72
80 96 63 82 55 58 70 66 64 66 62 58 55 56 38 39 36 38 36 41 44 54 56 55 56 58 58 57 57 59 61 64 65 66 68 68 67 68 70 71 72 73 76 78
70 93 78 91 56 54 78 64 65 60 54 56 70 53 49 48 42 37 42 39 40 46 56 57 58 56 53 55 56 60 62 64 65 66 68 69 70 73 76 79 79 82 84 86
66 60 60 73 56 76 51 43 52 56 50 48 51 50 48 48 44 41 41 42 39 44 51 57 56 51 50 52 55 59 62 64 65 66 68 71 74 78 81 83 87 90 93 98
52 64 67 77 58 56 59 54 51 58 59 50 53 52 49 47 52 57 50 49 46 43 46 50 48 49 50 52 53 57 61 63 65 67 69 72 74 78 81 85 90 100 99 97
52 58 71 75 77 63 61 50 46 46 78 54 57 58 55 53 74 75 60 58 60 52 58 55 47 50 53 53 54 57 62 64 69 68 69 72 75 79 82 87 98 100 99 96
65 63 76 72 74 57 48 49 47 80 91 60 59 52 53 69 69 62 58 62 59 62 62 59 58 58 56 55 55 58 62 65 68 70 71 75 78 82 85 90 100 97 100 100
54 65 67 66 66 72 48 56 69 59 55 57 61 53 54 63 63 63 63 65 67 66 68 67 68 70 68 63 60 62 65 67 68 72 76 80 83 87 92 100 99 100 100 100
64 56 66 58 62 44 37 40 39 42 48 60 61 59 56 63 65 63 65 65 65 63 63 65 68 71 72 72 70 72 75 73 74 78 81 85 88 94 98 100 100 100 100 100
50 46 56 52 49 47 51 48 45 44 62 62 60 59 61 68 68 72 71 70 70 64 64 63 63 67 70 73 72 72 77 79 81 83 86 89 93 95 98 98 100 100 100 100
64 57 55 53 57 54 56 56 61 56 59 61 63 65 74 72 67 68 73 69 70 68 67 66 66 64 66 68 69 69 73 76 78 79 80 86 91 96 98 99 100 100 99 99
55 66 78 92 61 60 54 54 62 64 62 64 66 70 69 66 68 69 76 73 72 73 72 71 69 68 68 70 71 72 72 74 75 76 77 83 89 96 99 99 99 100 100 100

GFSCGP_925_rhum_102.txt.gz
RH
88 90 93 86 92 99 100 94 86 65 61 79 79 65 86 87 86 86 88 81 73 59 55 60 72 78 70 66 71 72 80 74 83 84 78 71 70 74 71 67 67 66 66 58
84 94 73 61 92 97 100 88 98 76 54 68 76 74 73 88 85 84 84 84 71 52 49 55 64 73 76 74 68 70 73 72 79 80 81 78 70 68 67 71 73 69 69 70
88 69 58 64 96 98 100 88 87 85 70 72 70 80 77 71 71 77 86 86 59 41 46 53 73 77 77 78 77 76 68 71 76 73 91 79 79 76 78 70 73 75 73 76
82 76 77 68 91 98 95 87 80 78 94 99 82 96 85 85 60 53 66 78 54 40 38 49 65 80 80 78 74 70 70 72 76 79 82 72 79 90 76 76 79 80 80 79
75 91 90 89 75 84 100 89 82 75 86 78 93 81 70 63 60 46 39 45 40 39 39 50 58 72 74 74 70 72 74 77 78 79 80 76 82 82 79 79 84 88 87 84
92 82 98 90 77 79 88 95 84 86 88 96 91 79 61 63 53 43 40 43 40 39 38 47 55 64 77 79 77 73 75 76 80 81 70 73 78 80 87 97 90 81 77 78
95 100 88 77 95 91 99 99 98 98 98 95 95 96 72 49 44 38 40 41 40 38 39 49 61 74 83 84 82 82 83 86 73 72 73 79 77 72 73 79 77 75 87 77
97 98 98 80 88 95 100 100 97 95 96 96 74 90 58 39 37 40 38 38 40 42 40 53 64 68 76 81 82 83 80 78 78 74 75 81 73 70 69 69 69 64 62 69
95 99 82 82 82 89 100 99 95 90 72 90 91 61 39 39 41 41 41 40 41 41 41 59 65 60 65 72 77 82 82 87 88 86 75 73 69 66 64 66 70 68 63 64
86 95 82 86 79 79 95 90 95 94 85 92 74 50 47 40 41 43 43 43 43 43 42 63 65 58 55 53 54 64 77 85 86 80 68 61 63 66 68 70 62 62 67 69
90 76 91 77 84 91 92 95 94 86 90 87 83 60 47 55 38 42 40 37 37 41 45 62 68 57 55 50 48 49 58 72 86 86 82 81 75 73 70 68 66 68 70 72
86 81 98 85 78 70 70 73 88 90 89 98 88 70 42 52 48 50 51 50 51 42 44 54 63 61 62 60 55 53 54 55 60 65 67 68 68 70 72 70 68 65 60 58
83 92 90 84 79 74 85 79 77 84 86 98 90 72 44 47 47 49 54 53 56 55 60 74 77 72 67 64 60 54 55 57 59 60 64 66 67 68 68 66 63 63 61 57
84 91 91 81 67 79 95 85 81 82 92 97 96 81 45 43 45 45 49 55 57 58 62 72 79 81 72 66 64 65 67 63 64 65 64 63 62 60 59 60 63 64 63 60
85 93 94 82 78 78 79 82 84 84 86 96 82 75 51 44 39 39 41 54 57 58 63 71 77 80 75 73 71 68 67 67 66 64 62 60 61 61 61 62 63 63 64 62
87 94 83 87 62 76 84 79 81 78 68 83 80 72 53 46 46 50 46 55 58 60 58 63 70 75 76 72 70 68 66 66 65 64 64 64 64 64 64 64 65 65 65 65
82 92 92 90 66 62 82 78 81 72 61 62 76 60 50 48 48 50 48 44 49 61 62 63 67 70 70 70 68 68 66 65 66 66 66 66 66 66 66 67 68 69 70 71
95 83 82 87 64 77 55 47 56 62 56 56 55 52 51 52 63 65 64 57 49 50 60 63 64 64 65 66 66 65 66 67 67 67 67 68 68 68 70 72 73 72 73 75
92 84 85 84 80 61 63 64 59 58 73 60 65 62 57 55 57 62 65 64 68 68 68 68 58 58 61 62 62 64 67 67 69 69 69 69 68 70 72 73 73 76 79 82
78 77 83 87 85 74 66 54 50 50 89 68 62 57 58 60 76 74 68 69 73 72 76 77 62 57 58 62 63 64 67 68 70 68 67 67 68 69 71 74 78 82 85 94
80 80 84 83 86 67 53 54 52 64 72 65 56 56 63 70 73 70 70 74 72 75 80 79 70 64 60 60 62 65 66 68 64 66 67 68 70 71 74 78 81 85 93 100
70 80 82 83 84 83 53 57 70 66 60 67 58 58 68 71 68 70 72 74 76 77 77 77 79 78 70 64 65 66 67 62 65 67 68 69 71 74 78 80 84 92 100 100
69 68 76 69 71 54 63 56 60 52 53 68 63 62 70 73 70 69 75 77 77 75 74 75 74 75 74 71 67 68 66 67 67 71 73 74 76 79 82 85 91 99 100 100
71 64 66 64 74 73 73 68 73 72 67 67 68 64 71 72 73 78 80 80 79 75 75 72 71 74 76 74 73 75 73 74 75 76 78 80 82 85 88 92 95 96 99 100
78 74 74 81 70 67 64 73 79 76 68 72 76 78 77 82 80 77 81 82 80 80 78 75 75 75 75 72 71 77 80 82 83 84 84 86 87 89 90 92 92 94 98 99
79 79 86 90 80 81 81 80 77 79 77 74 75 80 79 77 81 83 88 86 85 84 82 83 84 81 79 76 76 75 74 76 80 82 83 84 86 88 91 92 92 94 97 99

GFSCGP_925_rhum_105.txt.gz
RH
84 88 92 75 98 95 100 98 91 76 74 85 90 77 83 83 81 90 87 84 81 76 60 51 93 82 69 69 71 82 82 98 96 85 92 88 82 80 74 68 55 52 51 52
83 89 72 66 85 94 100 98 95 81 68 77 84 81 75 84 79 94 88 85 83 81 62 53 68 100 81 81 68 69 70 81 81 91 88 90 78 75 70 64 64 66 58 59
89 68 62 63 100 98 99 90 98 82 86 83 80 92 91 93 85 84 85 80 82 80 75 54 67 91 96 93 83 68 68 67 74 78 95 82 86 83 78 72 68 70 69 68
84 73 82 71 100 89 96 78 79 85 89 99 91 99 95 90 89 86 87 85 84 81 68 53 58 81 83 66 65 70 65 67 70 64 72 81 76 82 71 81 76 78 76 71
74 91 89 86 80 92 100 79 80 92 99 96 98 86 73 84 86 87 78 83 81 76 67 52 53 69 69 72 73 66 71 68 78 67 68 72 75 71 65 68 85 84 82 86
91 82 94 92 80 94 96 93 83 96 100 95 90 80 69 84 63 62 58 73 75 78 59 40 43 53 74 80 82 82 74 74 69 82 84 69 80 74 82 84 92 90 91 88
93 99 97 79 93 96 100 84 97 98 97 93 86 77 58 57 48 46 48 44 59 51 41 40 65 81 79 83 84 85 81 80 87 70 80 84 85 80 76 83 98 99 93 88
97 99 97 82 89 96 100 100 92 95 97 97 90 82 56 43 40 41 38 36 37 38 40 43 59 74 76 74 84 89 85 82 71 69 70 77 79 76 77 76 72 76 76 75
96 97 83 87 89 88 100 98 96 85 78 91 89 71 42 40 43 39 46 43 42 43 44 43 57 67 75 78 78 78 78 76 65 60 68 74 81 79 73 72 70 73 72 72
90 93 77 80 78 80 97 93 96 93 82 94 83 60 53 54 48 47 48 47 43 40 42 44 59 62 66 70 72 84 85 78 70 73 77 77 82 81 76 73 72 70 69 64
89 76 83 75 84 88 90 95 93 84 89 87 85 60 45 58 53 45 49 44 42 42 43 49 60 58 65 72 77 83 85 82 84 90 89 84 78 76 74 75 76 69 63 67
84 82 98 82 70 75 69 74 87 90 90 94 89 75 48 54 55 51 56 56 56 52 50 56 65 62 66 65 62 62 69 82 91 95 88 83 80 79 76 74 72 73 76 77
83 87 92 79 78 72 87 79 79 84 86 94 88 77 45 48 51 55 58 60 63 58 67 80 78 77 72 64 62 60 59 64 77 83 84 82 80 78 78 78 77 73 68 65
83 96 88 84 67 75 94 87 83 82 93 92 94 75 50 47 46 47 56 62 64 65 67 78 83 81 76 70 65 64 64 60 59 64 68 70 71 70 68 66 62 60 61 60
86 99 100 84 74 80 78 81 84 86 86 90 89 74 55 52 48 46 45 58 64 65 65 72 80 86 81 78 74 69 66 66 67 66 66 65 64 62 60 60 61 61 61 61
83 92 90 85 68 78 86 80 81 78 87 85 82 75 54 49 51 58 58 56 60 62 62 66 74 79 81 78 75 72 71 70 68 67 66 65 64 64 64 64 64 62 62 64
82 89 92 83 68 67 81 69 81 75 64 80 80 66 51 52 54 62 66 58 56 57 61 64 69 73 74 73 70 70 70 69 70 68 68 68 67 66 66 65 64 66 68 69
93 87 86 88 64 79 59 53 63 67 64 57 57 56 58 58 65 69 70 69 64 66 74 71 67 65 65 67 69 70 70 69 69 70 70 69 68 67 67 67 68 69 72 74
90 90 85 83 81 60 69 66 74 65 76 70 66 62 57 59 61 64 70 70 74 75 72 74 72 63 64 66 68 68 70 70 71 70 69 68 68 68 68 70 72 74 76 79
91 87 85 88 84 78 64 55 51 53 89 69 60 58 62 61 72 72 74 74 76 75 78 83 78 65 62 66 67 68 70 70 70 69 68 68 68 68 69 71 74 77 81 83
84 84 84 85 90 72 52 58 56 66 66 66 56 57 64 68 70 75 76 78 76 78 82 81 80 71 65 66 67 69 71 69 66 67 68 69 69 69 71 75 77 80 84 88
73 82 86 85 87 83 58 60 70 65 66 74 60 59 68 72 72 73 77 80 81 82 81 81 83 83 76 71 70 71 71 69 69 69 70 70 70 72 74 77 80 84 88 93
73 70 79 72 73 68 75 74 75 76 59 72 66 61 68 73 72 72 78 79 81 80 78 77 79 80 78 75 73 73 72 70 69 70 71 72 74 76 78 80 84 90 94 100
76 73 70 75 76 78 79 72 81 80 76 73 75 67 72 71 73 80 82 83 83 81 80 76 73 77 78 76 78 77 75 73 73 75 78 79 80 82 84 87 89 92 95 98
80 76 79 83 71 69 70 82 82 82 79 77 78 83 80 85 79 78 83 86 88 88 84 80 80 80 80 75 77 80 82 82 82 82 83 84 84 87 88 90 89 90 88 91
81 79 87 84 80 79 79 80 78 81 83 80 79 78 79 80 83 82 88 88 85 82 79 83 86 84 84 80 80 80 79 78 80 83 85 86 88 89 90 91 91 91 91 91

GFSCGP_925_rhum_108.txt.gz
RH
85 91 92 82 76 99 95 96 98 74 72 71 84 78 72 83 91 85 89 93 87 86 77 74 92 84 77 74 98 100 100 100 100 100 100 97 90 87 84 78 68 64 64 64
85 93 66 71 70 96 96 94 95 80 77 70 89 91 90 86 88 87 89 90 87 82 78 69 94 90 72 68 89 96 100 100 100 100 94 94 93 84 82 80 76 65 58 60
93 70 67 75 82 100 91 98 96 87 84 86 90 96 96 90 88 85 83 84 83 79 75 72 91 100 90 80 80 94 98 94 100 100 100 97 96 94 88 81 73 68 62 57
88 71 82 82 95 98 99 90 94 80 93 100 96 98 96 94 93 90 86 87 88 80 71 60 63 95 99 84 79 72 87 99 94 94 80 74 82 93 89 83 71 68 75 70
78 92 85 95 93 97 100 86 89 96 96 100 96 83 99 86 91 85 84 84 81 79 73 64 54 59 88 98 91 84 96 100 98 86 76 59 88 88 82 86 81 80 80 79
87 78 87 92 96 97 96 93 86 88 91 96 99 73 86 93 81 76 73 87 81 76 70 61 44 42 67 87 68 69 80 91 93 96 96 94 87 74 82 89 75 81 87 84
91 96 98 96 100 96 100 88 98 94 95 96 87 77 57 74 64 64 59 74 82 66 71 56 46 70 77 79 99 100 97 100 89 75 88 82 68 69 76 68 65 76 95 98
97 97 98 81 93 99 100 90 92 92 94 92 82 83 59 45 50 54 53 54 79 65 65 48 42 59 75 73 83 90 97 93 60 62 64 69 68 65 74 75 64 77 95 96
96 98 86 79 83 94 100 95 92 85 76 93 92 64 41 46 46 45 48 51 51 47 43 41 41 52 72 78 78 64 80 89 74 67 70 74 80 83 82 85 77 84 88 85
92 89 73 77 82 92 99 95 94 92 84 90 84 63 65 60 56 53 50 48 45 43 42 42 45 54 69 78 78 80 80 85 82 84 84 83 86 88 85 80 80 84 84 78
88 74 74 72 88 93 92 96 90 83 89 92 88 70 49 62 60 57 59 52 45 41 42 43 46 58 68 76 81 85 82 82 79 86 88 88 88 86 85 84 82 78 75 71
85 82 98 83 68 80 73 78 90 90 89 94 90 80 50 58 63 59 63 62 57 56 65 66 53 60 67 74 83 84 90 90 92 91 91 91 89 85 81 78 78 76 70 71
89 89 91 72 64 68 86 85 85 82 86 93 88 76 50 53 55 66 67 67 66 65 71 79 79 76 75 74 77 78 78 87 93 97 92 89 86 83 80 78 76 76 75 75
80 90 86 95 86 76 90 85 90 82 93 95 92 68 61 55 54 54 66 70 70 69 73 78 82 85 80 74 69 68 70 80 89 93 90 87 86 84 81 79 76 72 65 60
85 96 88 83 75 80 83 83 86 92 87 83 78 70 58 59 58 60 61 68 70 70 68 81 86 89 86 82 76 72 70 71 74 76 76 76 75 73 71 68 64 63 63 62
81 92 89 83 71 79 91 87 83 83 84 84 78 74 56 54 58 64 68 61 64 71 71 71 80 83 84 82 80 76 73 72 72 70 70 70 68 66 65 66 65 64 62 61
83 88 90 80 68 73 81 69 81 76 69 77 72 64 54 60 63 74 74 70 64 69 78 73 71 76 78 78 76 77 77 75 72 70 70 69 68 66 66 66 64 64 64 65
90 88 86 88 61 85 61 59 60 70 70 62 59 63 62 62 69 74 75 75 77 78 77 80 80 71 70 73 73 72 72 73 73 73 72 71 69 68 68 68 68 68 70 72
88 90 86 83 82 61 72 69 85 83 84 75 67 62 58 60 65 72 74 75 79 80 79 82 80 75 67 70 73 72 74 73 72 73 72 72 71 70 72 71 71 73 74 77
95 86 86 90 84 81 68 56 53 62 88 70 60 59 63 62 69 75 79 79 80 80 84 89 82 76 70 71 71 71 73 73 73 71 70 70 71 71 71 71 74 75 77 80
85 86 83 86 91 72 54 63 60 67 63 75 58 60 66 70 70 78 76 80 79 81 83 84 84 80 74 74 73 73 74 73 70 72 72 72 71 69 71 73 75 77 81 84
76 84 87 88 89 86 69 64 65 65 68 75 67 62 69 73 74 77 81 82 83 85 82 84 86 87 84 79 73 76 76 73 71 72 74 74 75 75 74 76 78 82 85 87
76 72 81 73 75 75 78 80 79 83 71 78 72 68 69 73 73 76 82 83 84 83 82 80 82 81 83 79 78 77 77 73 72 73 74 75 74 76 79 79 81 86 88 90
79 74 75 81 80 78 81 75 81 84 81 80 82 75 71 73 76 80 84 86 88 86 85 80 78 81 84 87 83 83 80 78 76 77 79 80 80 81 82 83 84 86 89 91
81 75 80 82 75 73 73 80 82 82 82 84 82 86 79 80 78 77 83 88 91 90 88 85 84 85 86 81 80 82 85 86 84 84 85 85 85 86 86 87 86 87 86 86
84 78 88 87 77 76 78 85 79 80 84 85 89 81 77 80 85 82 88 89 83 80 78 84 88 89 89 86 85 84 81 79 80 83 86 88 89 90 91 92 91 89 89 90

GFSCGP_925_rhum_111.txt.gz
RH
85 90 91 73 78 83 91 95 94 73 62 75 83 64 67 87 87 87 87 85 77 82 73 89 78 80 82 94 97 99 100 100 100 100 100 100 95 75 76 78 75 72 71 77
83 95 70 66 72 82 90 97 87 71 64 73 68 68 69 89 84 87 89 84 78 79 73 84 96 90 97 85 91 99 100 100 100 100 100 100 99 88 75 80 74 64 68 71
92 71 68 75 87 92 91 97 93 85 77 74 76 98 96 87 84 86 86 84 82 84 73 79 96 87 93 90 94 97 100 100 100 100 100 98 99 96 94 86 81 74 70 70
89 73 79 83 95 91 97 94 100 79 99 99 96 99 95 91 88 90 87 88 89 80 68 67 91 97 96 84 87 90 98 96 99 100 100 99 97 95 94 92 85 83 81 69
76 77 84 85 94 98 100 100 98 88 100 100 97 84 100 85 92 87 85 88 90 73 65 62 74 91 99 99 97 100 98 91 96 100 100 100 100 96 86 93 90 85 82 70
84 69 85 94 97 98 97 96 95 84 91 97 98 75 87 93 83 77 78 91 88 72 68 59 51 53 83 98 100 98 91 89 87 96 99 98 85 81 88 82 83 84 82 83
92 98 98 97 99 88 100 85 91 89 94 96 95 74 64 69 69 66 74 93 80 70 67 53 59 75 88 100 99 86 99 97 82 80 81 92 96 94 80 75 90 75 90 99
97 97 94 88 99 100 100 86 92 87 92 92 71 86 62 48 46 54 59 81 82 67 58 50 47 64 85 100 100 85 93 94 85 86 98 100 98 89 90 89 75 88 94 99
98 89 77 82 97 99 99 92 96 85 76 81 84 56 45 44 47 49 51 80 84 70 47 43 43 60 71 86 98 91 82 97 87 85 91 85 81 90 85 86 98 99 100 100
93 87 65 76 89 86 90 88 91 90 85 91 73 71 72 61 62 58 54 62 84 72 54 48 42 55 75 83 90 97 98 98 98 98 97 99 98 100 100 100 99 94 89 90
91 75 71 72 91 98 91 93 85 83 84 82 78 93 52 63 65 68 66 56 71 78 52 48 42 59 75 88 95 98 100 97 96 97 94 94 96 99 94 91 91 89 86 86
86 82 96 85 73 84 75 86 90 86 88 90 84 88 52 58 67 66 69 64 62 77 72 68 60 60 71 84 96 99 100 91 88 91 96 95 94 92 88 87 85 80 77 78
88 89 87 70 60 65 84 83 87 81 84 96 88 77 50 52 53 64 72 70 68 69 74 76 73 72 74 80 91 96 100 100 96 94 94 97 94 89 86 85 84 79 76 76
74 90 88 95 88 84 90 83 88 83 87 89 87 68 64 63 62 61 71 71 70 68 75 79 80 82 82 79 82 82 93 100 100 96 95 92 90 86 83 81 79 77 76 73
80 88 96 80 79 81 87 88 87 95 87 83 77 73 69 66 66 66 65 62 63 70 71 80 82 83 87 83 79 78 85 93 96 94 92 90 88 84 81 80 77 72 66 63
82 91 84 81 82 79 81 83 82 83 80 83 76 77 60 59 63 67 73 64 67 73 79 76 78 82 85 85 81 76 75 78 83 84 84 83 81 79 76 72 67 64 62 62
87 87 84 82 69 74 80 70 80 75 78 71 82 69 61 69 74 80 76 75 77 76 74 77 81 78 82 82 80 80 78 78 75 75 78 77 74 71 68 66 65 66 67 68
90 88 85 86 60 85 61 65 60 74 81 72 70 70 65 70 78 78 79 80 80 80 79 79 85 84 75 79 79 79 79 77 76 74 73 72 69 68 70 70 69 69 70 71
89 88 89 80 84 63 71 69 81 71 91 79 72 64 65 65 67 73 80 81 82 84 86 90 86 84 77 78 77 76 79 79 78 78 76 74 71 70 71 70 70 71 71 72
93 84 83 87 82 82 71 60 59 65 94 76 61 66 69 63 70 72 82 82 82 84 87 91 87 82 75 78 78 76 78 78 78 77 76 75 74 71 72 72 73 74 76 76
86 86 82 88 90 73 55 63 63 67 68 81 62 66 70 74 73 77 80 81 81 82 85 86 86 88 86 80 78 78 78 76 74 74 75 75 75 73 72 72 73 74 78 81
78 84 87 89 88 84 73 69 64 62 68 78 72 67 76 81 82 79 79 82 84 84 83 84 86 90 88 84 79 77 75 74 74 74 73 73 74 74 74 73 76 81 84 87
77 71 78 72 72 70 80 81 81 84 78 83 80 76 70 75 76 78 84 84 86 86 83 80 82 88 88 84 82 81 83 80 78 77 77 78 78 78 79 79 81 86 88 89
80 76 78 80 80 79 79 79 83 84 83 84 85 80 72 73 77 81 83 87 89 89 87 83 80 84 88 91 90 90 85 82 81 81 82 82 80 80 81 82 83 86 90 93
83 78 81 83 80 76 72 80 82 82 83 83 81 85 83 78 78 77 83 87 91 89 89 88 88 89 90 87 86 85 88 91 90 92 93 93 92 92 90 90 89 88 86 87
87 82 88 84 78 75 77 84 77 78 81 84 86 82 78 80 86 83 87 88 81 78 80 86 89 90 93 90 90 90 88 85 84 91 92 93 93 96 96 94 92 92 92 92

GFSCGP_925_rhum_114.txt.gz
RH
67 76 70 49 48 63 69 78 75 50 42 51 80 55 48 67 70 65 66 63 64 57 50 54 76 73 99 85 90 95 98 98 98 100 100 99 91 86 85 86 85 85 82 86
73 73 43 49 53 59 67 72 72 52 43 51 60 64 43 52 64 64 67 64 64 57 53 53 66 98 92 94 91 93 96 100 100 98 95 96 93 87 84 87 87 87 88 92
74 47 46 57 64 75 70 84 73 75 74 56 61 69 56 75 71 66 61 57 69 62 55 61 64 94 91 93 87 94 99 98 99 99 100 99 98 96 94 96 92 90 88 82
62 50 61 61 71 84 91 85 99 98 98 97 56 85 83 79 85 75 68 68 71 62 58 64 62 88 93 98 98 91 100 99 98 99 100 99 97 93 88 92 96 74 73 76
63 56 62 76 72 100 97 99 100 99 99 100 87 86 100 93 91 76 65 64 60 67 70 66 61 84 87 98 95 99 95 100 100 100 100 100 97 90 93 96 99 92 86 84
72 55 68 73 72 94 97 100 100 100 100 96 85 71 99 95 71 65 59 63 68 77 77 62 69 95 98 99 90 93 99 100 100 100 100 99 98 100 100 100 97 98 95 90
72 87 82 95 97 78 92 93 82 93 93 95 94 62 74 54 64 66 64 69 83 89 77 53 63 93 97 96 97 95 88 92 89 91 95 100 99 97 90 98 77 99 100 96
87 80 82 92 99 100 99 93 89 90 91 93 73 86 82 45 42 41 63 79 86 90 68 50 55 79 99 99 99 100 99 95 94 91 96 95 100 97 98 92 88 93 90 84
81 80 80 96 98 98 92 89 95 80 63 70 92 65 47 45 49 46 73 84 90 90 80 50 54 69 95 100 100 100 100 96 99 100 92 95 80 100 96 88 87 92 93 92
77 86 56 68 87 74 88 95 90 77 75 88 85 89 90 62 63 56 82 88 94 86 53 40 52 66 79 98 100 89 98 98 90 94 90 86 86 98 83 81 94 86 94 86
74 67 68 62 84 99 85 83 76 66 66 66 76 93 58 64 65 61 72 91 96 90 76 48 46 65 84 91 100 100 100 100 98 99 98 91 93 86 88 92 97 98 93 100
72 69 83 84 61 74 67 77 75 78 71 72 62 91 44 51 61 59 63 86 93 89 82 59 50 56 77 92 99 100 100 99 100 100 99 100 100 100 100 100 100 100 100 100
70 73 75 67 67 61 67 65 72 66 70 86 70 86 44 46 53 55 60 62 85 85 79 62 59 55 65 84 93 100 100 100 100 100 100 100 100 100 100 100 100 99 96 92
66 69 88 81 79 77 88 69 67 81 73 64 68 62 54 54 53 54 55 59 60 70 72 74 68 68 67 75 84 96 100 100 100 100 100 100 100 100 99 94 89 87 82 80
62 88 74 68 67 68 73 71 64 88 65 77 62 64 59 56 54 52 48 53 62 68 65 67 70 69 68 70 76 88 98 100 100 99 99 99 97 94 92 90 87 83 81 80
61 80 70 74 56 53 63 63 57 62 58 58 55 64 51 51 47 50 53 54 58 60 61 67 62 64 68 71 72 79 90 96 96 96 95 96 92 90 90 88 85 82 78 73
67 66 66 75 59 60 65 72 68 63 62 57 65 62 51 55 60 64 60 57 60 60 60 67 64 66 70 72 73 73 78 83 86 88 89 89 88 86 84 80 76 72 69 67
71 69 64 59 50 67 60 58 61 68 68 59 59 56 55 58 61 62 61 62 60 62 63 64 67 68 68 74 75 77 78 78 81 80 82 82 82 83 82 81 80 75 71 69
71 67 60 57 61 63 61 62 75 68 77 62 54 52 54 57 55 61 63 62 64 66 68 72 74 74 72 74 75 76 77 79 79 77 78 80 79 80 81 80 77 77 75 73
69 62 58 62 64 67 58 54 55 56 79 63 53 56 55 50 49 60 63 63 62 68 75 77 77 73 70 79 77 73 73 72 75 78 79 80 79 78 82 80 79 77 79 75
61 59 64 61 65 57 49 54 55 56 71 68 57 60 57 55 61 65 62 65 66 70 76 77 79 82 84 82 78 76 76 77 77 79 83 83 81 81 82 79 76 77 79 81
57 56 57 64 67 70 59 60 54 59 64 67 62 62 65 64 66 66 68 69 70 71 72 78 80 86 89 87 80 80 83 85 78 77 75 76 78 77 79 78 77 86 91 93
58 52 53 52 53 66 71 69 69 63 65 71 67 66 62 66 67 68 70 68 72 74 75 75 76 80 89 95 90 85 92 89 88 86 86 88 88 84 83 85 89 86 88 84
64 63 56 64 68 68 68 70 72 70 70 72 73 68 65 63 65 73 72 69 72 78 78 77 74 75 83 88 89 95 94 90 86 85 87 88 86 87 88 92 90 84 86 85
57 62 59 64 70 68 66 66 70 71 70 70 69 74 69 64 67 66 72 74 77 75 79 80 78 78 84 86 90 90 89 95 94 98 97 94 91 90 90 92 92 89 88 92
61 60 56 52 51 50 53 63 66 65 69 72 72 71 70 73 70 72 75 78 70 68 74 76 82 82 86 85 89 89 88 94 89 88 92 97 98 100 100 100 98 97 95 94

GFSCGP_925_rhum_117.txt.gz
RH
52 70 71 59 41 46 49 55 60 40 30 34 36 46 62 37 40 40 35 39 37 44 40 42 52 81 98 92 90 100 98 89 90 100 100 93 75 59 60 61 62 66 61 62
62 82 44 34 32 42 46 52 50 39 34 40 44 44 35 37 49 55 51 47 52 46 44 41 52 77 97 92 78 99 91 95 95 95 98 91 85 80 76 69 61 59 58 63
62 46 35 39 45 55 54 63 61 60 53 59 66 54 41 39 42 44 50 48 45 45 45 41 49 72 98 94 84 80 96 95 95 94 92 91 82 81 83 82 78 76 76 78
52 39 44 46 54 58 93 55 89 89 94 88 48 74 56 42 48 54 48 50 50 47 43 43 52 66 96 91 83 96 90 99 98 94 94 90 90 86 82 86 87 86 83 87
60 52 50 58 58 93 89 83 100 100 100 98 72 95 71 43 68 65 59 59 52 50 45 51 54 63 94 92 81 98 97 98 99 94 94 93 91 84 86 89 89 92 86 90
62 47 55 63 60 79 92 100 100 100 100 91 68 90 99 99 89 66 66 61 63 66 61 61 57 61 91 89 86 93 100 99 96 91 85 94 92 88 87 92 90 94 92 96
67 74 64 84 99 70 86 98 97 97 97 81 94 92 100 88 72 76 77 82 82 73 70 61 56 79 94 98 98 95 99 100 99 97 99 100 99 99 94 94 95 96 100 100
86 92 85 95 99 100 98 94 97 95 92 80 52 87 99 72 55 68 70 83 82 76 67 52 61 88 92 99 97 91 96 98 98 95 97 100 98 98 100 100 83 99 99 97
82 83 62 75 96 97 86 88 83 96 94 77 94 97 85 62 69 79 83 89 89 81 69 64 59 90 93 97 98 97 98 97 98 94 85 95 92 87 96 97 98 98 94 96
74 88 52 58 78 83 94 86 89 87 93 91 91 89 96 90 89 87 87 96 92 88 72 66 75 88 89 90 92 95 98 96 89 100 90 95 90 89 89 90 88 98 89 91
69 76 87 74 97 100 92 81 70 65 60 93 83 94 94 77 76 89 88 96 97 93 87 74 85 90 99 99 100 100 99 100 100 100 99 95 98 99 97 90 92 94 92 94
59 70 93 75 51 56 68 70 66 93 67 69 61 96 59 59 71 80 87 92 94 92 82 71 81 86 94 100 100 99 100 99 100 100 99 100 100 99 100 100 91 80 79 79
64 70 94 75 52 50 68 54 57 57 66 70 71 94 45 48 60 69 89 90 93 92 81 70 74 73 88 98 100 100 100 100 99 100 98 99 99 100 100 100 99 98 98 99
67 64 84 80 74 73 87 54 59 87 77 75 85 78 55 52 54 56 60 65 72 82 84 78 63 64 77 86 98 100 100 100 100 100 99 100 100 100 100 100 100 100 100 100
55 77 58 54 58 53 56 56 51 69 54 79 65 66 59 52 51 51 49 51 57 62 74 81 80 65 65 69 84 97 99 100 100 100 100 100 99 100 100 100 100 99 98 93
49 67 60 62 48 49 65 58 55 54 50 53 55 64 49 47 47 51 51 53 57 58 59 61 66 72 68 67 72 86 95 98 96 97 98 98 98 99 99 96 93 90 86 82
56 56 60 66 51 50 57 71 62 58 55 52 68 57 44 54 59 59 54 52 57 57 59 58 61 60 66 66 67 72 82 87 90 93 94 93 92 93 93 90 87 85 82 80
58 56 55 50 44 60 59 54 58 62 60 50 50 49 50 53 57 57 55 56 59 60 63 61 60 64 63 65 69 71 74 78 82 86 89 89 88 89 89 87 86 85 82 79
56 54 50 52 54 57 57 56 67 81 69 49 48 45 44 49 45 63 57 55 59 62 64 65 64 64 65 68 68 69 72 75 74 76 78 79 82 82 82 84 84 82 80 80
54 50 52 52 59 59 49 51 49 49 83 53 49 50 47 39 53 71 60 58 58 64 69 69 69 68 68 69 67 65 66 68 73 72 75 79 81 82 82 83 87 88 81 78
46 45 51 49 55 54 45 48 48 63 80 55 52 52 51 62 62 62 59 62 60 63 70 71 76 79 78 75 70 71 74 81 81 81 81 80 80 80 82 83 80 80 83 82
46 45 43 48 50 64 50 53 55 60 60 54 54 55 59 59 59 62 60 62 64 64 65 72 75 81 86 84 75 82 84 83 83 82 83 85 85 84 88 87 88 89 88 92
47 46 46 49 55 60 59 60 59 50 55 60 58 59 56 60 61 62 61 61 64 65 66 66 70 78 85 89 88 92 93 85 82 78 79 82 83 84 84 86 86 85 85 83
49 47 46 53 57 59 59 62 60 57 61 63 63 59 59 58 59 62 61 61 63 68 68 66 66 68 74 84 88 92 94 90 83 83 84 85 81 79 78 81 80 78 78 77
45 51 45 50 55 57 57 55 59 62 61 62 62 64 60 57 59 58 65 63 64 65 67 67 66 68 72 75 80 84 86 86 93 96 95 92 94 94 90 91 91 87 80 82
48 43 46 37 38 40 42 51 58 60 62 62 63 64 64 65 61 63 65 64 61 60 65 67 70 71 73 74 79 84 86 85 82 79 86 92 96 98 98 96 96 98 97 96

GFSCGP_925_rhum_120.txt.gz
RH
56 80 93 68 56 58 63 69 71 46 33 35 38 38 34 34 42 51 46 35 32 29 25 37 43 51 50 70 93 80 88 100 87 76 60 59 60 62 62 64 74 72 68 69
80 93 58 43 44 46 49 57 59 45 38 42 54 67 42 39 39 51 50 48 35 29 32 48 47 62 80 81 96 86 82 100 87 81 71 62 62 64 66 66 70 69 70 67
72 53 39 41 48 55 56 63 62 60 47 54 66 74 62 51 46 44 51 54 56 53 51 57 51 70 91 99 98 94 92 99 99 82 80 70 63 63 66 68 70 68 67 66
58 42 42 46 55 52 87 56 63 78 94 94 57 89 69 53 44 46 50 61 63 54 47 45 51 71 92 99 86 79 94 89 100 85 85 89 78 75 72 67 66 63 61 63
69 57 56 65 61 67 91 79 91 99 99 99 79 98 83 48 50 49 53 52 59 46 51 51 54 61 91 97 87 92 83 92 94 82 89 90 88 84 85 79 72 67 71 70
66 49 54 63 57 66 72 92 97 99 96 97 71 96 98 99 97 85 54 60 71 76 56 51 55 57 95 95 92 88 92 72 87 99 90 88 87 90 93 94 93 85 86 84
71 79 59 83 99 71 86 99 97 98 99 93 99 95 99 98 93 93 77 88 83 74 73 72 70 75 94 98 94 97 94 99 89 92 98 76 84 68 88 92 94 89 91 93
94 95 86 89 97 99 97 100 98 96 97 93 100 97 98 96 86 87 87 88 79 78 64 64 66 74 93 95 99 99 86 86 91 97 99 99 76 92 72 94 96 95 99 99
90 82 59 68 81 95 91 99 98 99 90 85 98 94 90 93 95 88 92 89 91 86 74 78 68 86 93 96 100 85 84 82 90 98 98 100 100 99 99 91 99 95 92 98
80 97 87 66 79 83 98 86 99 99 96 95 96 97 98 100 100 92 95 96 93 89 81 89 84 95 92 97 89 74 72 72 91 93 96 94 97 99 99 98 100 99 98 96
71 96 76 80 98 99 94 96 83 94 84 96 95 98 98 100 98 96 96 96 96 94 91 93 97 94 93 99 98 100 100 98 99 99 98 91 90 85 87 97 91 98 94 90
79 78 97 86 51 60 65 98 65 95 96 99 95 98 84 93 93 88 95 94 94 92 94 93 97 98 98 100 100 99 99 100 100 99 100 97 92 96 99 99 98 93 94 97
72 84 94 84 64 58 76 59 55 66 76 94 96 98 58 65 76 86 91 93 94 95 90 88 90 95 97 99 100 100 100 100 99 100 100 97 100 92 98 96 93 98 99 99
71 67 84 98 100 89 90 56 64 84 88 91 94 88 65 63 63 62 70 86 91 92 91 91 87 87 93 99 100 100 100 100 100 100 100 100 100 99 100 99 100 100 100 100
60 78 59 57 57 64 70 65 66 72 68 93 77 78 69 65 62 62 60 65 75 81 84 88 88 86 89 94 100 99 100 100 100 100 100 100 100 100 100 100 100 100 99 100
51 70 61 64 51 62 74 77 69 87 96 65 76 76 61 62 62 64 65 66 70 73 76 76 76 77 77 84 94 98 99 97 98 98 99 100 100 100 100 100 100 100 100 99
59 66 73 71 50 51 81 90 69 65 58 60 81 66 63 72 72 72 69 69 75 75 72 71 73 73 78 79 80 85 90 93 95 95 96 98 99 99 99 99 99 98 97 97
69 60 63 76 48 80 62 56 61 61 58 53 55 59 67 74 72 69 66 73 78 76 74 71 70 72 71 70 73 76 79 84 89 91 91 90 92 94 93 92 91 91 88 85
59 66 67 74 73 66 62 60 63 68 73 58 59 54 58 68 68 79 67 67 76 76 74 74 72 71 70 68 68 70 73 74 76 80 81 86 90 90 88 88 88 87 85 84
57 60 70 62 71 76 64 55 50 55 84 59 60 62 64 58 92 92 74 70 74 76 76 80 80 79 76 71 71 78 80 80 81 77 79 81 82 83 86 87 87 85 84 81
61 55 63 61 75 62 50 52 50 70 82 60 62 66 73 87 84 75 71 72 67 72 76 81 85 89 87 80 78 84 84 83 81 80 80 80 79 82 84 86 86 85 82 81
53 59 59 60 60 80 52 54 71 74 64 63 67 67 73 73 72 71 72 74 73 71 74 79 85 88 87 85 83 89 89 82 80 80 81 82 82 82 82 82 84 89 88 88
61 59 63 65 72 65 60 70 61 58 67 67 70 66 66 70 72 70 74 74 73 70 68 72 77 82 84 88 90 95 97 85 80 79 81 82 81 80 84 84 84 88 88 89
52 48 58 64 67 71 69 63 60 62 72 71 68 65 61 70 69 71 72 73 75 71 69 68 72 76 80 80 80 83 85 91 89 88 86 84 82 80 78 80 80 82 80 82
58 58 53 64 64 64 64 67 69 70 67 69 71 71 68 64 66 70 74 73 69 69 68 67 70 73 76 79 77 71 69 72 80 85 91 94 96 95 90 87 84 83 83 82
62 58 64 60 59 62 64 66 66 71 70 66 68 71 70 70 71 71 76 67 63 67 68 72 73 74 74 77 82 83 81 74 73 78 81 86 86 89 94 98 100 99 100 100